[[{"header":{"parameterUnit":"m.s-1","parameterCategory":1,"la1":30.6,"la2":29.2853,"lo1":-89.7004,"lo2":-87.6739,"dy":0.0162,"dx":0.0183,"nx":112,"ny":82,"refTime":"2023-03-28T18:00:00:Z","depth":0,"parameterNumber":2,"parameterNumberName":"U-component_of_WINDS"},"data":[0.0,0.0,0.0,0.0,0.0,0.0,0.0,0.0,0.0,0.0,0.0,0.0,0.0,0.0,0.0,0.0,0.0,0.0,0.0,0.0,0.0,0.0,0.0,0.0,0.0,0.0,0.0,0.0,0.0,0.0,0.0,0.0,0.0,0.0,0.0,0.0,0.0,0.0,0.0,0.0,0.0,0.0,0.0,0.0,0.0,0.0,0.0,0.0,0.0,0.0,0.0,0.0,0.0,0.0,0.0,0.0,0.0,0.0,0.0,0.0,0.0,0.0,0.0,0.0,0.0,0.0,0.0,0.0,0.0,0.0,0.0,0.0,0.0,0.0,0.0,0.0,0.0,0.0,0.0,0.0,0.0,0.0,0.0,0.0,0.0,0.0,0.0,0.0,0.0,0.0,-3.4399,-3.4851,-3.4423,-3.3892,-3.3381,-3.2776,-3.2176,-3.1668,0.0,0.0,0.0,0.0,0.0,0.0,0.0,0.0,0.0,0.0,0.0,0.0,0.0,0.0,0.0,0.0,0.0,0.0,0.0,0.0,0.0,0.0,0.0,0.0,0.0,0.0,0.0,0.0,0.0,0.0,0.0,0.0,0.0,0.0,0.0,0.0,0.0,0.0,0.0,0.0,0.0,0.0,0.0,0.0,0.0,0.0,0.0,0.0,0.0,0.0,0.0,0.0,0.0,0.0,0.0,0.0,0.0,0.0,0.0,0.0,0.0,0.0,0.0,0.0,0.0,0.0,0.0,0.0,0.0,0.0,0.0,0.0,0.0,0.0,0.0,0.0,0.0,0.0,0.0,0.0,0.0,0.0,0.0,0.0,0.0,0.0,0.0,0.0,0.0,0.0,0.0,0.0,0.0,0.0,0.0,0.0,0.0,0.0,0.0,0.0,0.0,0.0,0.0,0.0,-3.4804,-3.4899,-3.4423,-3.4075,-3.3958,-3.3007,-3.237,-3.2259,0.0,0.0,0.0,0.0,0.0,0.0,0.0,0.0,0.0,0.0,0.0,0.0,0.0,0.0,0.0,0.0,0.0,0.0,0.0,0.0,0.0,0.0,0.0,0.0,0.0,0.0,0.0,0.0,0.0,0.0,0.0,0.0,0.0,0.0,0.0,0.0,0.0,0.0,0.0,0.0,0.0,0.0,0.0,0.0,0.0,0.0,0.0,0.0,0.0,0.0,0.0,0.0,0.0,0.0,0.0,0.0,0.0,0.0,0.0,0.0,0.0,0.0,0.0,0.0,0.0,0.0,0.0,0.0,0.0,0.0,0.0,0.0,0.0,0.0,0.0,0.0,0.0,0.0,0.0,0.0,0.0,0.0,0.0,0.0,0.0,0.0,0.0,0.0,0.0,0.0,0.0,0.0,0.0,0.0,0.0,0.0,0.0,0.0,0.0,0.0,0.0,0.0,0.0,-3.4899,-3.4899,-3.4899,-3.4423,-3.3958,-3.3646,-3.2857,-3.2398,-3.2398,-3.2398,0.0,0.0,0.0,0.0,0.0,0.0,0.0,0.0,0.0,0.0,0.0,0.0,0.0,0.0,0.0,0.0,0.0,0.0,0.0,0.0,0.0,0.0,0.0,0.0,0.0,0.0,0.0,0.0,0.0,0.0,0.0,0.0,0.0,0.0,0.0,0.0,0.0,0.0,0.0,0.0,0.0,0.0,0.0,0.0,0.0,0.0,0.0,0.0,0.0,0.0,0.0,0.0,0.0,0.0,0.0,0.0,0.0,0.0,0.0,0.0,0.0,0.0,0.0,0.0,0.0,0.0,0.0,0.0,0.0,0.0,0.0,0.0,0.0,0.0,0.0,0.0,0.0,0.0,0.0,0.0,0.0,0.0,0.0,0.0,0.0,0.0,0.0,0.0,0.0,0.0,0.0,0.0,0.0,0.0,0.0,0.0,0.0,0.0,0.0,0.0,0.0,0.0,-3.5015,-3.4899,-3.4899,-3.4521,-3.4109,-3.364,-3.2975,-3.2602,-3.2602,-3.2342,0.0,0.0,0.0,0.0,0.0,0.0,0.0,0.0,0.0,0.0,0.0,0.0,0.0,0.0,0.0,0.0,0.0,0.0,0.0,0.0,0.0,0.0,0.0,0.0,0.0,0.0,0.0,0.0,0.0,0.0,0.0,0.0,0.0,0.0,0.0,0.0,0.0,0.0,0.0,0.0,0.0,0.0,0.0,0.0,0.0,0.0,0.0,0.0,0.0,0.0,0.0,0.0,0.0,0.0,0.0,0.0,0.0,0.0,0.0,0.0,0.0,0.0,0.0,0.0,0.0,0.0,0.0,0.0,0.0,0.0,0.0,0.0,0.0,0.0,0.0,0.0,0.0,0.0,0.0,0.0,0.0,0.0,0.0,0.0,0.0,0.0,0.0,0.0,0.0,0.0,0.0,0.0,0.0,0.0,0.0,0.0,0.0,0.0,0.0,0.0,0.0,0.0,-3.5313,-3.4899,-3.4899,-3.4875,-3.4828,-3.4787,-3.3783,-3.313,-3.313,-3.216,0.0,0.0,0.0,0.0,0.0,0.0,0.0,0.0,0.0,0.0,0.0,0.0,0.0,0.0,0.0,0.0,0.0,0.0,0.0,0.0,0.0,0.0,0.0,0.0,0.0,0.0,0.0,0.0,0.0,0.0,0.0,0.0,0.0,0.0,0.0,0.0,0.0,0.0,0.0,0.0,0.0,0.0,0.0,0.0,0.0,0.0,0.0,0.0,0.0,0.0,0.0,0.0,0.0,0.0,0.0,0.0,0.0,0.0,0.0,0.0,0.0,0.0,0.0,0.0,0.0,0.0,0.0,0.0,0.0,0.0,0.0,0.0,0.0,0.0,0.0,0.0,0.0,0.0,0.0,0.0,0.0,0.0,0.0,0.0,0.0,0.0,0.0,0.0,0.0,0.0,0.0,0.0,0.0,0.0,0.0,0.0,0.0,0.0,0.0,0.0,0.0,0.0,-3.6439,-3.6274,-3.6274,-3.595,-3.5535,-3.5068,-3.4038,-3.35,-3.3755,0.0,0.0,0.0,0.0,0.0,0.0,0.0,0.0,0.0,0.0,0.0,0.0,0.0,0.0,0.0,0.0,0.0,0.0,0.0,0.0,0.0,0.0,0.0,0.0,0.0,0.0,0.0,0.0,0.0,0.0,0.0,0.0,0.0,0.0,0.0,0.0,0.0,0.0,0.0,0.0,0.0,0.0,0.0,0.0,0.0,0.0,0.0,0.0,0.0,0.0,0.0,0.0,0.0,0.0,0.0,0.0,0.0,0.0,0.0,0.0,0.0,0.0,0.0,0.0,0.0,0.0,0.0,0.0,0.0,0.0,0.0,0.0,0.0,0.0,0.0,0.0,0.0,0.0,0.0,0.0,0.0,0.0,0.0,0.0,0.0,0.0,0.0,0.0,0.0,0.0,0.0,0.0,0.0,0.0,0.0,0.0,0.0,0.0,0.0,0.0,0.0,0.0,-3.7493,-3.7276,-3.7102,-3.7102,-3.6746,-3.6284,-3.5768,-3.4888,-3.4304,-3.4175,0.0,0.0,0.0,0.0,0.0,0.0,0.0,0.0,0.0,0.0,0.0,0.0,0.0,0.0,0.0,0.0,0.0,0.0,0.0,0.0,0.0,0.0,0.0,0.0,0.0,0.0,0.0,0.0,0.0,0.0,0.0,0.0,0.0,0.0,0.0,0.0,0.0,0.0,0.0,0.0,0.0,0.0,0.0,0.0,0.0,0.0,0.0,0.0,0.0,0.0,0.0,0.0,0.0,0.0,0.0,0.0,0.0,0.0,0.0,0.0,0.0,0.0,0.0,0.0,0.0,0.0,0.0,0.0,0.0,0.0,0.0,0.0,0.0,0.0,0.0,0.0,0.0,0.0,0.0,0.0,0.0,0.0,0.0,0.0,0.0,0.0,0.0,0.0,0.0,0.0,0.0,0.0,0.0,0.0,0.0,0.0,0.0,0.0,0.0,0.0,0.0,0.0,-3.8328,-3.7668,-3.7135,-3.7119,-3.7135,-3.7119,-3.7119,-3.6574,-3.5664,0.0,0.0,0.0,0.0,0.0,0.0,0.0,0.0,0.0,0.0,0.0,0.0,0.0,0.0,0.0,0.0,0.0,0.0,0.0,0.0,0.0,0.0,0.0,0.0,0.0,0.0,0.0,0.0,0.0,0.0,0.0,0.0,0.0,0.0,0.0,0.0,0.0,0.0,0.0,0.0,0.0,0.0,0.0,0.0,0.0,0.0,0.0,0.0,0.0,0.0,0.0,0.0,0.0,0.0,0.0,0.0,0.0,0.0,0.0,0.0,0.0,0.0,0.0,0.0,0.0,0.0,0.0,0.0,0.0,0.0,0.0,0.0,0.0,0.0,0.0,0.0,0.0,0.0,0.0,0.0,0.0,0.0,0.0,0.0,0.0,0.0,0.0,0.0,0.0,0.0,0.0,0.0,0.0,0.0,0.0,0.0,0.0,0.0,0.0,0.0,0.0,0.0,0.0,-3.9135,-3.8959,-3.8747,-3.8652,-3.8747,-3.8548,-3.793,-3.7327,-3.6567,-3.5632,0.0,0.0,0.0,0.0,0.0,0.0,0.0,0.0,0.0,0.0,0.0,0.0,0.0,0.0,0.0,0.0,0.0,0.0,0.0,0.0,0.0,0.0,0.0,0.0,0.0,0.0,0.0,0.0,0.0,0.0,0.0,0.0,0.0,0.0,0.0,0.0,0.0,0.0,0.0,0.0,0.0,0.0,0.0,0.0,0.0,0.0,0.0,0.0,0.0,0.0,0.0,0.0,0.0,0.0,0.0,0.0,0.0,0.0,0.0,0.0,0.0,0.0,0.0,0.0,0.0,0.0,0.0,0.0,0.0,0.0,0.0,0.0,0.0,0.0,0.0,0.0,0.0,0.0,0.0,0.0,0.0,0.0,0.0,0.0,0.0,0.0,0.0,0.0,0.0,0.0,0.0,0.0,0.0,0.0,0.0,0.0,0.0,0.0,0.0,0.0,0.0,0.0,-3.959,-3.9484,-3.9395,-3.9299,-3.9379,-3.9212,-3.8676,-3.8327,-3.7563,-3.6316,0.0,0.0,0.0,0.0,0.0,0.0,0.0,0.0,0.0,0.0,0.0,0.0,0.0,0.0,0.0,0.0,0.0,0.0,0.0,0.0,0.0,0.0,0.0,0.0,0.0,0.0,0.0,0.0,0.0,0.0,0.0,0.0,0.0,0.0,0.0,0.0,0.0,0.0,0.0,0.0,0.0,0.0,0.0,0.0,0.0,0.0,0.0,0.0,0.0,0.0,0.0,0.0,0.0,0.0,0.0,0.0,0.0,0.0,0.0,0.0,0.0,0.0,0.0,0.0,0.0,0.0,0.0,0.0,0.0,0.0,0.0,0.0,0.0,0.0,0.0,0.0,0.0,0.0,0.0,0.0,0.0,0.0,0.0,0.0,0.0,0.0,0.0,0.0,0.0,0.0,0.0,0.0,0.0,0.0,0.0,0.0,0.0,0.0,0.0,0.0,0.0,0.0,-3.9729,-3.9511,-3.9352,-3.9352,-3.9352,-3.9352,-3.9325,-3.9325,-3.8537,-3.6699,0.0,0.0,0.0,0.0,0.0,0.0,0.0,0.0,0.0,0.0,0.0,0.0,0.0,0.0,0.0,0.0,0.0,0.0,0.0,0.0,0.0,0.0,0.0,0.0,0.0,0.0,0.0,0.0,0.0,0.0,0.0,0.0,0.0,0.0,0.0,0.0,0.0,0.0,0.0,0.0,0.0,0.0,0.0,0.0,0.0,0.0,0.0,0.0,0.0,0.0,0.0,0.0,0.0,0.0,0.0,0.0,0.0,0.0,0.0,0.0,-4.135,0.0,0.0,0.0,0.0,0.0,0.0,0.0,0.0,0.0,0.0,0.0,0.0,0.0,0.0,0.0,0.0,0.0,0.0,0.0,0.0,0.0,0.0,0.0,0.0,0.0,0.0,0.0,0.0,0.0,0.0,0.0,0.0,0.0,0.0,0.0,0.0,0.0,0.0,0.0,0.0,0.0,-3.9875,-3.9824,-3.9729,-3.9625,-3.972,-3.9694,-3.9475,-3.9475,-3.9011,-3.7955,-3.8012,0.0,0.0,0.0,0.0,0.0,0.0,0.0,0.0,0.0,0.0,0.0,0.0,0.0,0.0,0.0,0.0,0.0,0.0,0.0,0.0,0.0,0.0,0.0,0.0,0.0,0.0,0.0,0.0,0.0,0.0,0.0,0.0,0.0,0.0,0.0,0.0,0.0,0.0,0.0,0.0,0.0,0.0,0.0,0.0,0.0,0.0,0.0,0.0,0.0,0.0,0.0,0.0,0.0,0.0,0.0,0.0,0.0,0.0,0.0,0.0,-4.1611,0.0,0.0,0.0,0.0,0.0,0.0,0.0,0.0,0.0,0.0,0.0,0.0,0.0,0.0,0.0,0.0,0.0,0.0,0.0,0.0,0.0,0.0,0.0,0.0,0.0,0.0,0.0,0.0,0.0,0.0,0.0,0.0,0.0,0.0,0.0,0.0,0.0,0.0,0.0,0.0,-4.0961,-4.0891,-4.0704,-4.0273,-4.0239,-4.0027,-3.9561,-3.9448,-3.9077,-3.8351,-3.8306,0.0,0.0,0.0,0.0,0.0,0.0,0.0,0.0,0.0,0.0,0.0,0.0,0.0,0.0,0.0,0.0,0.0,0.0,0.0,0.0,0.0,0.0,0.0,0.0,0.0,0.0,0.0,0.0,0.0,0.0,0.0,0.0,0.0,0.0,0.0,0.0,0.0,0.0,0.0,0.0,0.0,0.0,0.0,0.0,0.0,0.0,0.0,0.0,0.0,0.0,0.0,0.0,0.0,-4.3192,-4.3623,-4.3639,-4.4282,-4.4207,-4.3475,-4.2936,-4.2205,-4.1407,-4.1378,0.0,0.0,0.0,0.0,0.0,0.0,0.0,0.0,0.0,0.0,0.0,0.0,0.0,0.0,0.0,0.0,0.0,0.0,0.0,0.0,0.0,0.0,0.0,0.0,-4.2692,-4.2692,0.0,0.0,0.0,0.0,0.0,0.0,0.0,0.0,0.0,0.0,0.0,0.0,-4.2115,-4.2034,-4.1745,-4.1131,-4.0966,-4.0625,-3.9971,-3.9698,-3.9275,-3.8529,-3.8274,-3.7618,0.0,0.0,0.0,0.0,0.0,0.0,0.0,0.0,0.0,0.0,0.0,0.0,0.0,0.0,0.0,0.0,0.0,0.0,0.0,0.0,0.0,0.0,0.0,0.0,0.0,0.0,0.0,0.0,0.0,0.0,0.0,0.0,-3.6242,-3.6445,0.0,0.0,0.0,0.0,0.0,0.0,0.0,0.0,0.0,0.0,0.0,0.0,0.0,-4.045,-4.0515,-4.1743,-4.2426,-4.2476,-4.3805,-4.4445,-4.4462,-4.4564,-4.4207,-4.3525,-4.4063,0.0,-4.1501,-4.1468,0.0,0.0,0.0,0.0,0.0,0.0,0.0,0.0,0.0,0.0,0.0,0.0,0.0,0.0,0.0,0.0,0.0,0.0,0.0,0.0,0.0,0.0,-4.351,-4.4136,-4.431,-4.431,0.0,-4.3244,-4.2286,-4.2286,-4.2286,0.0,0.0,0.0,0.0,0.0,0.0,0.0,-4.226,-4.2277,-4.2199,-4.2098,-4.2098,-4.193,-4.1619,-4.0963,-4.021,-3.9304,-3.8174,-3.7191,-3.643,-3.5819,0.0,0.0,0.0,0.0,0.0,0.0,0.0,0.0,0.0,0.0,0.0,0.0,0.0,0.0,0.0,0.0,0.0,0.0,0.0,0.0,0.0,0.0,0.0,0.0,0.0,0.0,0.0,0.0,0.0,-3.632,-3.6383,-3.6492,-3.6492,-3.6786,0.0,0.0,0.0,0.0,0.0,0.0,0.0,0.0,0.0,-4.0817,-4.1295,-4.1558,-4.1581,-4.2947,-4.3643,-4.371,-4.4327,-4.4615,-4.4615,-4.4615,-4.3989,-4.297,-4.3704,-4.3105,-4.1566,-4.1913,-4.2458,-4.3015,0.0,0.0,0.0,0.0,-4.2363,-4.2269,-4.1624,-4.1376,0.0,-4.1376,0.0,0.0,0.0,0.0,0.0,0.0,0.0,0.0,0.0,0.0,-4.4207,-4.4542,-4.4615,-4.4615,-4.4615,-4.4073,-4.3599,0.0,-4.3599,-4.3599,-4.3599,0.0,0.0,0.0,0.0,-4.3599,-4.3599,-4.3599,-4.3403,-4.298,-4.2858,-4.2597,-4.2058,-4.1575,-4.1128,-4.0732,-3.9327,-3.8253,-3.7606,-3.6583,-3.5861,0.0,0.0,0.0,0.0,0.0,0.0,0.0,0.0,0.0,0.0,0.0,0.0,0.0,0.0,0.0,0.0,0.0,0.0,0.0,0.0,0.0,0.0,0.0,0.0,0.0,0.0,0.0,0.0,-3.6492,-3.6553,-3.6738,-3.6753,-3.7219,0.0,0.0,0.0,0.0,0.0,0.0,-3.9989,-4.0356,-4.0654,-4.0992,-4.1805,-4.2173,-4.1997,-4.3199,-4.4002,-4.4377,-4.4539,-4.48,-4.5173,-4.5173,-4.4499,-4.3387,-4.4115,-4.3653,-4.2422,-4.2484,-4.2912,-4.3416,-4.2443,-4.2768,-4.3617,-4.2284,-4.1761,-4.1645,-4.0811,-4.0489,-4.0489,-4.0489,-4.0489,-4.0524,-4.0715,0.0,0.0,0.0,0.0,-4.3844,-4.4035,-4.4064,-4.415,-4.4514,-4.4615,-4.4615,-4.4615,-4.4615,-4.4615,0.0,-4.4615,-4.4615,-4.4615,0.0,0.0,0.0,0.0,-4.4615,-4.4615,-4.4615,-4.435,-4.3775,-4.3624,-4.3322,-4.2711,-4.2289,-4.1932,-4.1735,-4.0438,-3.9264,-3.829,-3.7251,-3.6316,-3.5504,0.0,0.0,0.0,0.0,0.0,0.0,0.0,0.0,0.0,0.0,0.0,0.0,0.0,0.0,0.0,0.0,0.0,0.0,0.0,0.0,0.0,0.0,0.0,0.0,0.0,0.0,0.0,0.0,0.0,-3.7369,-3.7446,0.0,0.0,0.0,0.0,-3.8541,-4.0308,-4.1373,-4.1403,-4.2602,-4.3026,-4.2441,-4.1852,-4.1243,-4.0627,-4.1309,-4.2381,-4.3764,-4.4391,-4.5397,-4.6684,-4.6684,-4.6307,-4.5663,-4.6357,-4.5884,-4.4543,-4.3177,-4.3,-4.3582,-4.3513,-4.3926,-4.4381,-4.3041,-4.2534,-4.2338,-4.0981,-4.0489,-4.0489,-4.0489,-4.0489,-4.0612,-4.1243,-4.1492,0.0,0.0,-4.1608,-4.1804,-4.2426,-4.2614,-4.2939,-4.4281,-4.4615,-4.4615,-4.4615,-4.4615,-4.4615,0.0,-4.4615,-4.4615,-4.4615,0.0,-4.4615,-4.4615,-4.4615,-4.4615,-4.4615,-4.4615,-4.4581,-4.4547,-4.4519,-4.4429,-4.4192,-4.3412,-4.2608,-4.1858,-4.0951,-3.9582,-3.7621,-3.7464,-3.6838,-3.5519,-3.5504,0.0,0.0,0.0,0.0,0.0,0.0,0.0,0.0,0.0,0.0,0.0,0.0,0.0,0.0,0.0,0.0,0.0,0.0,0.0,0.0,0.0,0.0,0.0,0.0,0.0,0.0,0.0,0.0,-3.7477,-3.8261,0.0,-3.9719,-4.0182,-4.042,-4.0408,-4.1101,-4.1486,-4.1486,-4.1949,-4.23,-4.2489,-4.2735,-4.2961,-4.3185,-4.3878,-4.4728,-4.5704,-4.5949,-4.6309,-4.6786,-4.6786,-4.6424,-4.5844,-4.6512,-4.6268,-4.5452,-4.5341,-4.492,-4.4225,-4.3325,-4.3361,-4.3852,-4.2919,-4.261,-4.2543,-4.2027,-4.1863,-4.1863,-4.1863,-4.1863,-4.1899,-4.2116,-4.2504,-4.2866,-4.2866,-4.3154,-4.3669,-4.436,-4.4549,-4.4814,-4.577,-4.6007,-4.6007,-4.6007,-4.5635,-4.5314,-4.5314,-4.4908,-4.4615,-4.4615,-4.4615,-4.4615,-4.4615,-4.4615,-4.4615,-4.4615,-4.4615,-4.4615,-4.4615,-4.4468,-4.4367,-4.431,-4.3863,-4.3452,-4.3155,-4.1942,-4.0893,-4.0161,-3.884,-3.7705,-3.6806,-3.6366,-3.5923,0.0,0.0,0.0,0.0,0.0,0.0,0.0,0.0,0.0,0.0,0.0,0.0,0.0,0.0,0.0,0.0,0.0,0.0,0.0,0.0,0.0,0.0,0.0,0.0,0.0,-3.7622,-3.8149,-3.8186,-3.9171,-4.0103,-4.0767,-4.1231,-4.1581,-4.182,-4.1624,-4.1608,-4.1836,-4.2318,-4.2559,-4.251,-4.3477,-4.3962,-4.3978,-4.4431,-4.5131,-4.6096,-4.6096,-4.6339,-4.6808,-4.6808,-4.654,-4.6174,-4.6618,-4.6552,-4.6147,-4.6341,-4.5883,-4.4964,-4.4283,-4.4283,-4.4585,-4.3925,-4.367,-4.3639,-4.3404,-4.3003,-4.2638,-4.2895,-4.2967,-4.2967,-4.2967,-4.3466,-4.4004,-4.4004,-4.4341,-4.4821,-4.5544,-4.5732,-4.5918,-4.6621,-4.6786,-4.6786,-4.6786,-4.6413,-4.6075,-4.6075,-4.5263,-4.4615,-4.4615,-4.4615,-4.4615,-4.4615,-4.4615,-4.4615,-4.4615,-4.4615,-4.4615,-4.4615,-4.4468,-4.4412,-4.4412,-4.3906,-4.37,-4.3939,-4.2456,-4.1465,-4.1224,-3.9704,-3.8411,-3.7478,-3.6818,-3.6163,-3.5504,0.0,0.0,0.0,0.0,0.0,0.0,0.0,0.0,0.0,0.0,0.0,0.0,0.0,0.0,0.0,0.0,0.0,0.0,0.0,0.0,0.0,0.0,0.0,-3.7663,-3.867,-3.9534,-3.9565,-4.0141,-4.0815,-4.1429,-4.1558,-4.1836,-4.241,-4.1917,-4.1868,-4.249,-4.3908,-4.4068,-4.2715,-4.4004,-4.4054,-4.2741,-4.27,-4.3391,-4.4791,-4.4772,-4.5492,-4.6811,-4.6811,-4.6811,-4.6811,-4.6811,-4.6811,-4.6742,-4.6005,-4.5733,-4.5805,-4.6464,-4.6742,-4.6662,-4.6016,-4.5758,-4.566,-4.5031,-4.3844,-4.2793,-4.3513,-4.3725,-4.3725,-4.3725,-4.4237,-4.4788,-4.4788,-4.4788,-4.4968,-4.561,-4.5814,-4.597,-4.6658,-4.6824,-4.6824,-4.6853,-4.6836,-4.6819,-4.6819,-4.5652,-4.4682,-4.4682,-4.4649,-4.4632,-4.4632,-4.4615,0.0,-4.4615,-4.4615,-4.4615,-4.4615,-4.4598,-4.4598,-4.4598,-4.3647,-4.3333,-4.4039,-4.249,-4.1242,-4.0594,-3.9911,-3.8883,-3.7449,-3.6836,-3.6193,-3.5534,0.0,0.0,0.0,0.0,0.0,0.0,0.0,0.0,0.0,0.0,0.0,0.0,0.0,0.0,0.0,0.0,0.0,0.0,0.0,0.0,0.0,-3.9597,-4.0259,-3.9125,-3.926,-3.9857,-4.0832,-4.1548,-4.1837,-4.1526,-4.2847,-4.3199,-4.1868,-4.3039,-4.3694,-4.3378,-4.4236,-4.4529,-4.4136,-4.4471,-4.4976,-4.5634,-4.5123,-4.5562,-4.7011,-4.6486,-4.6426,-4.6811,-4.6811,-4.6811,-4.6811,-4.6811,-4.6811,-4.6777,-4.6569,-4.6499,-4.6394,-4.5515,-4.52,-4.5184,-4.4997,-4.4934,-4.4903,-4.4716,-4.4375,-4.4071,-4.4301,-4.4338,-4.4338,-4.4338,-4.4507,-4.4638,-4.4638,-4.4638,-4.482,-4.5537,-4.5712,-4.6042,-4.7305,-4.7593,-4.7736,-4.8284,-4.7986,-4.7614,-4.7614,-4.6836,-4.6223,-4.6223,-4.5737,-4.5399,-4.5399,-4.4925,0.0,-4.4615,-4.4615,-4.4615,-4.4615,-4.4468,-4.4367,-4.4367,-4.4035,-4.3831,-4.3939,-4.3003,-4.233,-4.2011,-4.0878,-3.957,-3.8157,-3.7479,-3.6851,0.0,0.0,0.0,0.0,0.0,0.0,0.0,0.0,0.0,0.0,0.0,0.0,0.0,0.0,0.0,0.0,0.0,0.0,0.0,0.0,0.0,0.0,-4.0626,-4.1636,-4.0862,-4.1008,-4.1263,-4.1469,-4.2354,-4.2769,-4.2363,-4.3737,-4.4251,-4.332,-4.4194,-4.4572,-4.4123,-4.5049,-4.5358,-4.4725,-4.5518,-4.6094,-4.6332,-4.622,-4.6429,-4.6967,-4.6846,-4.6811,-4.6811,-4.6811,-4.6638,-4.6359,-4.6673,-4.6638,-4.6324,-4.6324,-4.6324,0.0,0.0,0.0,0.0,0.0,-4.5311,-4.5104,-4.5421,-4.5311,-4.5067,-4.5067,-4.5478,-4.5917,-4.5624,-4.5969,-4.6448,-4.6448,-4.6448,-4.6553,-4.6967,-4.7069,-4.7305,-4.8177,-4.837,-4.8482,-4.8909,-4.8663,-4.8376,-4.8376,-4.802,0.0,-4.7716,-4.6853,-4.616,-4.616,-4.5788,-4.5427,-4.5094,-4.5043,-4.4925,-4.4632,-4.4514,-4.444,-4.444,-4.4006,0.0,0.0,0.0,-4.1723,-4.1294,-4.0478,0.0,0.0,0.0,-3.7509,-3.6881,0.0,0.0,0.0,-3.5444,-3.5295,0.0,0.0,0.0,0.0,0.0,0.0,0.0,0.0,0.0,0.0,0.0,0.0,0.0,0.0,0.0,0.0,-4.1277,-4.252,-4.252,-4.3075,-4.3075,-4.1997,-4.2831,-4.3545,-4.3628,-4.4334,-4.507,-4.566,-4.5357,-4.5114,-4.5066,0.0,0.0,0.0,0.0,-4.7204,-4.5969,-4.6499,-4.6499,-4.5933,-4.6429,-4.6708,-4.6811,-4.6708,-4.6359,-4.5877,-4.6499,-4.6429,-4.5841,-4.5841,-4.5841,-4.5877,-4.6359,-4.6638,-4.6777,-4.6708,-4.6324,-4.5913,-4.6464,0.0,0.0,-4.5588,-4.6448,-4.7406,-4.6742,-4.7456,-4.8513,-4.8513,-4.8562,-4.8625,-4.8625,-4.8688,-4.8767,-4.8861,-4.8861,-4.8909,-4.897,-4.9001,-4.9001,-4.9001,-4.9001,-4.9001,-4.9001,-4.7851,-4.6921,-4.6921,-4.6836,-4.6549,-4.5906,-4.5754,-4.5449,-4.4801,0.0,0.0,-4.4615,-4.3873,-4.3638,-4.4097,-4.2125,-4.0535,-3.9574,-3.9553,-3.9197,-3.8527,-3.8497,-3.8182,-3.7524,-3.7524,-3.7195,-3.6582,-3.5923,-3.5579,0.0,0.0,0.0,0.0,0.0,0.0,0.0,0.0,0.0,0.0,0.0,0.0,0.0,0.0,0.0,-4.1171,-4.1901,-4.252,-4.252,-4.3075,-4.3617,-4.396,-4.3706,-4.3761,-4.439,-4.5102,-4.5585,-4.5763,-4.6712,-4.7301,-4.7301,-4.7561,-4.7572,-4.7309,-4.7105,-4.7153,-4.7473,-4.7017,-4.7017,-4.7473,0.0,0.0,-4.6777,-4.6182,-4.6147,-4.6604,-4.6742,-4.6708,-4.6569,-4.6569,-4.6569,-4.6464,-4.5421,-4.5769,-4.6742,-4.6111,-4.6182,-4.6534,-4.6076,-4.5805,-4.5588,-4.5008,-4.4993,-4.52,-4.5067,-4.5237,0.0,-4.5442,-4.5861,-4.6359,-4.6359,-4.6777,-4.7389,-4.7967,-4.8129,-4.8274,-4.8861,-4.9001,-4.9001,-4.9001,-4.9001,-4.9001,-4.9001,-4.8274,-4.7699,-4.7699,-4.7175,-4.6735,-4.6599,-4.6075,-4.5652,-4.55,-4.4942,-4.4615,-4.4615,-4.4457,-4.431,-4.4281,-4.3092,-4.1804,-4.05,-4.0324,-3.996,-3.9215,-3.923,-3.8886,-3.8197,-3.8197,-3.7868,-3.721,-3.6582,-3.6013,0.0,0.0,0.0,0.0,0.0,0.0,0.0,0.0,0.0,0.0,0.0,-4.0918,-4.0995,0.0,-4.2395,-4.2046,-4.2878,-4.341,-4.3045,-4.3903,-4.4616,-4.4633,-4.4616,-4.4901,-4.5701,-4.6406,-4.6806,-4.684,-4.7838,-4.829,-4.7914,-4.8249,-4.8274,-4.7917,-4.7901,-4.7901,-4.7885,-4.7901,-4.7901,-4.7885,-4.7522,-4.7522,-4.7885,-4.7884,-4.7879,-4.7946,-4.8695,-4.8579,-4.7863,-4.7503,-4.7355,-4.7238,-4.6147,-4.5949,-4.6182,-4.5841,-4.5933,-4.6253,-4.6253,-4.6499,-4.6692,-4.5933,-4.6218,-4.6726,-4.6378,-4.6518,-4.6795,-4.6795,-4.7069,-4.7355,-4.7355,-4.7622,-4.7999,-4.837,-4.845,-4.8545,-4.894,-4.9001,-4.9001,-4.9001,-4.9001,-4.9001,-4.9001,-4.8697,-4.846,-4.846,-4.8139,-4.7767,-4.7411,-4.7039,-4.6667,-4.6295,-4.5585,-4.5145,-4.5145,-4.4414,-4.3768,-4.332,-4.2426,-4.1411,-4.0255,-4.0146,-3.9879,-3.9424,-3.9388,-3.9245,-3.8901,-3.8901,-3.8556,-3.7883,-3.7584,-3.709,0.0,0.0,0.0,0.0,0.0,0.0,0.0,-4.2205,-4.2205,-4.1109,-4.1739,-4.2332,-4.1804,-4.266,-4.3317,-4.28,-4.3767,-4.4471,-4.3997,-4.4976,-4.5618,-4.5346,-4.5652,-4.621,-4.6938,-4.7564,-4.7939,-4.8091,-4.8663,-4.8719,-4.8161,-4.8688,-4.8736,-4.8129,-4.8688,-4.8719,-4.8129,-4.8688,-4.8688,-4.8129,-4.8728,-4.908,-4.9238,-4.9822,-4.9853,-4.9477,-5.0671,-5.0522,-4.936,-4.8794,-4.8545,-4.8479,-4.7731,-4.7077,-4.6514,-4.6243,-4.6218,-4.6429,-4.6846,-4.7422,-4.7787,-4.7051,-4.7589,-4.845,-4.7869,-4.8096,-4.8562,-4.8562,-4.8688,-4.8798,-4.8798,-4.8892,-4.9001,-4.9001,-4.9001,-4.9001,-4.9001,-4.9001,-4.9001,-4.9001,-4.9001,-4.9001,-4.9001,-4.9001,-4.9001,-4.9001,-4.9001,-4.8798,-4.8176,-4.7973,-4.7652,-4.7073,-4.6346,-4.5855,-4.572,-4.4336,-4.3259,-4.2707,-4.1901,-4.1026,-4.0165,-3.9985,-3.9753,-3.9445,-3.9409,-3.9388,-3.9388,-3.9388,-3.9125,-3.8586,-3.8586,-3.8167,-4.3346,-4.3393,-4.3558,-4.4207,-4.3885,-4.3363,0.0,-4.2892,-4.2458,-4.23,-4.2395,-4.2489,-4.2395,-4.3015,-4.3482,-4.3423,-4.4138,-4.4873,-4.5378,-4.5658,-4.6221,-4.74,-4.7014,-4.6972,-4.7733,-4.7838,-4.8159,-4.8832,-4.8951,-4.897,-4.8892,-4.897,-4.897,-4.8861,-4.897,-4.897,-4.8861,-4.897,-4.897,-4.8877,-4.8941,-4.9339,-4.9982,-5.0059,-5.0393,-5.0953,-5.1151,-5.1102,-5.0953,-5.0851,-5.0818,-5.0753,-5.0025,-4.967,-4.9436,-4.815,-4.8064,-4.8562,-4.7967,-4.7819,-4.7787,-4.7051,-4.6914,-4.7017,-4.6949,-4.6983,-4.7051,-4.7051,-4.7522,-4.8015,-4.8015,-4.8513,-4.9001,-4.9001,-4.9001,-4.9001,-4.9001,-4.9001,-4.9001,-4.9001,-4.9001,-4.9001,-4.9001,-4.9001,-4.9001,-4.9001,-4.9001,-4.8968,-4.89,-4.8325,-4.7855,-4.777,-4.7124,-4.6413,-4.5771,-4.4776,-4.415,-4.4076,-4.3323,-4.2538,-4.1772,-4.101,-4.0305,-3.9696,-3.9481,-3.9388,-3.9388,-3.9388,-3.9343,-3.9305,-3.9305,-3.8616,-4.4123,-4.415,-4.4207,-4.4514,-4.4384,-4.4047,-4.3617,-4.3617,-4.3486,-4.2676,-4.2831,-4.3075,-4.3075,-4.3317,-4.378,-4.4633,-4.5073,-4.553,-4.6249,-4.6746,-4.7228,-4.7825,-4.802,-4.8206,-4.8528,-4.8545,-4.868,-4.8984,-4.9001,-4.9001,-4.9001,-4.9001,-4.9001,-4.9001,-4.9001,-4.9001,-4.9001,-4.9424,-4.9644,-4.9644,-5.0083,-5.0437,-5.0728,-5.1177,-5.1799,-5.252,-5.2046,-5.1563,-5.1094,-5.0677,-5.0241,-4.9763,-4.945,-4.9641,-4.9988,-4.9409,-4.9393,-4.959,-4.9284,-4.9182,-4.9067,-4.8311,-4.8081,-4.8081,-4.8081,-4.8081,-4.8081,-4.8081,-4.8306,-4.8545,-4.8545,-4.8767,-4.9001,-4.9001,-4.9001,-4.9001,-4.9001,-4.9001,-4.9001,-4.9001,-4.9001,-4.9001,-4.9001,-4.9001,-4.9001,-4.9001,-4.9001,-4.9001,-4.9001,-4.8731,-4.8392,-4.7939,-4.7631,-4.6972,-4.5805,-4.4884,-4.4188,-4.3743,-4.2553,-4.1689,-4.1262,-4.0531,-3.995,-3.9517,-3.9445,-3.9388,-3.9388,-3.9388,-3.9388,-3.9388,-3.9388,-3.911,-4.4615,-4.4615,-4.4615,-4.4615,-4.4615,-4.4468,-4.3943,-4.4207,-4.431,-4.329,-4.3469,-4.381,-4.381,-4.3977,-4.4457,-4.5515,-4.6041,-4.6498,-4.7022,-4.775,-4.8193,-4.8193,-4.868,-4.9001,-4.9001,-4.9001,-4.9001,-4.9001,-4.9001,-4.9001,-4.9001,-4.9001,-4.9001,-4.9001,-4.9204,-4.9306,-4.9306,-5.0033,-5.0388,-5.0405,-5.115,-5.1522,-5.1539,-5.23,-5.2959,-5.3467,-5.2892,-5.2303,-5.1708,-5.1192,-5.0598,-5.0074,-4.9841,-5.0107,-5.0615,-5.0443,-5.0402,-5.041,-5.0398,-5.0388,-5.0321,-4.9779,-4.961,-4.9576,-4.9373,-4.9306,-4.9255,-4.9069,-4.9001,-4.9001,-4.9001,-4.9001,-4.9001,-4.9001,-4.9001,-4.9001,-4.9001,-4.9001,-4.9001,-4.9001,-4.9001,-4.9001,-4.9001,-4.9001,-4.9001,-4.9001,-4.9001,-4.9001,-4.9001,-4.9001,-4.8798,-4.8244,-4.8007,-4.7479,-4.6413,-4.528,-4.436,-4.3558,-4.2093,-4.1078,-4.0737,-4.0056,-3.9661,-3.9568,-3.946,-3.9424,-3.9481,-3.9424,-3.9388,-3.9388,-3.9388,-3.9388,-4.4615,-4.4615,-4.4615,-4.4615,-4.4615,-4.4598,-4.457,-4.457,-4.4587,-4.4542,-4.4542,-4.457,-4.457,-4.515,-4.564,-4.5703,-4.6921,-4.7821,-4.7855,-4.8511,-4.8968,-4.8968,-4.8984,-4.9001,-4.9001,-4.9001,-4.9001,-4.9001,-4.9001,-4.9001,-4.9001,-4.9001,-4.9001,-4.9001,-4.9678,-5.005,-5.005,-5.0811,-5.1183,-5.12,-5.1911,-5.2266,-5.23,-5.3112,-5.3484,-5.3501,-5.3467,-5.3433,-5.3433,-5.3399,-5.3366,-5.3281,-5.2505,-5.2205,-5.2134,-5.1357,-5.1105,-5.1185,-5.1151,-5.1183,-5.1151,-5.115,-5.1117,-5.1014,-5.027,-5.005,-4.9915,-4.9204,-4.9001,-4.9001,-4.9001,-4.9001,-4.9001,-4.9001,-4.9001,-4.9001,-4.9001,-4.9001,-4.9001,-4.9001,-4.9001,-4.9001,-4.9001,-4.9001,-4.9001,-4.9001,-4.9001,-4.9001,-4.9001,-4.9001,-4.9001,-4.8968,-4.8342,-4.7872,-4.7821,-4.6334,-4.5013,-4.4109,-4.275,-4.1592,-4.0737,-4.0056,-3.9803,-3.996,-3.9604,-3.9481,-3.9681,-3.9481,-3.9388,-3.9388,-3.9388,-3.9388,-4.4615,-4.4615,-4.4615,-4.4615,-4.4615,-4.4615,-4.4615,-4.4615,-4.4615,-4.4615,-4.4976,-4.5331,-4.5331,-4.5923,-4.6583,-4.709,-4.7567,-4.8058,-4.8578,-4.8849,-4.9001,-4.9001,-4.9001,-4.9001,-4.9001,-4.9001,0.0,-4.9001,-4.9001,-4.9001,-4.9001,-4.9001,-4.9221,-4.9712,-4.9965,-5.0321,-5.0828,-5.1572,-5.1944,-5.1944,-5.2723,-5.3095,-5.3112,-5.3382,-5.3501,-5.3501,-5.3501,-5.3212,-5.2712,-5.2712,-5.2378,-5.1862,-5.1606,-5.1842,-5.2272,-5.2004,-5.2239,-5.2588,-5.1497,-5.1127,-5.1128,-5.1207,-5.1185,-5.1134,-5.0913,-5.0828,-5.0676,-4.9932,-4.9729,-4.961,-4.9137,-4.9001,-4.9001,-4.9001,-4.9001,-4.9001,-4.9001,-4.9001,-4.9001,-4.9001,-4.9001,-4.9001,-4.9001,-4.9001,-4.9001,-4.9001,-4.9001,-4.9001,-4.9001,-4.9001,-4.9001,-4.9001,-4.8781,-4.8443,-4.7922,-4.7278,-4.616,-4.441,-4.3218,-4.2017,-4.0752,-3.995,-3.9517,-3.9604,-3.946,-3.9424,-3.9481,-3.9424,-3.9388,-3.9388,-3.9388,-3.9388,-4.4615,-4.4615,-4.4615,-4.4615,-4.4615,-4.4615,-4.4615,-4.4615,-4.4682,-4.4925,-4.5365,-4.5788,-4.6041,-4.6701,-4.7361,-4.7804,-4.8108,-4.8477,-4.8934,-4.9001,-4.9001,-4.9001,-4.9001,-4.9001,-4.9001,-4.9001,-4.9001,-4.9001,-4.9001,-4.9001,-4.9001,-4.9255,-4.961,-5.0084,-5.0608,-5.1116,-5.1606,-5.235,-5.2739,-5.2739,-5.3264,-5.3501,-5.3501,-5.3501,-5.3501,-5.3501,-5.3501,-5.3212,-5.2729,-5.2729,-5.2414,-5.1934,-5.1643,-5.1842,-5.2272,-5.1967,-5.2183,-5.2594,-5.2128,-5.1961,-5.1947,-5.1999,-5.2029,-5.1978,-5.1691,-5.1606,-5.1454,-5.071,-5.049,-5.0321,-4.9576,-4.939,-4.9323,-4.9069,-4.9001,-4.9001,-4.9001,-4.9001,-4.9001,-4.9001,-4.9001,-4.9001,-4.9001,-4.9001,-4.9001,-4.9001,-4.9001,-4.9001,-4.9001,-4.9001,-4.9001,-4.9001,-4.9001,-4.8815,-4.8311,-4.7963,-4.7021,-4.5294,-4.4025,-4.2664,-4.1177,-4.0268,-3.9681,-3.9517,-3.946,-3.946,-3.9517,-3.946,-3.9388,-3.9388,-3.9388,-3.9388,-4.4615,-4.4615,-4.4615,-4.4615,-4.4615,-4.4615,-4.4649,-4.4666,-4.4886,-4.5602,-4.5788,-4.6024,-4.6718,-4.7462,-4.7939,-4.7939,-4.8545,-4.9001,-4.9001,-4.9001,-4.9001,-4.9001,-4.9001,-4.9001,-4.9001,-4.9001,-4.9001,-4.9001,0.0,-4.9018,-4.9052,-4.9712,-5.0118,-5.0202,-5.1572,-5.2317,-5.2367,-5.3129,-5.3501,-5.3501,-5.3501,-5.3501,-5.3501,-5.3501,-5.3501,-5.3501,-5.3501,-5.3501,-5.3501,-5.3501,-5.3501,-5.3433,-5.2642,-5.2343,-5.2272,-5.1496,-5.122,-5.1443,-5.2972,-5.3467,-5.3433,-5.3501,-5.3501,-5.3365,-5.2587,-5.2367,-5.2215,-5.1471,-5.1268,-5.1099,-5.0338,-5.0118,-4.9915,-4.9221,-4.9035,-4.9001,-4.9001,-4.9001,-4.9001,-4.9001,-4.9001,-4.9001,-4.9001,-4.9001,-4.9001,-4.9001,-4.9001,-4.9001,-4.9001,-4.9001,-4.9001,-4.9001,-4.9001,-4.9001,-4.9001,-4.8376,-4.7583,-4.6615,-4.5059,-4.3444,-4.1833,-4.0967,-4.0246,-3.9717,-3.9517,-3.9481,-3.9681,-3.9481,-3.9388,-3.9388,-3.9388,-3.9388,-4.4615,-4.4615,-4.4615,-4.4615,-4.4615,-4.475,-4.528,-4.5415,-4.5635,-4.6363,-4.6972,-4.7411,-4.7597,-4.8223,-4.8731,-4.8731,-4.8883,-4.9001,-4.9001,-4.9001,-4.9001,-4.9001,-4.9001,-4.9001,-4.9001,-4.9001,-4.9001,0.0,-4.9001,-4.9238,-4.9779,-4.9982,-5.0591,-5.1708,-5.2097,-5.2587,-5.3196,-5.3399,-5.3501,-5.3501,-5.3501,-5.3501,-5.3501,-5.3501,-5.3501,-5.3501,-5.3501,-5.3501,-5.3501,-5.3501,-5.3501,-5.3467,-5.328,-5.3195,-5.3161,-5.2972,-5.2886,-5.2938,-5.3348,-5.3093,-5.2712,-5.3314,-5.3501,-5.3467,-5.3264,-5.3196,-5.3044,-5.2249,-5.2029,-5.186,-5.1116,-5.0507,-5.0033,-4.9847,-4.9407,-4.9001,-4.9001,-4.9001,-4.9001,-4.9001,-4.9001,-4.9001,-4.9001,-4.9001,-4.9001,-4.9001,-4.9001,-4.9001,-4.9001,-4.9001,-4.9001,-4.9001,-4.9001,-4.9001,-4.9001,-4.8832,-4.7948,-4.6109,-4.547,-4.4022,-4.152,-4.0929,-4.0359,-3.9696,-3.9517,-3.9424,-3.9496,-3.9424,-3.9388,-3.9388,-3.9388,-3.9388,-4.4615,-4.4615,-4.4682,-4.4993,-4.5077,-4.5263,-4.6007,-4.6177,-4.6397,-4.7141,-4.7631,-4.799,-4.8342,-4.8731,-4.9001,-4.9001,-4.9001,-4.9001,-4.9001,-4.9001,-4.9001,-4.9001,-4.9001,-4.9001,-4.9001,-4.9001,-4.9137,-4.9458,-4.9475,-4.9661,-5.0067,-5.071,-5.1437,-5.2266,-5.2638,-5.3044,-5.3501,-5.3501,-5.3501,-5.3501,-5.3501,-5.3501,-5.3501,-5.3501,-5.3501,-5.3501,0.0,-5.3501,-5.3501,-5.3501,-5.3501,-5.3501,-5.3501,-5.3501,-5.3501,-5.3501,-5.3501,-5.3501,-5.3501,-5.3195,-5.2903,-5.3348,-5.3501,-5.3501,-5.3501,-5.3501,-5.3416,-5.2959,-5.2841,-5.2655,-5.1894,-5.1386,-5.0896,-5.0236,-4.9779,-4.939,-4.9069,-4.9001,-4.9001,-4.9001,-4.9001,-4.9001,-4.9001,-4.9001,-4.9001,-4.9001,-4.9001,-4.9001,-4.9001,-4.9001,-4.9001,-4.9001,-4.9001,-4.9001,-4.9001,-4.9001,-4.8488,-4.7289,-4.6421,-4.5135,-4.3239,-4.1944,-4.0898,-4.0169,-3.9739,-3.9481,-3.9388,-3.9388,-3.9388,-3.9388,-3.9388,-3.9388,-4.475,-4.4835,-4.5055,-4.5686,-4.5855,-4.6041,-4.6769,-4.6938,-4.7158,-4.7902,-4.8041,-4.8227,-4.8883,-4.9001,-4.9001,-4.9001,-4.9001,-4.9001,-4.9001,-4.9001,-4.9001,-4.9001,-4.9001,-4.9001,-4.9001,-4.9086,-4.9407,-5.0033,-5.027,-5.0388,-5.0388,-5.1606,-5.235,-5.2469,-5.3145,-5.3501,-5.3501,-5.3501,-5.3501,-5.3501,-5.3501,-5.3501,-5.3501,-5.3501,-5.3501,-5.3501,-5.3501,-5.3501,-5.3501,-5.3501,-5.3501,-5.3501,-5.3501,-5.3501,-5.3501,-5.3501,-5.3501,-5.3501,-5.3501,-5.3501,-5.3501,-5.3501,-5.3501,-5.3501,-5.3501,-5.3501,-5.3501,-5.3501,-5.3501,-5.3348,-5.2638,-5.2384,-5.1978,-5.0693,-5.0236,-4.9915,-4.9272,-4.9069,-4.9001,-4.9001,-4.9001,-4.9001,-4.9001,-4.9001,-4.9001,-4.9001,-4.9001,-4.9001,-4.9001,-4.9001,-4.9001,-4.9001,-4.9001,-4.9001,-4.9001,-4.9001,-4.897,-4.8861,-4.7547,-4.6389,-4.5541,-4.3419,-4.184,-4.0879,-4.0139,-3.9679,-3.9388,-3.9388,-3.9388,-3.9388,-3.9388,-3.9388,-4.5517,-4.594,-4.643,-4.6583,-4.6599,-4.6802,-4.7547,-4.7733,-4.7936,-4.8663,-4.8815,-4.8849,-4.8984,-4.9001,-4.9001,-4.9001,-4.9001,-4.9001,-4.9001,-4.9001,-4.9001,-4.9001,-4.9001,-4.9001,-4.9001,-4.9543,-4.9949,-5.0084,-5.1234,-5.1911,-5.1911,-5.2164,-5.2604,-5.3281,-5.3433,-5.3501,-5.3501,-5.3501,-5.3501,-5.3501,-5.3501,-5.3501,-5.3501,-5.3501,-5.3501,-5.3501,-5.3501,0.0,-5.3501,-5.3501,-5.3501,-5.3501,-5.3501,-5.3501,-5.3501,-5.3501,-5.3501,-5.3501,-5.3501,-5.3501,-5.3501,-5.3501,-5.3501,-5.3501,-5.3501,-5.3501,-5.3501,-5.3501,-5.3501,-5.3467,-5.3331,-5.2807,-5.2232,-5.1978,-5.098,-5.005,-4.9932,-4.9424,-4.9001,-4.9001,-4.9001,-4.9001,-4.9001,-4.9001,-4.9001,-4.9001,-4.9001,-4.9001,-4.9001,-4.9001,-4.9001,-4.9001,-4.9001,-4.9001,-4.9001,-4.9001,-4.8719,-4.8129,-4.7818,-4.7029,-4.5556,-4.4369,-4.3089,-4.1654,-4.0707,-3.9999,-3.9388,-3.9388,-3.9388,-3.9388,-3.9388,-3.9388,-4.6261,-4.6532,-4.6887,-4.7276,-4.7378,-4.7581,-4.8308,-4.8477,-4.8578,-4.8934,-4.9001,-4.9001,-4.9001,-4.9001,-4.9001,-4.9001,-4.9001,-4.9001,-4.9001,-4.9001,-4.9001,-4.9001,-4.9001,-4.9154,-4.9543,-4.9881,-5.0405,-5.1183,-5.1894,-5.23,-5.23,-5.2706,-5.3112,-5.3501,-5.3501,-5.3501,-5.3501,-5.3501,-5.3501,-5.3501,-5.3501,-5.3501,-5.3501,-5.3501,-5.3501,-5.3501,-5.3501,-5.3501,-5.3501,-5.3501,-5.3501,-5.3501,-5.3501,-5.3501,-5.3501,-5.3501,-5.3501,-5.3501,-5.3501,-5.3501,-5.3501,-5.3501,-5.3501,-5.3501,-5.3501,-5.3501,-5.3501,-5.3501,-5.3501,-5.3501,-5.3501,-5.3213,-5.2824,-5.2401,-5.1166,-5.0084,-5.0084,-4.9509,-4.9001,-4.9001,-4.9001,-4.9001,-4.9001,-4.9001,-4.9001,-4.9001,-4.9001,-4.9001,-4.9001,-4.9001,-4.9001,-4.9001,-4.9001,-4.9001,-4.9001,-4.9001,-4.8861,-4.8482,-4.8129,-4.7325,-4.6053,-4.4883,-4.3625,-4.2279,-4.1133,-4.0342,-3.9933,-3.9553,-3.9388,-3.9388,-3.9388,-3.9388,-4.7039,-4.7141,-4.7411,-4.8003,-4.8125,-4.8308,-4.8883,-4.9001,-4.9001,-4.9001,-4.9001,-4.9001,-4.9001,-4.9001,-4.9001,-4.9001,-4.9001,-4.9001,-4.9001,-4.9001,-4.9001,-4.9001,-4.9137,-4.9458,-5.0033,-5.0388,-5.1048,-5.2215,-5.2469,-5.2553,-5.2553,-5.3162,-5.3501,-5.3501,-5.3501,-5.3501,-5.3501,-5.3501,-5.3501,-5.3501,-5.3501,-5.3501,-5.3501,-5.3501,-5.3501,-5.3501,-5.3501,-5.3501,0.0,-5.3501,-5.3501,-5.3501,-5.3501,-5.3501,-5.3501,-5.3501,-5.3501,-5.3501,-5.3501,-5.3501,-5.3501,-5.3501,-5.3501,-5.3501,-5.3501,-5.3501,-5.3501,-5.3501,-5.3501,-5.3501,-5.3501,-5.3501,-5.3298,-5.2486,-5.1403,-5.0473,-5.0152,-4.9644,-4.9187,-4.9035,-4.9001,-4.9001,-4.9001,-4.9001,-4.9001,-4.9001,-4.9001,-4.9001,-4.9001,-4.9001,-4.9001,-4.9001,-4.9001,-4.894,-4.8798,-4.8909,-4.8877,-4.8562,-4.8129,-4.7473,-4.6553,-4.5251,-4.4033,-4.2948,-4.1715,-4.0867,-4.0397,-3.9888,-3.9559,-3.9388,-3.9388,-3.9388,-4.7787,-4.8291,-4.8815,-4.8883,-4.89,-4.8917,-4.8984,-4.9001,-4.9001,-4.9001,-4.9001,-4.9001,-4.9001,-4.9001,-4.9001,-4.9001,-4.9001,-4.9001,-4.9001,-4.9001,-4.9001,-4.9001,-4.9593,-5.0016,-5.0084,-5.1302,-5.2147,-5.2283,-5.2976,-5.3399,-5.3399,-5.3467,-5.3501,-5.3501,-5.3501,-5.3501,-5.3501,-5.3501,-5.3501,-5.3501,-5.3501,-5.3501,-5.3501,-5.3501,-5.3501,-5.3501,-5.3501,-5.3501,0.0,-5.3501,-5.3501,-5.3501,-5.3501,-5.3501,-5.3501,-5.3501,-5.3501,-5.3501,-5.3501,-5.3501,-5.3501,-5.3501,-5.3501,-5.3501,-5.3501,-5.3501,-5.3501,-5.3501,-5.3501,-5.3501,-5.3501,-5.3501,-5.3298,-5.2486,-5.2198,-5.1725,-5.0388,-5.0033,-4.9796,-4.9137,-4.9001,-4.9001,-4.9001,-4.9001,-4.9001,-4.9001,-4.9001,-4.9001,-4.9001,-4.9001,-4.9001,-4.9001,-4.9001,-4.8719,-4.8064,-4.8608,-4.8418,-4.7085,-4.7556,-4.7473,-4.6553,-4.5545,-4.461,-4.371,-4.2743,-4.1632,-4.0397,-4.0337,-4.0008,-3.9388,-3.9388,-3.9388,-4.8578,-4.8781,-4.9001,-4.9001,-4.9001,-4.9001,-4.9001,-4.9001,-4.9001,-4.9001,-4.9001,-4.9001,-4.9001,-4.9001,-4.9001,-4.9001,-4.9001,-4.9001,-4.9001,-4.9373,-4.9661,-4.9661,-5.0304,-5.0947,-5.1386,-5.1961,-5.2503,-5.2993,-5.3315,-5.3501,-5.3501,-5.3501,-5.3501,-5.3501,-5.3501,-5.3501,-5.3501,-5.3501,-5.3501,-5.3501,-5.3501,-5.3501,-5.3501,-5.3501,-5.3501,-5.3501,-5.3501,-5.3501,0.0,-5.3501,-5.3501,-5.3501,-5.3501,-5.3501,-5.3501,-5.3501,-5.3501,-5.3501,-5.3501,-5.3501,-5.3501,-5.3501,-5.3501,-5.3501,-5.3501,-5.3501,-5.3501,-5.3501,-5.3501,-5.3501,-5.3501,-5.3501,-5.3416,-5.3112,-5.2655,-5.2131,-5.1555,-5.0727,-4.9999,-4.9712,-4.9306,-4.9001,-4.9001,-4.9001,-4.9001,-4.9001,-4.9001,-4.9001,-4.9001,-4.9001,-4.9001,-4.9001,-4.8593,-4.8242,-4.7917,-4.777,-4.7439,-4.6846,-4.7085,-4.683,-4.5897,-4.5353,-4.4666,-4.3754,-4.2861,-4.2141,-4.1617,-4.0786,-4.0262,-3.9993,-3.9604,-3.9388,-4.9001,-4.9001,-4.9001,-4.9001,-4.9001,-4.9001,-4.9001,-4.9001,-4.9001,-4.9001,-4.9001,-4.9001,-4.9001,-4.9001,-4.9001,-4.9001,-4.9001,-4.9001,-4.9001,-4.9627,-5.0084,-5.0084,-5.0947,-5.1742,-5.2249,-5.252,-5.2892,-5.3467,-5.3501,-5.3501,-5.3501,-5.3501,-5.3501,-5.3501,-5.3501,-5.3501,-5.3501,-5.3501,-5.3501,-5.3501,-5.3501,-5.3501,-5.3501,-5.3501,-5.3501,-5.3501,-5.3501,-5.3501,0.0,-5.3501,-5.3501,-5.3501,-5.3501,-5.3501,-5.3501,-5.3501,-5.3501,-5.3501,-5.3501,-5.3501,-5.3501,-5.3501,-5.3501,-5.3501,-5.3501,-5.3501,-5.3501,-5.3501,-5.3501,-5.3501,-5.3501,-5.3501,-5.3501,-5.3501,-5.3078,-5.2587,-5.235,-5.1471,-5.0608,-5.0168,-4.9678,-4.9255,-4.9035,-4.9001,-4.9001,-4.9001,-4.9001,-4.9001,-4.9001,-4.9001,-4.9001,-4.9001,-4.8129,-4.7572,-4.7572,-4.7085,-4.6604,-4.6198,-4.6359,-4.6076,-4.52,-4.4902,-4.448,-4.3793,-4.3052,-4.259,-4.2396,-4.1467,-4.0786,-4.0382,-3.9933,-3.9604,-4.9001,-4.9001,-4.9001,-4.9001,-4.9001,-4.9001,-4.9001,-4.9001,-4.9001,-4.9001,-4.9001,-4.9001,-4.9001,-4.9001,-4.9001,-4.9001,-4.9001,-4.9001,-4.9001,-4.9627,-5.0084,-5.0084,-5.1403,-5.23,-5.23,-5.3027,-5.3501,-5.3501,-5.3501,0.0,-5.3501,-5.3501,-5.3501,-5.3501,-5.3501,-5.3501,-5.3501,-5.3501,-5.3501,-5.3501,-5.3501,-5.3501,-5.3501,-5.3501,-5.3501,-5.3501,-5.3501,-5.3501,0.0,-5.3501,-5.3501,-5.3501,-5.3501,-5.3501,-5.3501,-5.3501,-5.3501,-5.3501,-5.3501,-5.3501,-5.3501,-5.3501,-5.3501,-5.3501,-5.3501,-5.3501,-5.3501,-5.3501,-5.3501,-5.3501,-5.3501,-5.3501,-5.3501,-5.3501,-5.3501,-5.3281,-5.2469,-5.2283,-5.1843,-5.0371,-5.0084,-4.9847,-4.9137,-4.9001,-4.9001,-4.9001,-4.9001,-4.9001,-4.9001,-4.9001,-4.9001,-4.9001,-4.7704,-4.6811,-4.6811,-4.6811,-4.6198,-4.4723,-4.5311,-4.5384,-4.4648,-4.4205,-4.4026,-4.3988,-4.3527,-4.3015,-4.2396,-4.2396,-4.1707,-4.0397,-4.0382,-4.0038,-4.9001,-4.9001,-4.9001,-4.9001,-4.9001,-4.9001,-4.9001,-4.9001,-4.9001,-4.9001,-4.9001,-4.9001,-4.9001,-4.9001,-4.9001,-4.9001,-4.9001,-4.9001,-4.9001,-4.9627,-5.0084,-5.0084,-5.1403,-5.252,-5.3078,0.0,-5.3501,-5.3501,-5.3501,-5.3501,-5.3501,-5.3501,-5.3501,-5.3501,-5.3501,-5.3501,-5.3501,-5.3501,-5.3501,-5.3501,-5.3501,-5.3501,-5.3501,-5.3501,-5.3501,-5.3501,-5.3501,-5.3501,0.0,-5.3501,-5.3501,-5.3501,-5.3501,-5.3501,-5.3501,-5.3501,-5.3501,-5.3501,-5.3501,-5.3501,-5.3501,-5.3501,-5.3501,-5.3501,-5.3501,-5.3501,-5.3501,-5.3501,-5.3501,-5.3501,-5.3501,-5.3501,-5.3501,-5.3501,-5.3501,-5.3433,-5.3179,-5.2689,-5.2164,-5.1691,-5.0777,-5.0016,-4.9779,-4.9323,-4.9001,-4.9001,-4.9001,-4.9001,-4.9001,-4.9001,-4.9001,-4.9001,-4.7671,-4.6811,-4.6811,-4.5877,-4.5104,-4.461,-4.4821,-4.4821,-4.461,-4.4205,-4.3988,-4.3988,-4.3542,-4.32,-4.3015,-4.262,-4.1722,-4.0397,-4.0397,-4.0053,-4.9001,-4.9001,-4.9001,-4.9001,-4.9001,-4.9001,-4.9001,-4.9001,-4.9001,-4.9001,-4.9001,-4.9001,-4.9001,-4.9001,-4.9001,-4.9001,-4.9001,-4.9001,-4.9001,-4.9627,-5.0304,-5.0862,-5.1742,-5.2621,0.0,-5.3501,-5.3501,-5.3501,-5.3501,-5.3501,-5.3501,-5.3501,-5.3501,-5.3501,-5.3501,-5.3501,-5.3501,-5.3501,-5.3501,-5.3501,-5.3501,-5.3501,-5.3501,-5.3501,-5.3501,-5.3501,-5.3501,0.0,0.0,-5.3501,-5.3501,-5.3501,-5.3501,-5.3501,-5.3501,-5.3501,-5.3501,-5.3501,-5.3501,-5.3501,-5.3501,-5.3501,-5.3501,-5.3501,-5.3501,-5.3501,-5.3501,-5.3501,-5.3501,-5.3501,-5.3501,-5.3501,-5.3501,-5.3501,-5.3501,-5.3501,-5.3501,-5.3112,-5.2655,-5.2367,-5.1336,-5.0422,-5.0135,-4.927,-4.8688,-4.897,-4.875,-4.8688,-4.897,-4.9001,-4.8892,-4.8608,-4.7522,-4.6673,-4.6394,-4.5274,-4.461,-4.461,-4.461,-4.461,-4.461,-4.4281,-4.4089,-4.4089,-4.366,-4.3463,-4.3463,-4.2764,-4.1856,-4.0771,-4.0516,-4.0053,0.0,-4.9001,-4.9001,-4.9001,-4.9001,-4.9001,-4.9001,-4.9001,0.0,-4.9001,-4.9001,-4.9001,-4.9001,-4.9001,-4.9001,-4.9001,-4.9001,-4.9001,-4.9001,-4.9593,-5.0557,-5.2046,-5.2232,-5.2553,-5.3416,-5.3501,-5.3501,-5.3501,-5.3501,-5.3501,-5.3501,-5.3501,-5.3501,-5.3501,-5.3501,-5.3501,-5.3501,-5.3501,-5.3501,-5.3501,-5.3501,-5.3501,-5.3501,-5.3501,-5.3501,0.0,-5.3501,0.0,0.0,-5.3501,-5.3501,-5.3501,-5.3501,-5.3501,-5.3501,-5.3501,-5.3501,-5.3501,-5.3433,-5.3467,-5.3501,-5.3433,-5.3433,-5.3382,-5.3348,-5.3433,-5.3501,-5.3501,-5.3501,-5.3501,-5.3501,-5.3501,-5.3501,-5.3501,-5.3501,-5.3501,-5.3501,-5.3501,-5.3281,-5.2536,-5.1792,-5.1048,-5.0304,-4.897,-4.8195,-4.8846,-4.8338,-4.8161,-4.8829,-4.897,-4.8719,-4.7999,-4.7288,-4.6569,-4.5769,-4.503,-4.461,-4.461,-4.461,-4.461,-4.461,-4.4396,-4.4281,-4.4281,-4.391,-4.369,-4.369,-4.2863,-4.2126,-4.1467,-4.0771,-4.0113,-4.9001,0.0,-4.9001,-4.9001,-4.9001,-4.9001,0.0,-4.9001,-4.9001,-4.9001,-4.9001,-4.9001,-4.9001,-4.9001,-4.9001,-4.9001,-4.9001,-4.9001,-4.9001,-4.9154,-4.9813,-5.1302,-5.1471,-5.2012,-5.3365,-5.3501,-5.3501,-5.3501,-5.3501,-5.3501,-5.3501,-5.3501,-5.3501,-5.3501,-5.3501,-5.3501,-5.3501,-5.3501,-5.3501,-5.3501,-5.3501,-5.3501,-5.3501,-5.3501,-5.3501,-5.3501,-5.3501,0.0,-5.3501,-5.3501,-5.3501,-5.3501,-5.3501,-5.3501,-5.3501,-5.3501,-5.3501,-5.3433,-5.2799,-5.2972,-5.3399,-5.2799,-5.2572,-5.2449,-5.1862,-5.2503,-5.3501,-5.3501,-5.3501,-5.3501,-5.3501,-5.3501,-5.3501,-5.3501,-5.3501,-5.3501,-5.3501,-5.3501,-5.345,-5.3264,-5.2587,-5.1809,-5.1082,-4.9707,-4.8613,-4.8212,-4.8032,-4.795,-4.8129,-4.8656,-4.8719,-4.7999,-4.7754,-4.7103,-4.5805,-4.503,-4.461,-4.461,-4.461,-4.461,-4.461,-4.4396,-4.4281,-4.4281,-4.391,-4.3596,-4.3384,-4.318,-4.2776,-4.2156,-4.1497,-4.0801,-4.9001,-4.9001,-4.9001,-4.9001,-4.9001,-4.9001,-4.9001,-4.9001,-4.9001,-4.9001,-4.9001,-4.9001,-4.9001,-4.9001,-4.9001,-4.9001,-4.9001,-4.9001,-4.9001,-4.9001,-4.9424,-5.0557,-5.0997,-5.1674,0.0,-5.3281,-5.3501,-5.3501,-5.3501,-5.3501,-5.3501,-5.3501,-5.3501,-5.3501,-5.3501,-5.3501,-5.3501,-5.3501,-5.3501,-5.3501,-5.3501,-5.3501,-5.3501,-5.3501,-5.3501,-5.3501,0.0,0.0,-5.3501,-5.3501,-5.3501,-5.3501,-5.3501,-5.3501,-5.3501,-5.3501,-5.3501,-5.3433,-5.2989,-5.2903,-5.2834,-5.1987,-5.1769,-5.1659,-5.122,-5.1716,-5.2397,-5.2397,-5.2397,-5.2397,-5.2397,-5.2397,-5.2397,-5.2397,-5.2397,-5.252,-5.2868,-5.2955,-5.3058,-5.3433,-5.2858,-5.2181,-5.1775,-5.0192,-4.8845,-4.8448,-4.7836,-4.7389,-4.7389,-4.7721,-4.7704,-4.6967,-4.6898,-4.6413,-4.5274,-4.4821,-4.461,-4.461,-4.461,-4.461,-4.461,-4.4511,-4.4381,-4.4281,-4.3988,-4.3714,-4.3463,-4.3384,-4.3,-4.2396,-4.2036,-4.1309,-4.9001,-4.9001,-4.9001,-4.9001,-4.9001,-4.9001,-4.9001,-4.9001,-4.9001,-4.9001,-4.9001,-4.9001,-4.9001,-4.9001,-4.9001,-4.9001,-4.9001,-4.9001,-4.9001,-4.9001,-4.9272,-4.9999,-5.0659,0.0,-5.2215,-5.2926,-5.3365,-5.3501,-5.3501,-5.3501,-5.3501,-5.3501,-5.3501,-5.3501,-5.3501,-5.3501,-5.3501,-5.3501,-5.3501,-5.3501,-5.3501,-5.3501,-5.3501,-5.3501,-5.3501,-5.3501,0.0,0.0,-5.3501,-5.3501,-5.3501,-5.3501,-5.3501,-5.3501,-5.3501,-5.3501,-5.3501,-5.3501,-5.3501,-5.2972,-5.22,-5.1496,-5.1182,-5.107,-5.0957,-5.0843,-5.0729,-5.0729,-5.0903,-5.1107,-5.1107,-5.1107,-5.1107,-5.1107,-5.1107,-5.1311,-5.1967,-5.2112,-5.2343,-5.3161,-5.2775,-5.2302,-5.2284,-5.056,-4.9077,-4.886,-4.7678,-4.6742,-4.6638,-4.6742,-4.6499,-4.5769,-4.5805,-4.5531,-4.4685,-4.4685,-4.4723,-4.461,-4.461,-4.4587,-4.4549,-4.4534,-4.4435,-4.4205,-4.4026,-4.3832,-4.3636,-4.3423,-4.3045,-4.2545,-4.244,-4.1796,-4.9001,-4.9001,-4.9001,-4.9001,-4.9001,-4.9001,-4.9001,-4.9001,-4.9001,-4.9001,-4.9001,-4.9001,-4.9001,-4.9001,-4.9001,-4.9001,-4.9001,-4.9001,-4.9001,-4.9001,-4.9272,-4.9999,0.0,-5.0794,-5.2164,-5.2418,-5.2773,-5.345,-5.3501,-5.3501,-5.3501,-5.3501,-5.3501,-5.3501,-5.3501,-5.3501,-5.3501,-5.3501,-5.3501,-5.3501,-5.3501,-5.3501,-5.3501,-5.3501,-5.3501,-5.3501,0.0,-5.3501,-5.3501,-5.3501,-5.3501,-5.3501,-5.3501,-5.3501,-5.3501,-5.3501,-5.3501,-5.3501,-5.3501,-5.2972,-5.2272,-5.2148,-5.1659,-5.0957,-5.0283,-4.955,-4.9,-4.9,-4.9994,-5.1107,-5.1107,-5.1107,-5.1107,-5.1107,-5.1107,-5.1145,-5.1257,-5.1294,-5.1533,-5.2343,-5.2402,-5.2294,-5.2302,-5.0978,-4.9504,-4.826,-4.7318,-4.6569,-4.5949,-4.6394,-4.6499,-4.5769,-4.6253,-4.6092,-4.4723,-4.5179,-4.5274,-4.4648,-4.461,-4.4534,-4.4358,-4.4358,-4.4166,-4.3808,-4.3769,-4.3636,-4.3384,-4.3329,-4.3245,-4.3125,-4.2626,-4.2291,-4.9001,-4.9001,-4.9001,-4.9001,-4.9001,-4.9001,-4.9001,-4.9001,-4.9001,-4.9001,-4.9001,-4.9001,-4.9001,-4.9001,-4.9001,-4.9001,-4.9001,-4.9001,-4.9001,-4.9001,-4.9137,0.0,0.0,-5.0355,-5.1048,-5.1826,-5.2452,-5.2824,-5.3264,-5.3501,-5.3501,-5.3501,-5.3501,-5.3501,-5.3501,-5.3501,-5.3501,-5.3501,-5.3501,-5.3501,-5.3501,-5.3501,-5.3501,-5.3501,-5.3501,-5.3501,0.0,-5.3501,-5.3501,-5.3501,-5.3501,-5.3501,-5.3501,-5.3501,-5.3501,-5.3501,-5.3501,-5.3433,-5.2989,-5.2607,-5.2236,-5.1806,-5.1406,-5.0957,-5.0128,-4.9646,-4.9203,-4.8728,-4.9147,-4.9773,-4.9773,-4.9773,-4.9773,-4.9773,-4.9773,-4.9892,-5.0361,-5.0438,-5.0691,-5.1496,-5.2004,-5.2314,-5.2314,-5.1413,-5.0343,-4.925,-4.7785,-4.6534,-4.5805,-4.566,-4.5494,-4.5142,-4.5421,-4.5348,-4.4648,-4.4896,-4.4955,-4.461,-4.461,-4.4549,-4.4473,-4.4358,-4.4205,-4.4026,-4.3793,-4.3636,-4.3518,-4.3384,-4.329,-4.329,-4.303,-4.2701,-4.9001,-4.9001,-4.9001,-4.9001,-4.9001,-4.9001,-4.9001,-4.9001,-4.9001,-4.9001,-4.9001,-4.9001,-4.9001,-4.9001,-4.9001,-4.9001,-4.9001,-4.9001,-4.9001,-4.9001,-4.9001,-4.9001,-4.9492,-4.9898,-5.0067,-5.1116,-5.1928,-5.2266,-5.2875,-5.3298,-5.3501,-5.3501,-5.3501,-5.3501,-5.3501,-5.3501,-5.3501,-5.3501,-5.3501,-5.3501,-5.3501,-5.3501,-5.3501,-5.3501,-5.3501,-5.3501,-5.3501,-5.3501,-5.3501,-5.3501,-5.3501,-5.3501,-5.3501,-5.3501,-5.3501,-5.3501,-5.3501,-5.3433,-5.2799,-5.2572,-5.2485,-5.1862,-5.1516,-5.1273,-5.0631,-5.0322,-5.001,-4.9163,-4.8893,-4.8852,-4.8646,-4.862,-4.862,-4.862,-4.862,-4.8769,-4.9446,-4.9606,-4.9829,-5.0653,-5.1311,-5.1822,-5.2004,-5.1371,-5.0576,-4.971,-4.7988,-4.6445,-4.5546,-4.4971,-4.461,-4.461,-4.461,-4.461,-4.461,-4.461,-4.461,-4.461,-4.461,-4.4587,-4.4534,-4.4358,-4.4205,-4.4166,-4.3793,-4.3596,-4.3596,-4.3384,-4.329,-4.329,-4.329,-4.306,-4.9001,-4.9001,-4.9001,-4.9001,-4.9001,-4.9001,-4.9001,-4.9001,-4.9001,-4.9001,-4.9001,-4.9001,-4.9001,-4.9001,-4.9001,-4.9001,-4.9001,-4.9001,-4.9001,0.0,-4.9001,-4.9001,-4.9052,-4.9357,-5.0016,-5.0185,-5.0828,-5.2198,-5.235,-5.2706,-5.3467,-5.3501,-5.3501,-5.3501,-5.3501,-5.3501,-5.3501,-5.3501,-5.3501,-5.3501,-5.3501,-5.3501,-5.3501,-5.3501,-5.3501,-5.3501,-5.3501,-5.3501,-5.3501,-5.3501,-5.3501,-5.3501,-5.3501,-5.3501,-5.3501,-5.3501,-5.3501,-5.3501,-5.3433,-5.3433,-5.3382,-5.3365,-5.2834,-5.22,-5.2148,-5.1623,-5.0843,-5.001,-4.9805,-4.9646,-4.8811,-4.862,-4.862,-4.862,-4.862,-4.862,-4.8687,-4.8687,-4.8959,-4.9829,-5.0026,-5.0322,-5.107,-5.0517,-4.9515,-4.8169,-4.7268,-4.6218,-4.4838,-4.4648,-4.461,-4.461,-4.461,-4.461,-4.461,-4.461,-4.461,-4.461,-4.461,-4.4511,-4.432,-4.4143,-4.3949,-4.3769,-4.3463,-4.3329,-4.3329,-4.329,-4.329,-4.329,-4.329,-4.3275,-4.9001,-4.9001,-4.9001,-4.9001,-4.9001,-4.9001,-4.9001,-4.9001,-4.9001,-4.9001,-4.9001,-4.9001,-4.9001,-4.9001,-4.9001,-4.9001,-4.9001,-4.9001,-4.9001,-4.9001,-4.9001,-4.9001,-4.9001,-4.912,-4.939,-4.9813,-5.0524,-5.1555,-5.2046,-5.2655,-5.3467,-5.3501,-5.3501,-5.3501,-5.3501,-5.3501,-5.3501,-5.3501,-5.3501,-5.3501,-5.3501,-5.3501,-5.3501,-5.3501,-5.3501,-5.3501,-5.3501,-5.3501,-5.3501,-5.3501,-5.3501,-5.3501,-5.3501,-5.3501,-5.3501,-5.3501,-5.3501,-5.3501,-5.3501,-5.3501,-5.3501,-5.3501,-5.328,-5.2938,-5.2449,-5.1733,-5.0919,-5.0143,-4.9526,-4.9015,-4.8702,-4.862,-4.862,-4.862,-4.862,-4.862,-4.862,-4.862,-4.8702,-4.9056,-4.9526,-4.9986,-5.0283,-5.008,-4.9579,-4.8613,-4.7463,-4.6376,-4.5405,-4.4896,-4.461,-4.461,-4.461,-4.461,-4.461,-4.461,-4.461,-4.461,-4.461,-4.4587,-4.4511,-4.4281,-4.4104,-4.3871,-4.3675,-4.3463,-4.329,-4.329,-4.329,-4.329,-4.329,-4.329,-4.9001,-4.9001,-4.9001,-4.9001,-4.9001,-4.9001,-4.9001,-4.9001,-4.9001,-4.9001,-4.9001,-4.9001,-4.9001,-4.9001,-4.9001,-4.9001,-4.9001,-4.9001,-4.9001,-4.9001,-4.9001,-4.9001,-4.9001,-4.9001,-4.9001,-4.9458,-5.0067,-5.0811,-5.1539,-5.23,-5.3078,-5.3365,-5.3501,-5.3501,-5.3501,-5.3501,-5.3501,-5.3501,-5.3501,-5.3501,-5.3501,-5.3501,-5.3501,-5.3501,-5.3501,-5.3501,-5.3501,-5.3501,-5.3501,-5.3501,-5.3501,-5.3501,-5.3501,-5.3501,-5.3501,-5.3501,-5.3501,-5.3501,-5.3501,-5.3501,-5.3501,-5.3501,-5.3501,-5.3399,-5.2834,-5.2112,-5.1311,-5.0515,-4.967,-4.8934,-4.8646,-4.862,-4.862,-4.862,-4.862,-4.862,-4.862,-4.862,-4.862,-4.862,-4.9081,-4.9486,-4.9486,-4.9481,-4.9241,-4.8578,-4.746,-4.6407,-4.5755,-4.502,-4.461,-4.461,-4.461,-4.461,-4.461,-4.461,-4.461,-4.461,-4.461,-4.461,-4.461,-4.4396,-4.4243,-4.4104,-4.3832,-4.3596,-4.3423,-4.3329,-4.329,-4.329,-4.329,-4.329,-4.9001,-4.9001,-4.9001,-4.9001,-4.9001,-4.9001,-4.9001,-4.9001,-4.9001,-4.9001,-4.9001,-4.9001,-4.9001,-4.9001,-4.9001,-4.9001,-4.9001,-4.9001,-4.9001,-4.9001,-4.9001,-4.9001,-4.9001,-4.9001,-4.9001,-4.9001,-4.9306,-5.0033,-5.0777,-5.1522,-5.2266,-5.3061,-5.3501,-5.3501,-5.3501,-5.3501,-5.3501,-5.3501,-5.3501,-5.3501,-5.3501,-5.3501,-5.3501,-5.3501,-5.3501,-5.3501,-5.3501,-5.3501,-5.3501,-5.3501,-5.3501,-5.3501,-5.3501,-5.3501,-5.3501,-5.3501,-5.3501,-5.3501,-5.3501,-5.3501,-5.3501,-5.3501,-5.3501,-5.3501,-5.3501,-5.2938,-5.2112,-5.1348,-5.0515,-4.9725,-4.8811,-4.862,-4.862,-4.862,-4.862,-4.862,-4.862,-4.862,-4.862,-4.862,-4.862,-4.862,-4.862,-4.862,-4.8389,-4.7711,-4.7034,-4.6357,-4.5664,-4.4987,-4.461,-4.461,-4.461,-4.461,-4.461,-4.461,-4.461,-4.461,-4.461,-4.461,-4.461,-4.4396,-4.4281,-4.4281,-4.391,-4.369,-4.369,-4.3423,-4.329,-4.329,-4.329,-4.329,-4.9001,-4.9001,-4.9001,-4.9001,-4.9001,-4.9001,-4.9001,-4.9001,-4.9001,-4.9001,-4.9001,-4.9001,-4.9001,-4.9001,-4.9001,-4.9001,-4.9001,-4.9001,-4.9001,-4.9001,-4.9001,-4.9001,-4.9001,-4.9001,-4.9001,-4.9001,-4.9306,-5.0033,-5.0287,-5.0963,-5.2232,-5.2536,-5.2926,-5.3484,-5.3501,-5.3501,-5.3501,-5.3501,-5.3501,-5.3501,-5.3501,-5.3501,-5.3501,-5.3501,-5.3501,-5.3501,-5.3501,-5.3501,-5.3501,-5.3501,-5.3501,-5.3501,-5.3501,-5.3501,-5.3501,-5.3501,-5.3501,-5.3501,-5.3501,-5.3501,-5.3501,-5.3501,-5.3501,-5.3501,-5.3501,-5.2938,-5.2112,-5.1348,-5.0515,-4.9725,-4.8811,-4.862,-4.862,-4.862,-4.862,-4.862,-4.862,-4.862,-4.862,-4.862,-4.862,-4.862,-4.862,-4.862,-4.8389,-4.7711,-4.7034,-4.6188,-4.5018,-4.4695,-4.461,-4.461,-4.461,-4.461,-4.461,-4.461,-4.461,-4.461,-4.461,-4.461,-4.461,-4.4396,-4.4243,-4.4104,-4.3832,-4.3596,-4.3423,-4.3329,-4.329,-4.329,-4.329,-4.329,-4.9001,-4.9001,-4.9001,-4.9001,-4.9001,-4.9001,-4.9001,-4.9001,-4.9001,-4.9001,-4.9001,-4.9001,-4.9001,-4.9001,-4.9001,-4.9001,-4.9001,-4.9001,-4.9001,-4.9001,-4.9001,-4.9001,-4.9001,-4.9001,-4.9001,-4.9001,-4.9187,-4.9627,-4.9915,-5.0608,-5.1809,-5.2147,-5.2672,-5.3484,-5.3501,-5.3501,-5.3501,-5.3501,-5.3501,-5.3501,-5.3501,-5.3501,-5.3501,-5.3501,-5.3501,-5.3501,-5.3501,-5.3501,-5.3501,-5.3501,-5.3501,-5.3501,-5.3501,-5.3501,-5.3501,-5.3501,-5.3501,-5.3467,-5.3127,-5.3024,-5.2972,-5.2661,-5.2555,-5.2555,-5.2555,-5.1987,-5.1236,-5.0783,-5.001,-4.9244,-4.8728,-4.862,-4.862,-4.862,-4.862,-4.862,-4.862,-4.862,-4.862,-4.862,-4.862,-4.862,-4.862,-4.862,-4.8481,-4.8065,-4.7204,-4.6111,-4.4756,-4.461,-4.461,-4.461,-4.461,-4.461,-4.461,-4.461,-4.461,-4.461,-4.461,-4.461,-4.461,-4.4473,-4.432,-4.4127,-4.391,-4.3714,-4.3463,-4.3344,-4.329,-4.329,-4.329,-4.329,-4.9001,-4.9001,-4.9001,-4.9001,-4.9001,-4.9001,-4.9001,-4.9001,-4.9001,-4.9001,-4.9001,-4.9001,-4.9001,-4.9001,-4.9001,-4.9001,-4.9001,-4.9001,-4.9001,-4.9001,-4.9001,-4.9001,-4.9001,-4.9001,-4.9001,-4.9001,-4.9001,-4.9001,-4.961,-5.0321,-5.1065,-5.1809,-5.257,-5.3365,-5.3467,-5.3501,-5.3501,-5.3501,-5.3501,-5.3501,-5.3501,-5.3501,-5.3501,-5.3501,-5.3501,-5.3501,-5.3501,-5.3501,-5.3501,-5.3501,-5.3501,-5.3501,-5.3501,-5.3501,-5.3501,-5.3501,-5.3501,-5.3399,-5.2642,-5.2343,-5.22,-5.1459,-5.1145,-5.1107,-5.1107,-5.0592,-4.9986,-4.9908,-4.9325,-4.8687,-4.862,-4.862,-4.862,-4.862,-4.862,-4.862,-4.862,-4.862,-4.862,-4.862,-4.862,-4.862,-4.862,-4.862,-4.8573,-4.845,-4.7388,-4.6111,-4.4756,-4.461,-4.461,-4.461,-4.461,-4.461,-4.461,-4.461,-4.461,-4.461,-4.461,-4.461,-4.461,-4.4572,-4.4511,-4.4281,-4.4089,-4.391,-4.369,-4.3463,-4.3329,-4.329,-4.329,-4.329,-4.9001,-4.9001,-4.9001,-4.9001,-4.9001,-4.9001,-4.9001,-4.9001,-4.9001,-4.9001,-4.9001,-4.9001,-4.9001,-4.9001,-4.9001,-4.9001,-4.9001,-4.9001,-4.9001,-4.9001,-4.9001,-4.9001,-4.9001,-4.9001,-4.9001,-4.9001,-4.9001,-4.9001,-4.9154,-4.956,-5.0287,-5.1048,-5.1792,-5.2536,-5.3179,-5.3501,-5.3501,-5.3501,-5.3501,0.0,-5.3501,-5.3501,-5.3501,-5.3501,-5.3501,-5.3501,-5.3501,-5.3501,-5.3501,-5.3501,-5.3501,-5.3501,-5.3501,-5.3501,-5.3501,-5.3501,-5.3501,-5.3467,-5.3314,-5.2834,-5.2272,-5.2112,-5.1606,-5.1107,-5.1107,-5.0995,-5.0691,-5.0065,-4.9749,-4.9446,-4.8769,-4.862,-4.862,-4.862,-4.862,-4.862,-4.862,-4.862,-4.862,-4.862,-4.862,-4.862,-4.862,-4.862,-4.825,-4.7188,-4.6788,-4.6111,-4.4756,-4.461,-4.461,-4.461,-4.461,-4.461,-4.461,-4.461,-4.461,-4.461,-4.461,-4.461,-4.461,-4.4473,-4.4358,-4.4281,-4.4089,-4.391,-4.369,-4.3636,-4.3518,-4.329,-4.329,-4.329,-4.9001,-4.9001,-4.9001,-4.9001,-4.9001,-4.9001,-4.9001,-4.9001,-4.9001,-4.9001,-4.9001,-4.9001,-4.9001,-4.9001,-4.9001,-4.9001,-4.9001,-4.9001,-4.9001,-4.9001,-4.9001,-4.9001,-4.9001,-4.9001,-4.9001,-4.9001,-4.9001,-4.9001,-4.9001,-4.9323,-5.005,-5.0811,-5.1555,-5.2283,-5.3078,-5.3501,-5.3501,-5.3501,-5.3501,-5.3501,-5.3501,-5.3501,-5.3501,-5.3501,-5.3501,-5.3501,-5.3501,-5.3501,-5.3501,-5.3501,-5.3501,-5.3501,-5.3501,-5.3501,-5.3501,-5.3501,-5.3246,-5.2868,-5.2485,-5.1842,-5.1086,-5.0653,-5.0229,-4.9915,-4.9915,-4.9915,-4.9813,-4.939,-4.9284,-4.9163,-4.8728,-4.862,-4.862,-4.862,-4.862,-4.862,-4.862,-4.862,-4.862,-4.862,-4.862,-4.862,-4.862,-4.862,-4.8266,-4.7234,-4.6803,-4.6219,-4.5187,-4.4825,-4.461,-4.461,-4.461,-4.461,-4.461,-4.461,-4.461,-4.461,-4.461,-4.461,-4.461,-4.4496,-4.4396,-4.4281,-4.4205,-4.405,-4.3832,-4.3832,-4.3714,-4.3503,-4.3503,-4.3423,-4.9001,-4.9001,-4.9001,-4.9001,-4.9001,-4.9001,-4.9001,-4.9001,-4.9001,-4.9001,-4.9001,-4.9001,-4.9001,-4.9001,-4.9001,-4.9001,-4.9001,-4.9001,-4.9001,-4.9001,-4.9001,-4.9001,-4.9001,-4.9001,-4.9001,-4.9001,-4.9001,-4.9001,-4.9001,-4.9272,-4.9864,-5.0608,-5.1352,-5.2097,-5.2892,-5.3365,-5.3501,-5.3501,-5.3501,-5.3517,-5.3517,-5.3534,-5.3501,-5.3501,-5.3501,-5.3501,-5.3501,-5.3501,-5.3501,-5.3501,-5.3501,-5.3501,-5.3501,-5.3501,-5.3501,-5.3501,-5.3093,-5.2414,-5.1753,-5.1011,-5.0167,-4.9309,-4.8918,-4.8811,-4.8661,-4.862,-4.862,-4.862,-4.862,-4.862,-4.862,-4.862,-4.862,-4.862,-4.862,-4.862,-4.862,-4.862,-4.862,-4.862,-4.862,-4.862,-4.862,-4.862,-4.8389,-4.7711,-4.7034,-4.6357,-4.568,-4.4987,-4.461,-4.461,-4.461,-4.461,-4.461,-4.461,-4.461,-4.461,-4.461,-4.461,-4.461,-4.461,-4.4534,-4.4358,-4.4358,-4.4243,-4.4065,-4.4065,-4.3949,-4.3769,-4.3769,-4.3596,-4.9001,-4.9001,-4.9001,-4.9001,-4.9001,-4.9001,-4.9001,-4.9001,-4.9001,-4.9001,-4.9001,-4.9001,-4.9001,-4.9001,-4.9001,-4.9001,-4.9001,-4.9001,-4.9001,-4.9001,-4.9001,-4.9001,-4.9001,-4.9001,-4.9001,-4.9001,-4.9001,-4.9001,-4.9001,-4.9035,-4.9137,-4.9847,-5.0574,-5.1303,-5.208,-5.279,-5.3501,-5.3501,-5.3551,-5.3684,-5.3684,-5.3601,-5.3501,-5.3501,-5.3501,-5.3501,-5.3501,-5.3501,-5.3501,-5.3501,-5.3501,-5.3501,-5.3501,-5.3501,-5.3501,-5.3501,-5.3433,-5.3314,-5.3195,-5.2642,-5.1858,-5.1032,-5.0267,-4.9606,-4.8852,-4.862,-4.862,-4.862,-4.862,-4.862,-4.862,-4.862,-4.862,-4.862,-4.862,-4.862,-4.862,-4.862,-4.862,-4.862,-4.862,-4.862,-4.862,-4.862,-4.8389,-4.7711,-4.7034,-4.6357,-4.568,-4.4987,-4.461,-4.461,-4.461,-4.461,-4.461,-4.461,-4.461,-4.461,-4.461,-4.461,-4.461,-4.461,-4.4587,-4.4572,-4.4572,-4.4473,-4.4243,-4.4243,-4.4166,-4.3949,-4.3949,-4.3832,-4.9001,-4.9001,-4.9001,-4.9001,-4.9001,-4.9001,-4.9001,-4.9001,-4.9001,-4.9001,-4.9001,-4.9001,-4.9001,-4.9001,-4.9001,-4.9001,-4.9001,-4.9001,-4.9001,-4.9001,-4.9001,-4.9001,-4.9001,-4.9001,-4.9001,-4.9001,-4.9001,-4.9001,-4.9001,-4.9001,-4.9001,-4.9695,-5.0439,-5.1168,-5.1928,-5.2705,-5.3601,-5.3601,-5.3701,-5.3882,-5.3733,-5.3684,-5.3601,-5.3517,-5.3501,-5.3501,-5.3501,-5.3501,-5.3501,-5.3501,-5.3501,-5.3501,-5.3501,-5.3501,-5.3501,-5.3501,-5.3212,-5.2834,-5.2834,-5.2291,-5.157,-5.122,-5.0554,-4.9829,-4.9414,-4.8944,-4.862,-4.862,-4.862,-4.862,-4.862,-4.862,-4.862,-4.862,-4.862,-4.862,-4.862,-4.862,-4.862,-4.862,-4.862,-4.862,-4.862,-4.862,-4.8512,-4.8204,-4.7281,-4.648,-4.6188,-4.5234,-4.461,-4.461,-4.461,-4.461,-4.461,-4.461,-4.461,-4.461,-4.461,-4.461,-4.461,-4.461,-4.461,-4.461,-4.461,-4.4549,-4.4473,-4.4473,-4.4358,-4.4181,-4.4181,-4.4065,-4.9001,-4.9001,-4.9001,-4.9001,-4.9001,-4.9001,-4.9001,-4.9001,-4.9001,-4.9001,-4.9001,-4.9001,-4.9001,-4.9001,-4.9001,-4.9001,-4.9001,-4.9001,-4.9001,-4.9001,-4.9001,-4.9001,-4.9001,-4.9001,-4.9001,-4.9001,-4.9001,-4.9001,-4.9001,-4.9001,-4.9001,-4.9509,-5.0152,-5.0913,-5.164,-5.245,-5.3428,-5.3681,-5.3882,-5.398,-5.3865,-5.3766,-5.3717,-5.3618,-5.3534,-5.3501,-5.3501,-5.3501,-5.3501,-5.3501,-5.3501,-5.3501,-5.3501,-5.3501,-5.3501,-5.3501,-5.3127,-5.2607,-5.2607,-5.2219,-5.168,-5.1459,-5.1011,-5.0438,-4.9939,-4.9414,-4.8893,-4.8646,-4.862,-4.862,-4.862,-4.862,-4.862,-4.862,-4.862,-4.862,-4.862,-4.862,-4.862,-4.862,-4.862,-4.862,-4.862,-4.862,-4.862,-4.862,-4.7465,-4.6603,-4.6603,-4.5418,-4.461,-4.461,-4.461,-4.461,-4.461,-4.461,-4.461,-4.461,-4.461,-4.461,-4.461,-4.461,-4.461,-4.461,-4.461,-4.461,-4.461,-4.461,-4.4534,-4.4396,-4.4396,-4.4281,-4.9001,-4.9001,-4.9001,-4.9001,-4.9001,-4.9001,-4.9001,-4.9001,-4.9001,-4.9001,-4.9001,-4.9001,-4.9001,-4.9001,-4.9001,-4.9001,-4.9001,-4.9001,-4.9001,-4.9001,-4.9001,-4.9001,-4.9001,-4.9001,-4.9001,-4.9001,-4.9001,-4.9001,-4.9001,-4.9001,-4.9001,-4.9035,-4.9407,-5.0118,-5.0879,-5.1705,-5.2631,-5.3654,-5.411,-5.398,-5.411,-5.4013,-5.37,-5.3667,-5.3634,-5.3501,-5.3501,-5.3501,-5.3501,-5.3501,-5.3501,-5.3501,-5.3501,-5.3501,-5.3501,-5.3501,-5.3467,-5.3433,-5.3433,-5.3433,-5.3246,-5.2501,-5.22,-5.1895,-5.0377,-4.9868,-4.967,-4.8852,-4.862,-4.862,-4.862,-4.862,-4.862,-4.862,-4.862,-4.862,-4.862,-4.862,-4.862,-4.862,-4.862,-4.862,-4.862,-4.862,-4.862,-4.862,-4.7465,-4.6603,-4.6603,-4.5418,-4.461,-4.461,-4.461,-4.461,-4.461,-4.461,-4.461,-4.461,-4.461,-4.461,-4.461,-4.461,-4.461,-4.461,-4.461,-4.461,-4.461,-4.461,-4.4572,-4.4572,-4.4572,-4.4473,-4.9001,-4.9001,-4.9001,-4.9001,-4.9001,-4.9001,-4.9001,-4.9001,-4.9001,-4.9001,-4.9001,-4.9001,-4.9001,-4.9001,-4.9001,-4.9001,-4.9001,-4.9001,-4.9001,-4.9001,-4.9001,-4.9001,-4.9001,-4.9001,-4.9001,-4.9001,-4.9001,-4.9001,-4.9001,-4.9001,-4.9001,-4.9001,-4.934,-5.0067,-5.0828,-5.1874,-5.3309,-5.3811,-5.4045,-5.398,-5.3915,-5.3816,-5.3717,-5.3601,-5.3568,-5.3501,-5.3501,-5.3501,-5.3501,-5.3501,-5.3501,-5.3501,-5.3501,-5.3501,-5.3501,-5.3501,-5.3501,-5.3501,-5.3501,-5.3501,-5.3467,-5.3161,-5.2362,-5.1422,-5.0843,-4.9931,-4.9015,-4.8702,-4.862,-4.862,-4.862,-4.862,-4.862,-4.862,-4.862,-4.862,-4.862,-4.862,-4.862,-4.862,-4.862,-4.862,-4.862,-4.862,-4.862,-4.862,-4.7465,-4.6603,-4.6603,-4.5418,-4.461,-4.461,-4.461,-4.461,-4.461,-4.461,-4.461,-4.461,-4.461,-4.461,-4.461,-4.461,-4.461,-4.461,-4.461,-4.461,-4.461,-4.461,-4.461,-4.461,-4.461,-4.4572,-4.9001,-4.9001,-4.9001,-4.9001,-4.9001,-4.9001,-4.9001,-4.9001,-4.9001,-4.9001,-4.9001,-4.9001,-4.9001,-4.9001,-4.9001,-4.9001,-4.9001,-4.9001,-4.9001,-4.9001,-4.9001,-4.9001,-4.9001,-4.9001,-4.9001,-4.9001,-4.9001,-4.9001,-4.9001,0.0,-4.9001,-4.9001,-4.9458,-5.0439,-5.1028,-5.2058,-5.3683,-5.3882,-5.398,-5.398,-5.3849,-5.3783,-5.3717,-5.3601,-5.3551,-5.3501,-5.3501,-5.3501,-5.3501,-5.3501,-5.3501,-5.3501,-5.3501,-5.3501,-5.3501,-5.3501,-5.3501,-5.3501,-5.3501,-5.3501,-5.3501,-5.3501,-5.2782,-5.1862,-5.157,-5.0538,-4.939,-4.9122,-4.8811,-4.862,-4.862,-4.862,-4.862,-4.862,-4.862,-4.862,-4.862,-4.862,-4.862,-4.862,-4.862,-4.862,-4.862,-4.862,-4.862,-4.862,-4.7465,-4.6603,-4.6603,-4.5418,-4.461,-4.461,-4.461,-4.461,-4.461,-4.461,-4.461,-4.461,-4.461,-4.461,-4.461,-4.461,-4.461,-4.461,-4.461,-4.461,-4.461,-4.461,-4.461,-4.461,-4.461,-4.461,0.0,0.0,0.0,-4.9001,-4.9001,-4.9001,-4.9001,0.0,-4.9001,-4.9001,-4.9001,-4.9001,-4.9001,-4.9001,-4.9001,-4.9001,-4.9001,-4.9001,-4.9001,-4.9001,-4.9001,-4.9001,-4.9001,-4.9001,-4.9001,-4.9001,-4.9001,-4.9001,-4.9001,-4.9001,-4.9001,-4.9001,-4.9678,-5.1133,-5.1378,-5.2187,-5.3633,-5.3882,-5.3997,-5.3997,-5.3997,-5.3882,-5.37,-5.37,-5.3634,-5.3501,-5.3501,-5.3501,-5.3501,-5.3501,-5.3501,-5.3501,-5.3501,-5.3501,-5.3501,-5.3501,-5.3501,-5.3501,-5.3501,-5.3501,-5.3501,-5.3501,-5.3467,-5.3314,-5.2537,-5.1733,-5.0881,-5.0143,-4.9284,-4.862,-4.862,-4.862,-4.862,-4.862,-4.862,-4.862,-4.862,-4.862,-4.862,-4.862,-4.862,-4.862,-4.862,-4.862,-4.862,-4.862,-4.7465,-4.6603,-4.6603,-4.5418,-4.461,-4.461,-4.461,-4.461,-4.461,-4.461,-4.461,-4.461,-4.461,-4.461,-4.461,-4.461,-4.461,-4.461,-4.461,-4.461,-4.461,-4.461,-4.461,-4.461,-4.461,-4.461,-4.9001,0.0,0.0,0.0,0.0,0.0,0.0,0.0,-4.9001,-4.9001,-4.9001,-4.9001,-4.9001,-4.9001,-4.9001,-4.9001,-4.9001,-4.9001,-4.9001,-4.9001,-4.9001,-4.9001,-4.9001,-4.9001,-4.9001,-4.9001,-4.9001,0.0,-4.9001,-4.9001,-4.9001,-4.9001,-4.9424,-5.0371,-5.0962,-5.1739,-5.267,-5.333,-5.3618,-5.3618,-5.3618,-5.3618,-5.3551,-5.3551,-5.3534,-5.3501,-5.3501,-5.3501,-5.3501,-5.3501,-5.3501,-5.3501,-5.3501,-5.3501,-5.3501,-5.3501,-5.3501,-5.3501,-5.3501,-5.3501,-5.3501,-5.3501,-5.3093,-5.2607,-5.2378,-5.1311,-5.0182,-4.9947,-4.9284,-4.862,-4.862,-4.862,-4.862,-4.862,-4.862,-4.862,-4.862,-4.862,-4.862,-4.862,-4.862,-4.862,-4.862,-4.862,-4.862,-4.862,-4.7465,-4.6603,-4.6603,-4.5418,-4.461,-4.461,-4.461,-4.461,-4.461,-4.461,-4.461,-4.461,-4.461,-4.461,-4.461,-4.461,-4.461,-4.461,-4.461,-4.461,-4.461,-4.461,-4.461,-4.461,-4.461,-4.461,-4.9001,-4.9001,-4.9001,-4.9001,0.0,0.0,-4.9001,-4.9001,-4.9001,0.0,-4.9001,-4.9001,-4.9001,-4.9001,-4.9001,-4.9001,-4.9001,-4.9001,-4.9001,-4.9001,-4.9001,-4.9001,-4.9001,-4.9001,-4.9001,-4.9001,-4.9001,-4.9001,-4.9001,-4.9001,-4.9001,-4.9001,-4.934,-5.0067,-5.0828,-5.1555,-5.23,-5.3112,-5.3501,-5.3501,-5.3501,-5.3501,-5.3501,-5.3501,-5.3501,-5.3501,-5.3501,-5.3501,-5.3501,-5.3501,-5.3501,-5.3501,-5.3501,-5.3501,-5.3501,-5.3501,-5.3501,-5.3501,-5.3501,-5.3501,-5.3501,-5.3501,-5.3161,-5.2799,-5.2799,-5.1931,-5.0821,-5.0477,-4.955,-4.862,-4.862,-4.862,-4.862,-4.862,-4.862,-4.862,-4.862,-4.862,-4.862,-4.862,-4.862,-4.862,-4.862,-4.862,-4.862,-4.862,-4.7465,-4.6603,-4.6603,-4.5418,-4.461,-4.461,-4.461,-4.461,-4.461,-4.461,-4.461,-4.461,-4.461,-4.461,-4.461,-4.461,-4.461,-4.461,-4.461,-4.461,-4.461,-4.461,-4.461,-4.461,-4.461,-4.461,-4.912,-4.9069,-4.9001,-4.9001,-4.9001,0.0,-4.9001,-4.9001,-4.9001,0.0,-4.9001,-4.9001,-4.9001,-4.9001,-4.9001,-4.9001,-4.9001,-4.9001,-4.9001,-4.9001,-4.9001,-4.9001,-4.9001,-4.9001,-4.9001,-4.9001,-4.9001,-4.9001,-4.9001,-4.9001,-4.9001,-4.9001,-4.9306,-4.9949,-5.0693,-5.1437,-5.2181,-5.2976,-5.3416,-5.3501,-5.3501,-5.3501,-5.3501,-5.3501,-5.3501,-5.3501,-5.3501,-5.3501,-5.3501,-5.3501,-5.3501,-5.3501,-5.3501,-5.3501,-5.3501,-5.3501,-5.3501,-5.3501,-5.3501,-5.3501,-5.3501,-5.3501,-5.3501,-5.3501,-5.3501,-5.2938,-5.2112,-5.122,-4.9797,-4.862,-4.862,-4.862,-4.862,-4.862,-4.862,-4.862,-4.862,-4.862,-4.862,-4.862,-4.862,-4.862,-4.862,-4.862,-4.8589,-4.8512,-4.7419,-4.6573,-4.6496,-4.5372,-4.461,-4.461,-4.461,-4.461,-4.461,-4.461,-4.461,-4.461,-4.461,-4.461,-4.461,-4.461,-4.461,-4.461,-4.461,-4.461,-4.461,-4.461,-4.461,-4.461,-4.461,-4.461,-4.9881,-4.9458,-4.9001,-4.9001,-4.9001,0.0,-4.9001,-4.9001,-4.9001,0.0,-4.9001,-4.9001,-4.9001,-4.9001,-4.9001,-4.9001,-4.9001,-4.9001,-4.9001,-4.9001,-4.9001,-4.9001,-4.9001,-4.9001,-4.9001,-4.9001,-4.9001,-4.9001,-4.9001,-4.9001,-4.9001,-4.9001,-4.9069,-4.9204,-4.9932,-5.0676,-5.142,-5.2164,-5.2858,-5.3501,-5.3501,-5.3501,-5.3501,-5.3501,-5.3501,-5.3501,-5.3501,-5.3501,-5.3501,-5.3501,-5.3501,-5.3501,-5.3501,-5.3501,-5.3501,-5.3501,-5.3501,-5.3501,-5.3501,-5.3501,-5.3501,-5.3501,-5.3501,-5.3501,-5.3501,-5.2938,-5.2004,-5.0467,-4.9374,-4.862,-4.862,-4.862,-4.862,-4.862,-4.862,-4.862,-4.862,-4.862,-4.862,-4.862,-4.862,-4.862,-4.862,-4.862,-4.8435,-4.7881,-4.7111,-4.6403,-4.5849,-4.508,-4.461,-4.461,-4.461,-4.461,-4.461,-4.461,-4.461,-4.461,-4.461,-4.461,-4.461,-4.461,-4.461,-4.461,-4.461,-4.461,-4.461,-4.461,-4.461,-4.461,-4.461,-4.461,-5.0185,-4.9813,0.0,-4.9086,-4.9001,0.0,0.0,-4.9001,-4.9001,-4.9001,-4.9001,-4.9001,-4.9001,-4.9001,-4.9001,-4.9001,-4.9001,-4.9001,-4.9001,-4.9001,-4.9001,-4.9001,-4.9001,-4.9001,-4.9001,-4.9001,-4.9001,-4.9001,-4.9001,-4.9001,-4.9001,-4.9001,-4.9001,-4.9001,-4.9712,-5.027,-5.0659,-5.1758,-5.2503,-5.2909,-5.3315,-5.3501,-5.3501,-5.3501,-5.3501,-5.3501,-5.3501,-5.3501,-5.3501,-5.3501,-5.3501,-5.3501,-5.3501,-5.3501,-5.3501,-5.3501,-5.3501,-5.3501,-5.3501,-5.3501,-5.3501,-5.3501,-5.3501,-5.3501,-5.3501,-5.2938,-5.204,-5.0789,-4.9876,-4.9163,-4.8728,-4.862,-4.862,-4.862,-4.862,-4.862,-4.862,-4.862,-4.862,-4.862,-4.862,-4.862,-4.862,-4.8327,-4.8004,-4.765,-4.6742,-4.5972,-4.5634,-4.4987,-4.461,-4.461,-4.461,-4.461,-4.461,-4.461,-4.461,-4.461,-4.461,-4.461,-4.461,-4.461,-4.461,-4.461,-4.461,-4.461,-4.461,-4.461,-4.461,-4.461,-4.461,-4.461,0.0,0.0,0.0,0.0,0.0,-4.9001,0.0,0.0,0.0,-4.9001,0.0,0.0,0.0,0.0,0.0,0.0,0.0,0.0,0.0,-4.8917,0.0,-4.9001,-4.9001,-4.9001,-4.9001,-4.9001,-4.9001,-4.9001,-4.9001,-4.9001,-4.9001,-4.9001,-4.9001,-4.9001,-4.9576,-4.9949,-5.0084,-5.142,-5.2164,-5.2317,-5.3129,-5.3501,-5.3501,-5.3501,-5.3501,-5.3501,-5.3501,-5.3501,-5.3501,-5.3501,-5.3501,-5.3501,-5.3501,-5.3501,-5.3501,-5.3501,-5.3501,-5.3501,-5.3501,-5.3501,-5.3501,-5.3501,-5.3501,-5.3501,-5.3501,-5.2938,-5.2112,-5.1348,-5.0515,-4.9725,-4.8811,-4.862,-4.862,-4.862,-4.862,-4.862,-4.862,-4.862,-4.862,-4.862,-4.862,-4.862,-4.862,-4.805,-4.7558,-4.7434,-4.6372,-4.5541,-4.5403,-4.491,-4.461,-4.461,-4.461,-4.461,-4.461,-4.461,-4.461,-4.461,-4.461,-4.461,-4.461,-4.461,-4.461,-4.461,-4.461,-4.461,-4.461,-4.461,-4.461,-4.461,-4.461,-4.461,0.0,0.0,0.0,0.0,-4.9475,0.0,0.0,0.0,-4.9001,-4.9001,0.0,0.0,0.0,0.0,0.0,0.0,0.0,0.0,-4.8108,-4.8595,-4.9001,-4.9001,-4.9001,-4.9001,-4.9001,-4.9001,-4.9001,-4.9001,-4.9001,-4.9001,-4.9001,-4.9001,-4.9001,-4.9001,-4.9086,-4.9441,-5.0084,-5.0913,-5.1657,-5.2317,-5.3129,-5.3501,-5.3501,-5.3501,-5.3501,-5.3501,-5.3501,-5.3501,-5.3501,-5.3501,-5.3501,-5.3501,-5.3501,-5.3501,-5.3501,-5.3501,-5.3501,-5.3501,-5.3501,-5.3501,-5.3501,-5.3501,-5.3501,-5.3501,-5.3501,-5.2938,-5.2112,-5.1348,-5.0515,-4.9725,-4.8811,-4.862,-4.862,-4.862,-4.862,-4.862,-4.862,-4.862,-4.862,-4.862,-4.862,-4.862,-4.862,-4.805,-4.7404,-4.6803,-4.6065,-4.5372,-4.481,-4.4671,-4.461,-4.461,-4.461,-4.461,-4.461,-4.461,-4.461,-4.461,-4.461,-4.461,-4.461,-4.461,-4.461,-4.461,-4.461,-4.461,-4.461,-4.461,-4.461,-4.461,-4.461,-4.461,0.0,0.0,0.0,0.0,0.0,0.0,-4.9644,0.0,-4.9001,0.0,0.0,0.0,0.0,0.0,0.0,0.0,-4.8455,0.0,0.0,0.0,-4.8048,0.0,0.0,0.0,-4.9001,-4.9001,-4.9001,-4.9001,-4.9001,-4.9001,-4.9001,-4.9001,-4.9001,-4.9001,-4.9001,-4.9154,-4.9458,-5.0185,-5.093,-5.1674,-5.2452,-5.3061,-5.3501,-5.3501,-5.3501,-5.3501,-5.3501,-5.3501,-5.3501,-5.3501,-5.3501,-5.3501,-5.3501,-5.3501,-5.3501,-5.3501,-5.3501,-5.3501,-5.3501,-5.3501,-5.3501,-5.3501,-5.3501,-5.3501,-5.3501,-5.328,-5.2834,-5.2023,-5.1236,-5.0384,-4.955,-4.8975,-4.862,-4.862,-4.862,-4.862,-4.862,-4.862,-4.862,-4.862,-4.862,-4.862,-4.862,-4.805,-4.7373,-4.6696,-4.6018,-4.5341,-4.4702,-4.461,-4.461,-4.461,-4.461,-4.461,-4.461,-4.461,-4.461,-4.461,-4.461,-4.461,-4.461,-4.461,-4.461,-4.461,-4.461,-4.461,-4.461,-4.461,-4.461,-4.461,-4.461,-4.461,-5.279,0.0,0.0,0.0,0.0,0.0,0.0,0.0,0.0,0.0,0.0,0.0,0.0,0.0,0.0,0.0,0.0,-4.8062,0.0,-4.7324,0.0,0.0,0.0,0.0,0.0,-4.8892,-4.9001,-4.9001,-4.9001,-4.9001,-4.9001,-4.9001,-4.9001,-4.9001,-4.9001,-4.9001,-4.9001,-4.9729,-5.0473,-5.1217,-5.1961,-5.2723,-5.3501,-5.3501,-5.3501,-5.3501,-5.3501,-5.3501,-5.3501,-5.3501,-5.3501,-5.3501,-5.3501,-5.3501,-5.3501,-5.3501,-5.3501,-5.3501,-5.3501,-5.3501,-5.3501,-5.3501,-5.3501,-5.3501,-5.3501,-5.3501,-5.3314,-5.2537,-5.1733,-5.0919,-5.0104,-4.9244,-4.862,-4.862,-4.862,-4.862,-4.862,-4.862,-4.862,-4.862,-4.862,-4.862,-4.862,-4.805,-4.7434,-4.6942,-4.6142,-4.5403,-4.4964,-4.4733,-4.461,-4.461,-4.461,-4.461,-4.461,-4.461,-4.461,-4.461,-4.461,-4.461,-4.461,-4.461,-4.461,-4.461,-4.461,-4.461,-4.461,-4.461,-4.461,-4.461,-4.461,-4.461,0.0,0.0,0.0,-5.2266,0.0,0.0,0.0,0.0,-5.005,0.0,0.0,0.0,0.0,0.0,0.0,0.0,0.0,0.0,0.0,0.0,0.0,0.0,0.0,0.0,0.0,-4.8576,-4.9001,-4.9001,-4.9001,-4.9001,-4.9001,-4.9001,-4.9001,-4.9001,-4.9001,-4.9001,-4.9001,-4.9729,-5.0473,-5.1217,-5.1961,-5.2723,-5.3501,-5.3501,-5.3501,-5.3501,-5.3501,-5.3501,-5.3501,-5.3501,-5.3501,-5.3501,-5.3501,-5.3501,-5.3501,-5.3501,-5.3501,-5.3501,-5.3501,-5.3501,-5.3501,-5.3501,-5.3501,-5.3501,-5.3501,-5.3501,-5.3314,-5.2537,-5.1733,-5.0919,-5.0104,-4.9244,-4.862,-4.862,-4.862,-4.862,-4.862,-4.862,-4.862,-4.862,-4.862,-4.862,-4.862,-4.805,-4.7588,-4.7573,-4.6434,-4.5572,-4.5557,-4.4987,-4.461,-4.461,-4.461,-4.461,-4.461,-4.461,-4.461,-4.461,-4.461,-4.461,-4.461,-4.461,-4.461,-4.461,-4.461,-4.461,-4.461,-4.461,-4.461,-4.461,-4.461,-4.461,0.0,0.0,-5.3095,-5.3095,0.0,0.0,0.0,0.0,0.0,0.0,0.0,0.0,0.0,0.0,0.0,0.0,0.0,0.0,0.0,0.0,0.0,0.0,0.0,0.0,0.0,0.0,0.0,-4.9001,-4.9001,-4.9001,-4.9001,-4.9001,-4.9001,-4.9001,-4.9001,-4.9001,-4.9001,-4.9255,-4.9746,-5.0473,-5.1234,-5.1978,-5.2723,-5.3264,-5.3501,-5.3501,-5.3501,-5.3501,-5.3501,-5.3501,-5.3501,-5.3501,-5.3501,-5.3501,-5.3501,-5.3501,-5.3501,-5.3501,-5.3501,-5.3501,-5.3501,-5.3501,-5.3501,-5.3501,-5.3501,-5.3127,-5.2642,-5.2395,-5.1364,-5.0245,-4.9986,-4.9244,-4.862,-4.862,-4.862,-4.862,-4.862,-4.862,-4.862,-4.862,-4.862,-4.862,-4.862,-4.8419,-4.8127,-4.7665,-4.7219,-4.6603,-4.5695,-4.5387,-4.5064,-4.4671,-4.461,-4.461,-4.461,-4.461,-4.461,-4.461,-4.461,-4.461,-4.461,-4.461,-4.461,-4.461,-4.461,-4.461,-4.461,-4.461,-4.461,-4.461,-4.461,-4.461,-5.3501,-5.3501,0.0,-5.3501,-5.3112,0.0,-5.2739,0.0,-5.1471,0.0,0.0,0.0,0.0,0.0,0.0,0.0,0.0,0.0,0.0,-4.6147,0.0,0.0,0.0,0.0,0.0,-4.8418,-4.9001,-4.9001,-4.9001,-4.9001,0.0,0.0,-4.9001,-4.9001,-4.9001,-4.9001,-4.9001,-4.9001,-4.9373,-5.0101,-5.0591,-5.1336,-5.2317,-5.2841,-5.323,-5.3501,-5.3501,-5.3501,-5.3501,-5.3501,-5.3501,-5.3501,-5.3501,-5.3501,-5.3501,-5.3501,-5.3501,-5.3501,-5.3501,-5.3501,-5.3501,-5.3501,-5.3501,-5.3433,-5.3161,-5.2712,-5.2236,-5.1951,-5.0935,-4.9908,-4.9908,-4.9244,-4.862,-4.862,-4.862,-4.862,-4.862,-4.862,-4.862,-4.862,-4.862,-4.862,-4.862,-4.862,-4.8466,-4.8035,-4.7758,-4.7296,-4.6419,-4.588,-4.5418,-4.4987,-4.4764,-4.461,-4.461,-4.461,-4.461,-4.461,-4.461,-4.461,-4.461,-4.461,-4.4733,-4.4926,-4.4695,-4.4733,-4.4979,-4.4733,-4.461,-4.461,-4.461,-4.461]},{"header":{"parameterUnit":"m.s-1","parameterCategory":1,"la1":30.6,"la2":29.2853,"lo1":-89.7004,"lo2":-87.6739,"dy":0.0162,"dx":0.0183,"nx":112,"ny":82,"refTime":"2023-03-28T18:00:00:Z","depth":0,"parameterNumber":3,"parameterNumberName":"V-component_of_WINDS"},"data":[0.0,0.0,0.0,0.0,0.0,0.0,0.0,0.0,0.0,0.0,0.0,0.0,0.0,0.0,0.0,0.0,0.0,0.0,0.0,0.0,0.0,0.0,0.0,0.0,0.0,0.0,0.0,0.0,0.0,0.0,0.0,0.0,0.0,0.0,0.0,0.0,0.0,0.0,0.0,0.0,0.0,0.0,0.0,0.0,0.0,0.0,0.0,0.0,0.0,0.0,0.0,0.0,0.0,0.0,0.0,0.0,0.0,0.0,0.0,0.0,0.0,0.0,0.0,0.0,0.0,0.0,0.0,0.0,0.0,0.0,0.0,0.0,0.0,0.0,0.0,0.0,0.0,0.0,0.0,0.0,0.0,0.0,0.0,0.0,0.0,0.0,0.0,0.0,0.0,0.0,2.2553,2.1883,2.2515,2.3239,2.3866,2.4755,2.5594,2.628,0.0,0.0,0.0,0.0,0.0,0.0,0.0,0.0,0.0,0.0,0.0,0.0,0.0,0.0,0.0,0.0,0.0,0.0,0.0,0.0,0.0,0.0,0.0,0.0,0.0,0.0,0.0,0.0,0.0,0.0,0.0,0.0,0.0,0.0,0.0,0.0,0.0,0.0,0.0,0.0,0.0,0.0,0.0,0.0,0.0,0.0,0.0,0.0,0.0,0.0,0.0,0.0,0.0,0.0,0.0,0.0,0.0,0.0,0.0,0.0,0.0,0.0,0.0,0.0,0.0,0.0,0.0,0.0,0.0,0.0,0.0,0.0,0.0,0.0,0.0,0.0,0.0,0.0,0.0,0.0,0.0,0.0,0.0,0.0,0.0,0.0,0.0,0.0,0.0,0.0,0.0,0.0,0.0,0.0,0.0,0.0,0.0,0.0,0.0,0.0,0.0,0.0,0.0,0.0,2.1959,2.1807,2.2515,2.3038,2.3176,2.4479,2.5347,2.5488,0.0,0.0,0.0,0.0,0.0,0.0,0.0,0.0,0.0,0.0,0.0,0.0,0.0,0.0,0.0,0.0,0.0,0.0,0.0,0.0,0.0,0.0,0.0,0.0,0.0,0.0,0.0,0.0,0.0,0.0,0.0,0.0,0.0,0.0,0.0,0.0,0.0,0.0,0.0,0.0,0.0,0.0,0.0,0.0,0.0,0.0,0.0,0.0,0.0,0.0,0.0,0.0,0.0,0.0,0.0,0.0,0.0,0.0,0.0,0.0,0.0,0.0,0.0,0.0,0.0,0.0,0.0,0.0,0.0,0.0,0.0,0.0,0.0,0.0,0.0,0.0,0.0,0.0,0.0,0.0,0.0,0.0,0.0,0.0,0.0,0.0,0.0,0.0,0.0,0.0,0.0,0.0,0.0,0.0,0.0,0.0,0.0,0.0,0.0,0.0,0.0,0.0,0.0,2.1807,2.1807,2.1807,2.2515,2.3176,2.3559,2.4647,2.5312,2.5312,2.5312,0.0,0.0,0.0,0.0,0.0,0.0,0.0,0.0,0.0,0.0,0.0,0.0,0.0,0.0,0.0,0.0,0.0,0.0,0.0,0.0,0.0,0.0,0.0,0.0,0.0,0.0,0.0,0.0,0.0,0.0,0.0,0.0,0.0,0.0,0.0,0.0,0.0,0.0,0.0,0.0,0.0,0.0,0.0,0.0,0.0,0.0,0.0,0.0,0.0,0.0,0.0,0.0,0.0,0.0,0.0,0.0,0.0,0.0,0.0,0.0,0.0,0.0,0.0,0.0,0.0,0.0,0.0,0.0,0.0,0.0,0.0,0.0,0.0,0.0,0.0,0.0,0.0,0.0,0.0,0.0,0.0,0.0,0.0,0.0,0.0,0.0,0.0,0.0,0.0,0.0,0.0,0.0,0.0,0.0,0.0,0.0,0.0,0.0,0.0,0.0,0.0,0.0,2.188,2.1807,2.1807,2.2365,2.2953,2.35,2.4456,2.5016,2.5016,2.5382,0.0,0.0,0.0,0.0,0.0,0.0,0.0,0.0,0.0,0.0,0.0,0.0,0.0,0.0,0.0,0.0,0.0,0.0,0.0,0.0,0.0,0.0,0.0,0.0,0.0,0.0,0.0,0.0,0.0,0.0,0.0,0.0,0.0,0.0,0.0,0.0,0.0,0.0,0.0,0.0,0.0,0.0,0.0,0.0,0.0,0.0,0.0,0.0,0.0,0.0,0.0,0.0,0.0,0.0,0.0,0.0,0.0,0.0,0.0,0.0,0.0,0.0,0.0,0.0,0.0,0.0,0.0,0.0,0.0,0.0,0.0,0.0,0.0,0.0,0.0,0.0,0.0,0.0,0.0,0.0,0.0,0.0,0.0,0.0,0.0,0.0,0.0,0.0,0.0,0.0,0.0,0.0,0.0,0.0,0.0,0.0,0.0,0.0,0.0,0.0,0.0,0.0,2.2066,2.1807,2.1807,2.1845,2.1921,2.1949,2.3327,2.4181,2.4181,2.5581,0.0,0.0,0.0,0.0,0.0,0.0,0.0,0.0,0.0,0.0,0.0,0.0,0.0,0.0,0.0,0.0,0.0,0.0,0.0,0.0,0.0,0.0,0.0,0.0,0.0,0.0,0.0,0.0,0.0,0.0,0.0,0.0,0.0,0.0,0.0,0.0,0.0,0.0,0.0,0.0,0.0,0.0,0.0,0.0,0.0,0.0,0.0,0.0,0.0,0.0,0.0,0.0,0.0,0.0,0.0,0.0,0.0,0.0,0.0,0.0,0.0,0.0,0.0,0.0,0.0,0.0,0.0,0.0,0.0,0.0,0.0,0.0,0.0,0.0,0.0,0.0,0.0,0.0,0.0,0.0,0.0,0.0,0.0,0.0,0.0,0.0,0.0,0.0,0.0,0.0,0.0,0.0,0.0,0.0,0.0,0.0,0.0,0.0,0.0,0.0,0.0,0.0,2.277,2.2666,2.2666,2.3068,2.3242,2.2992,2.4391,2.4732,2.3471,0.0,0.0,0.0,0.0,0.0,0.0,0.0,0.0,0.0,0.0,0.0,0.0,0.0,0.0,0.0,0.0,0.0,0.0,0.0,0.0,0.0,0.0,0.0,0.0,0.0,0.0,0.0,0.0,0.0,0.0,0.0,0.0,0.0,0.0,0.0,0.0,0.0,0.0,0.0,0.0,0.0,0.0,0.0,0.0,0.0,0.0,0.0,0.0,0.0,0.0,0.0,0.0,0.0,0.0,0.0,0.0,0.0,0.0,0.0,0.0,0.0,0.0,0.0,0.0,0.0,0.0,0.0,0.0,0.0,0.0,0.0,0.0,0.0,0.0,0.0,0.0,0.0,0.0,0.0,0.0,0.0,0.0,0.0,0.0,0.0,0.0,0.0,0.0,0.0,0.0,0.0,0.0,0.0,0.0,0.0,0.0,0.0,0.0,0.0,0.0,0.0,0.0,2.3258,2.3236,2.3184,2.3184,2.3636,2.3845,2.3563,2.4713,2.4923,2.3653,0.0,0.0,0.0,0.0,0.0,0.0,0.0,0.0,0.0,0.0,0.0,0.0,0.0,0.0,0.0,0.0,0.0,0.0,0.0,0.0,0.0,0.0,0.0,0.0,0.0,0.0,0.0,0.0,0.0,0.0,0.0,0.0,0.0,0.0,0.0,0.0,0.0,0.0,0.0,0.0,0.0,0.0,0.0,0.0,0.0,0.0,0.0,0.0,0.0,0.0,0.0,0.0,0.0,0.0,0.0,0.0,0.0,0.0,0.0,0.0,0.0,0.0,0.0,0.0,0.0,0.0,0.0,0.0,0.0,0.0,0.0,0.0,0.0,0.0,0.0,0.0,0.0,0.0,0.0,0.0,0.0,0.0,0.0,0.0,0.0,0.0,0.0,0.0,0.0,0.0,0.0,0.0,0.0,0.0,0.0,0.0,0.0,0.0,0.0,0.0,0.0,0.0,2.343,2.331,2.3205,2.3194,2.3205,2.3194,2.3194,2.3865,2.4454,0.0,0.0,0.0,0.0,0.0,0.0,0.0,0.0,0.0,0.0,0.0,0.0,0.0,0.0,0.0,0.0,0.0,0.0,0.0,0.0,0.0,0.0,0.0,0.0,0.0,0.0,0.0,0.0,0.0,0.0,0.0,0.0,0.0,0.0,0.0,0.0,0.0,0.0,0.0,0.0,0.0,0.0,0.0,0.0,0.0,0.0,0.0,0.0,0.0,0.0,0.0,0.0,0.0,0.0,0.0,0.0,0.0,0.0,0.0,0.0,0.0,0.0,0.0,0.0,0.0,0.0,0.0,0.0,0.0,0.0,0.0,0.0,0.0,0.0,0.0,0.0,0.0,0.0,0.0,0.0,0.0,0.0,0.0,0.0,0.0,0.0,0.0,0.0,0.0,0.0,0.0,0.0,0.0,0.0,0.0,0.0,0.0,0.0,0.0,0.0,0.0,0.0,0.0,2.3982,2.3932,2.3978,2.4094,2.3978,2.3854,2.3701,2.4356,2.4723,2.4604,0.0,0.0,0.0,0.0,0.0,0.0,0.0,0.0,0.0,0.0,0.0,0.0,0.0,0.0,0.0,0.0,0.0,0.0,0.0,0.0,0.0,0.0,0.0,0.0,0.0,0.0,0.0,0.0,0.0,0.0,0.0,0.0,0.0,0.0,0.0,0.0,0.0,0.0,0.0,0.0,0.0,0.0,0.0,0.0,0.0,0.0,0.0,0.0,0.0,0.0,0.0,0.0,0.0,0.0,0.0,0.0,0.0,0.0,0.0,0.0,0.0,0.0,0.0,0.0,0.0,0.0,0.0,0.0,0.0,0.0,0.0,0.0,0.0,0.0,0.0,0.0,0.0,0.0,0.0,0.0,0.0,0.0,0.0,0.0,0.0,0.0,0.0,0.0,0.0,0.0,0.0,0.0,0.0,0.0,0.0,0.0,0.0,0.0,0.0,0.0,0.0,0.0,2.4024,2.4196,2.4378,2.4497,2.4368,2.4265,2.4167,2.4535,2.4921,2.5193,0.0,0.0,0.0,0.0,0.0,0.0,0.0,0.0,0.0,0.0,0.0,0.0,0.0,0.0,0.0,0.0,0.0,0.0,0.0,0.0,0.0,0.0,0.0,0.0,0.0,0.0,0.0,0.0,0.0,0.0,0.0,0.0,0.0,0.0,0.0,0.0,0.0,0.0,0.0,0.0,0.0,0.0,0.0,0.0,0.0,0.0,0.0,0.0,0.0,0.0,0.0,0.0,0.0,0.0,0.0,0.0,0.0,0.0,0.0,0.0,0.0,0.0,0.0,0.0,0.0,0.0,0.0,0.0,0.0,0.0,0.0,0.0,0.0,0.0,0.0,0.0,0.0,0.0,0.0,0.0,0.0,0.0,0.0,0.0,0.0,0.0,0.0,0.0,0.0,0.0,0.0,0.0,0.0,0.0,0.0,0.0,0.0,0.0,0.0,0.0,0.0,0.0,2.3754,2.4153,2.4411,2.4411,2.4411,2.4411,2.4454,2.4454,2.4967,2.6177,0.0,0.0,0.0,0.0,0.0,0.0,0.0,0.0,0.0,0.0,0.0,0.0,0.0,0.0,0.0,0.0,0.0,0.0,0.0,0.0,0.0,0.0,0.0,0.0,0.0,0.0,0.0,0.0,0.0,0.0,0.0,0.0,0.0,0.0,0.0,0.0,0.0,0.0,0.0,0.0,0.0,0.0,0.0,0.0,0.0,0.0,0.0,0.0,0.0,0.0,0.0,0.0,0.0,0.0,0.0,0.0,0.0,0.0,0.0,0.0,2.5526,0.0,0.0,0.0,0.0,0.0,0.0,0.0,0.0,0.0,0.0,0.0,0.0,0.0,0.0,0.0,0.0,0.0,0.0,0.0,0.0,0.0,0.0,0.0,0.0,0.0,0.0,0.0,0.0,0.0,0.0,0.0,0.0,0.0,0.0,0.0,0.0,0.0,0.0,0.0,0.0,0.0,2.3547,2.3634,2.3754,2.3927,2.3807,2.3851,2.4249,2.4249,2.4734,2.5843,2.576,0.0,0.0,0.0,0.0,0.0,0.0,0.0,0.0,0.0,0.0,0.0,0.0,0.0,0.0,0.0,0.0,0.0,0.0,0.0,0.0,0.0,0.0,0.0,0.0,0.0,0.0,0.0,0.0,0.0,0.0,0.0,0.0,0.0,0.0,0.0,0.0,0.0,0.0,0.0,0.0,0.0,0.0,0.0,0.0,0.0,0.0,0.0,0.0,0.0,0.0,0.0,0.0,0.0,0.0,0.0,0.0,0.0,0.0,0.0,0.0,2.5437,0.0,0.0,0.0,0.0,0.0,0.0,0.0,0.0,0.0,0.0,0.0,0.0,0.0,0.0,0.0,0.0,0.0,0.0,0.0,0.0,0.0,0.0,0.0,0.0,0.0,0.0,0.0,0.0,0.0,0.0,0.0,0.0,0.0,0.0,0.0,0.0,0.0,0.0,0.0,0.0,2.4128,2.4207,2.4216,2.4139,2.4119,2.4169,2.4184,2.4292,2.4775,2.5746,2.5777,0.0,0.0,0.0,0.0,0.0,0.0,0.0,0.0,0.0,0.0,0.0,0.0,0.0,0.0,0.0,0.0,0.0,0.0,0.0,0.0,0.0,0.0,0.0,0.0,0.0,0.0,0.0,0.0,0.0,0.0,0.0,0.0,0.0,0.0,0.0,0.0,0.0,0.0,0.0,0.0,0.0,0.0,0.0,0.0,0.0,0.0,0.0,0.0,0.0,0.0,0.0,0.0,0.0,2.5189,2.5185,2.5195,2.5566,2.6235,2.7101,2.5354,2.536,2.657,2.6615,0.0,0.0,0.0,0.0,0.0,0.0,0.0,0.0,0.0,0.0,0.0,0.0,0.0,0.0,0.0,0.0,0.0,0.0,0.0,0.0,0.0,0.0,0.0,0.0,2.4648,2.4648,0.0,0.0,0.0,0.0,0.0,0.0,0.0,0.0,0.0,0.0,0.0,0.0,2.4746,2.4884,2.4836,2.4531,2.4615,2.4652,2.4374,2.4446,2.4901,2.5866,2.5999,2.6771,0.0,0.0,0.0,0.0,0.0,0.0,0.0,0.0,0.0,0.0,0.0,0.0,0.0,0.0,0.0,0.0,0.0,0.0,0.0,0.0,0.0,0.0,0.0,0.0,0.0,0.0,0.0,0.0,0.0,0.0,0.0,0.0,2.8764,2.8538,0.0,0.0,0.0,0.0,0.0,0.0,0.0,0.0,0.0,0.0,0.0,0.0,0.0,2.78,2.9033,2.7238,2.6898,2.8114,2.6451,2.5596,2.5606,2.5664,2.6235,2.7132,2.602,0.0,2.9602,2.9647,0.0,0.0,0.0,0.0,0.0,0.0,0.0,0.0,0.0,0.0,0.0,0.0,0.0,0.0,0.0,0.0,0.0,0.0,0.0,0.0,0.0,0.0,2.6598,2.574,2.5518,2.5518,0.0,2.4904,2.4414,2.4414,2.4414,0.0,0.0,0.0,0.0,0.0,0.0,0.0,2.446,2.447,2.4487,2.4428,2.4428,2.4637,2.5007,2.4735,2.5065,2.6324,2.6729,2.7395,2.8462,2.9135,0.0,0.0,0.0,0.0,0.0,0.0,0.0,0.0,0.0,0.0,0.0,0.0,0.0,0.0,0.0,0.0,0.0,0.0,0.0,0.0,0.0,0.0,0.0,0.0,0.0,0.0,0.0,0.0,0.0,2.8697,2.8618,2.851,2.851,2.8418,0.0,0.0,0.0,0.0,0.0,0.0,0.0,0.0,0.0,2.7922,2.8051,2.8429,2.9048,2.7098,2.6418,2.6982,2.611,2.5693,2.5693,2.5693,2.6562,2.8038,2.791,2.9211,3.1394,2.9965,2.8773,2.7934,0.0,0.0,0.0,0.0,2.8912,2.905,3.0034,3.0407,0.0,3.0407,0.0,0.0,0.0,0.0,0.0,0.0,0.0,0.0,0.0,0.0,2.6235,2.5781,2.5693,2.5693,2.5693,2.5382,2.5109,0.0,2.5109,2.5109,2.5109,0.0,0.0,0.0,0.0,2.5109,2.5109,2.5109,2.5059,2.4814,2.4869,2.4967,2.496,2.5043,2.5327,2.5887,2.6464,2.716,2.8081,2.871,2.93,0.0,0.0,0.0,0.0,0.0,0.0,0.0,0.0,0.0,0.0,0.0,0.0,0.0,0.0,0.0,0.0,0.0,0.0,0.0,0.0,0.0,0.0,0.0,0.0,0.0,0.0,0.0,0.0,2.851,2.8558,2.8703,2.8715,2.8624,0.0,0.0,0.0,0.0,0.0,0.0,2.8458,2.9387,2.9741,2.9239,2.9137,2.9189,2.9475,2.772,2.6767,2.6599,2.6366,2.6192,2.6015,2.6015,2.7002,2.8649,2.8786,3.0002,3.175,3.0443,2.9286,2.8533,2.9996,2.9531,2.819,2.9814,3.0411,3.0536,3.1386,3.1705,3.1705,3.1705,3.1705,3.1661,3.1383,0.0,0.0,0.0,0.0,2.6802,2.6524,2.6476,2.6332,2.583,2.5693,2.5693,2.5693,2.5693,2.5693,0.0,2.5693,2.5693,2.5693,0.0,0.0,0.0,0.0,2.5693,2.5693,2.5693,2.5605,2.5273,2.5377,2.5391,2.5159,2.541,2.5696,2.6016,2.645,2.7112,2.8076,2.8454,2.9016,2.9792,0.0,0.0,0.0,0.0,0.0,0.0,0.0,0.0,0.0,0.0,0.0,0.0,0.0,0.0,0.0,0.0,0.0,0.0,0.0,0.0,0.0,0.0,0.0,0.0,0.0,0.0,0.0,0.0,0.0,2.9196,2.9256,0.0,0.0,0.0,0.0,3.0044,2.8752,2.7972,2.7927,2.76,2.7808,2.8694,2.9647,3.0588,3.1528,3.0498,2.9676,2.9105,2.8212,2.748,2.6953,2.6953,2.7481,2.8464,2.7511,2.8256,3.0257,3.2242,3.2477,3.1592,3.1687,3.1044,3.0218,3.0772,3.0974,3.1044,3.1517,3.1705,3.1705,3.1705,3.1705,3.1516,3.0588,3.0215,0.0,0.0,3.0022,2.9749,2.8819,2.8541,2.8085,2.6149,2.5693,2.5693,2.5693,2.5693,2.5693,0.0,2.5693,2.5693,2.5693,0.0,2.5693,2.5693,2.5693,2.5693,2.5693,2.5693,2.5674,2.5654,2.5703,2.5781,2.6031,2.5892,2.6238,2.7313,2.7233,2.7715,2.8998,2.9073,2.9302,2.9804,2.9792,0.0,0.0,0.0,0.0,0.0,0.0,0.0,0.0,0.0,0.0,0.0,0.0,0.0,0.0,0.0,0.0,0.0,0.0,0.0,0.0,0.0,0.0,0.0,0.0,0.0,0.0,0.0,0.0,2.928,2.9029,0.0,2.9592,2.9061,2.9098,3.0106,2.9657,2.9387,2.9387,2.9237,2.9004,2.8727,2.9371,2.9595,2.9266,2.918,2.8701,2.7802,2.7472,2.721,2.7012,2.7012,2.7551,2.8507,2.8503,2.9264,3.0586,3.1748,3.16,3.0823,3.2206,3.2158,3.1351,3.2195,3.2475,3.2497,3.2687,3.2707,3.2707,3.2707,3.2707,3.2661,3.2317,3.1739,3.1215,3.1215,3.0782,3.0013,2.8946,2.8655,2.8275,2.6893,2.6562,2.6562,2.6562,2.6348,2.6162,2.6162,2.5928,2.5693,2.5693,2.5693,2.5693,2.5693,2.5693,2.5693,2.5693,2.5693,2.5693,2.5693,2.5868,2.6004,2.61,2.6355,2.6693,2.7097,2.7433,2.7843,2.8317,2.9202,2.9591,2.9342,2.9978,3.0143,0.0,0.0,0.0,0.0,0.0,0.0,0.0,0.0,0.0,0.0,0.0,0.0,0.0,0.0,0.0,0.0,0.0,0.0,0.0,0.0,0.0,0.0,0.0,0.0,0.0,2.8933,2.9273,2.9767,2.925,2.907,2.9619,2.9071,2.898,2.9624,3.0034,3.0022,2.9704,2.9494,2.9455,2.9491,2.9602,2.9722,2.9733,3.004,2.973,2.8804,2.8804,2.8746,2.8543,2.8543,2.8941,2.9558,2.9914,3.0448,3.1127,3.1849,3.1756,3.1265,3.2321,3.2321,3.1802,3.2281,3.2462,3.2439,3.2264,3.27,3.3238,3.2841,3.2747,3.2747,3.2747,3.2016,3.1171,3.1171,3.0689,2.9949,2.8875,2.8576,2.8276,2.7257,2.7012,2.7012,2.7012,2.6797,2.6602,2.6602,2.6133,2.5693,2.5693,2.5693,2.5693,2.5693,2.5693,2.5693,2.5693,2.5693,2.5693,2.5693,2.5868,2.5965,2.5965,2.6774,2.7109,2.6794,2.7968,2.8565,2.8398,2.9581,3.0145,2.9878,3.035,3.0344,2.9792,0.0,0.0,0.0,0.0,0.0,0.0,0.0,0.0,0.0,0.0,0.0,0.0,0.0,0.0,0.0,0.0,0.0,0.0,0.0,0.0,0.0,0.0,0.0,2.9359,2.8942,2.9187,3.0635,2.9975,2.9586,3.0169,3.0125,2.9704,2.8808,2.9624,2.9726,2.8795,2.8243,2.8892,3.0892,3.0456,3.1134,3.3168,3.3286,3.2996,3.2319,3.238,3.2077,3.1575,3.1575,3.1575,3.1575,3.1575,3.1575,3.1677,3.2739,3.3151,3.3051,3.2083,3.1677,3.1622,3.1112,3.0937,3.0871,3.0302,3.1563,3.3134,3.2051,3.1695,3.1695,3.1695,3.0975,3.0139,3.0139,3.0139,2.9905,2.8917,2.8628,2.8378,2.7347,2.7102,2.7102,2.7051,2.7041,2.7031,2.7031,2.6357,2.5732,2.5732,2.5713,2.5703,2.5703,2.5693,0.0,2.5693,2.5693,2.5693,2.5693,2.5684,2.5684,2.5684,2.701,2.7474,2.6592,2.8795,2.9895,2.9291,3.028,3.0998,3.1424,3.0909,3.0369,2.9817,0.0,0.0,0.0,0.0,0.0,0.0,0.0,0.0,0.0,0.0,0.0,0.0,0.0,0.0,0.0,0.0,0.0,0.0,0.0,0.0,0.0,2.91,2.8584,2.8753,2.9652,2.9898,2.8857,2.8823,2.9227,3.0102,2.8226,2.772,2.9658,2.903,2.8715,2.9121,2.9348,2.9753,3.0334,3.1356,3.1419,3.042,3.226,3.235,3.0602,3.1429,3.1759,3.1575,3.1575,3.1575,3.1575,3.1575,3.1575,3.1626,3.1931,3.2033,3.2185,3.3449,3.3906,3.3895,3.3754,3.3707,3.3684,3.3543,3.3896,3.4354,3.3993,3.3945,3.3945,3.3945,3.3691,3.3484,3.3484,3.3484,3.324,3.2183,3.1934,3.1422,2.9559,2.9094,2.8896,2.8088,2.7705,2.749,2.749,2.7041,2.6619,2.6619,2.6406,2.6211,2.6211,2.5937,0.0,2.5693,2.5693,2.5693,2.5693,2.5868,2.6004,2.6004,2.6524,2.686,2.6794,2.806,2.8822,2.8873,3.0456,3.1546,3.1947,3.1449,3.0922,0.0,0.0,0.0,0.0,0.0,0.0,0.0,0.0,0.0,0.0,0.0,0.0,0.0,0.0,0.0,0.0,0.0,0.0,0.0,0.0,0.0,0.0,2.918,2.8349,2.8612,2.9048,2.9229,2.8902,2.8367,2.8308,2.8912,2.7529,2.7183,2.8537,2.87,2.9014,2.9622,2.9676,3.0093,3.1027,3.1357,3.1311,3.0958,3.199,3.2134,3.1308,3.1524,3.1575,3.1575,3.1575,3.183,3.2235,3.1779,3.183,3.2286,3.2286,3.2286,0.0,0.0,0.0,0.0,0.0,3.3758,3.4066,3.361,3.3758,3.4115,3.4115,3.3499,3.2828,3.33,3.2789,3.2072,3.2072,3.2072,3.192,3.1308,3.1154,3.0794,2.9523,2.9207,2.9059,2.8451,2.8096,2.793,2.793,2.7725,0.0,2.7549,2.7051,2.665,2.665,2.6435,2.6161,2.6035,2.6006,2.5937,2.5703,2.583,2.5917,2.5917,2.6572,0.0,0.0,0.0,2.9829,3.0486,3.1625,0.0,0.0,0.0,3.1474,3.0947,0.0,0.0,0.0,2.9741,2.9616,0.0,0.0,0.0,0.0,0.0,0.0,0.0,0.0,0.0,0.0,0.0,0.0,0.0,0.0,0.0,0.0,2.9647,2.868,2.868,2.784,2.784,2.9475,2.8215,2.721,2.7262,2.7569,2.7416,2.6695,2.8549,2.979,2.9828,0.0,0.0,0.0,0.0,3.0949,3.2789,3.2033,3.2033,3.2839,3.2134,3.1728,3.1575,3.1728,3.2235,3.2951,3.2033,3.2134,3.3001,3.3001,3.3001,3.2951,3.2235,3.183,3.1626,3.1728,3.2286,3.2901,3.2083,0.0,0.0,3.335,3.2072,3.0639,3.1677,3.0598,2.9006,2.9006,2.8963,2.8857,2.8857,2.8751,2.8654,2.8495,2.8495,2.8451,2.8344,2.8291,2.8291,2.8291,2.8291,2.8291,2.8291,2.7627,2.709,2.709,2.7041,2.6875,2.6504,2.6416,2.624,2.5801,0.0,0.0,2.5693,2.6754,2.7136,2.6496,2.9223,3.1456,3.284,3.2896,3.2744,3.2328,3.2303,3.2039,3.1486,3.1486,3.121,3.0696,3.0143,2.9854,0.0,0.0,0.0,0.0,0.0,0.0,0.0,0.0,0.0,0.0,0.0,0.0,0.0,0.0,0.0,3.0257,2.9408,2.868,2.868,2.784,2.7057,2.661,2.6914,2.7345,2.7738,2.71,2.7053,2.8043,2.8137,2.8141,2.8141,2.9146,2.9943,3.0357,3.0957,3.1062,3.0535,3.1268,3.1268,3.0535,0.0,0.0,3.1626,3.2488,3.2538,3.188,3.1677,3.1728,3.1931,3.1931,3.1931,3.2083,3.361,3.3101,3.1677,3.2588,3.2488,3.1982,3.2639,3.3051,3.335,3.4225,3.4213,3.3906,3.4115,3.3857,0.0,3.3549,3.2939,3.2235,3.2235,3.1626,3.0701,2.9828,2.9565,2.9365,2.8495,2.8291,2.8291,2.8291,2.8291,2.8291,2.8291,2.7871,2.7539,2.7539,2.7236,2.6982,2.6904,2.6602,2.6357,2.6269,2.5947,2.5693,2.5693,2.5927,2.61,2.6149,2.7851,2.9681,3.15,3.1789,3.2215,3.2905,3.2918,3.2629,3.2051,3.2051,3.1775,3.1223,3.0696,3.0218,0.0,0.0,0.0,0.0,0.0,0.0,0.0,0.0,0.0,0.0,0.0,3.014,3.0822,0.0,2.8866,2.9372,2.8179,2.7389,2.7887,2.7301,2.6808,2.6818,2.6808,2.6979,2.7392,2.7199,2.7365,2.8075,2.8038,2.8232,2.879,2.8991,2.9365,2.9869,2.9932,2.9932,2.9922,2.9932,2.9932,2.9922,3.0494,3.0494,2.9995,3.0726,3.1093,3.1062,3.0724,3.0799,3.1083,3.0849,3.0753,3.0897,3.2538,3.2851,3.2488,3.3001,3.2839,3.2387,3.2387,3.2033,3.1717,3.2839,3.2437,3.1666,3.2174,3.1971,3.1564,3.1564,3.1154,3.0753,3.0753,3.0338,2.9775,2.9207,2.9112,2.8953,2.8398,2.8291,2.8291,2.8291,2.8291,2.8291,2.8291,2.8115,2.7978,2.7978,2.7793,2.7578,2.7373,2.7158,2.6943,2.6728,2.6318,2.6064,2.6064,2.6423,2.6887,2.7531,2.8819,3.0294,3.1877,3.2077,3.2438,3.3081,3.3124,3.293,3.2641,3.2641,3.2353,3.1788,3.1537,3.1122,0.0,0.0,0.0,0.0,0.0,0.0,0.0,2.9143,2.9143,3.0767,2.9841,2.8958,2.9749,2.8437,2.7463,2.8262,2.715,2.6326,2.6962,2.6891,2.7073,2.7788,2.7093,2.668,2.71,2.7461,2.7748,2.7836,2.8096,2.8698,2.9513,2.8751,2.8708,2.9565,2.8751,2.8698,2.9565,2.8751,2.8751,2.9565,2.899,2.8623,2.8428,2.9055,2.9733,3.0394,2.9848,2.9908,3.0396,2.9974,2.9821,2.9927,3.1071,3.2053,3.2797,3.2606,3.2437,3.2134,3.1524,3.065,3.0078,3.1216,3.039,2.9112,2.9984,2.9618,2.8963,2.8963,2.8751,2.8601,2.8601,2.8441,2.8291,2.8291,2.8291,2.8291,2.8291,2.8291,2.8291,2.8291,2.8291,2.8291,2.8291,2.8291,2.8291,2.8291,2.8291,2.8174,2.7885,2.7767,2.7581,2.7178,2.6758,2.6475,2.6396,2.697,2.7626,2.8402,2.9612,3.0845,3.2021,3.2307,3.2624,3.3025,3.3068,3.3124,3.3124,3.3124,3.283,3.2378,3.2378,3.2026,2.7086,2.7379,2.7152,2.6235,2.6696,2.7426,0.0,2.8121,2.8773,2.9004,2.8866,2.8727,2.8866,2.7934,2.7237,2.7332,2.7514,2.7364,2.6596,2.7502,2.8117,2.7781,2.728,2.7119,2.7559,2.7689,2.7875,2.8193,2.8262,2.8344,2.8441,2.8344,2.8344,2.8495,2.8344,2.8344,2.8495,2.8344,2.8344,2.8504,2.9771,2.9793,2.8857,3.0302,3.0504,2.9715,2.9607,2.9653,2.9715,2.9656,2.9636,2.9747,3.0806,3.1339,3.1343,3.0527,2.967,2.8963,2.9828,3.0026,3.0078,3.1216,3.1421,3.1268,3.137,3.1319,3.1216,3.1216,3.0494,2.9713,2.9713,2.9006,2.8291,2.8291,2.8291,2.8291,2.8291,2.8291,2.8291,2.8291,2.8291,2.8291,2.8291,2.8291,2.8291,2.8291,2.8291,2.8271,2.8232,2.79,2.7699,2.765,2.7207,2.6797,2.6426,2.6309,2.6332,2.6418,2.76,2.876,2.9727,3.0833,3.1845,3.2723,3.2982,3.3124,3.3124,3.3124,3.3086,3.298,3.298,3.2403,2.6186,2.6332,2.6235,2.583,2.6014,2.6466,2.7057,2.7057,2.7305,2.8448,2.8215,2.784,2.784,2.7463,2.7092,2.6818,2.6882,2.6953,2.6769,2.7467,2.7958,2.7751,2.7725,2.7832,2.8018,2.8027,2.8105,2.8281,2.8291,2.8291,2.8291,2.8291,2.8291,2.8291,2.8291,2.8291,2.8291,2.8535,2.8662,2.8662,2.9575,2.9784,2.9362,3.0221,3.0512,3.0322,3.0049,3.0373,3.1005,3.0751,3.1014,3.1703,3.219,3.193,3.1236,3.0799,3.0342,2.9944,2.9467,2.9333,2.9337,2.9605,2.9681,2.9681,2.9681,2.9681,2.9681,2.9681,2.9313,2.8953,2.8953,2.8654,2.8291,2.8291,2.8291,2.8291,2.8291,2.8291,2.8291,2.8291,2.8291,2.8291,2.8291,2.8291,2.8291,2.8291,2.8291,2.8291,2.8291,2.8135,2.7939,2.7748,2.75,2.7119,2.6445,2.6969,2.7211,2.7003,2.8702,2.9943,3.0463,3.1524,3.2351,3.2939,3.3025,3.3124,3.3124,3.3124,3.3124,3.3124,3.3124,3.2817,2.5693,2.5693,2.5693,2.5693,2.5693,2.5868,2.66,2.6235,2.61,2.7579,2.7295,2.6781,2.6781,2.6883,2.6845,2.6477,2.6582,2.6846,2.7148,2.7568,2.7894,2.7894,2.8105,2.8291,2.8291,2.8291,2.8291,2.8291,2.8291,2.8291,2.8291,2.8291,2.8291,2.8291,2.8408,2.8467,2.8467,2.8887,2.9092,2.9101,2.9531,2.9746,2.9756,3.0195,3.0576,3.0869,3.0537,3.0886,3.1687,3.137,3.1771,3.2519,3.2911,3.254,3.1781,3.1981,3.1495,3.0589,2.9465,2.9092,2.9053,2.874,2.8643,2.8623,2.8506,2.8467,2.8437,2.833,2.8291,2.8291,2.8291,2.8291,2.8291,2.8291,2.8291,2.8291,2.8291,2.8291,2.8291,2.8291,2.8291,2.8291,2.8291,2.8291,2.8291,2.8291,2.8291,2.8291,2.8291,2.8291,2.8174,2.7924,2.7787,2.7412,2.6797,2.7409,2.7786,2.7883,2.9542,3.0744,3.1258,3.222,3.2766,3.2909,3.3038,3.3081,3.2982,3.3081,3.3124,3.3124,3.3124,3.3124,2.5693,2.5693,2.5693,2.5693,2.5693,2.5684,2.5732,2.5732,2.5742,2.5781,2.5781,2.5732,2.5732,2.6133,2.6417,2.6387,2.709,2.7679,2.7699,2.8008,2.8271,2.8271,2.8281,2.8291,2.8291,2.8291,2.8291,2.8291,2.8291,2.8291,2.8291,2.8291,2.8291,2.8291,2.8682,2.8896,2.8896,2.9336,2.9551,2.956,2.9971,3.0176,3.0195,3.0664,3.0879,3.0889,3.0869,3.0927,3.0927,3.0908,3.0966,3.1073,3.2254,3.2701,3.2815,3.3912,3.2323,2.9626,2.9607,2.9551,2.9607,2.9531,2.9587,2.9453,2.9023,2.8896,2.8818,2.8408,2.8291,2.8291,2.8291,2.8291,2.8291,2.8291,2.8291,2.8291,2.8291,2.8291,2.8291,2.8291,2.8291,2.8291,2.8291,2.8291,2.8291,2.8291,2.8291,2.8291,2.8291,2.8291,2.8291,2.8271,2.791,2.7708,2.7679,2.7089,2.7247,2.8508,2.9107,3.0011,3.1258,3.222,3.2593,3.2431,3.2865,3.2982,3.2711,3.2982,3.3124,3.3124,3.3124,3.3124,2.5693,2.5693,2.5693,2.5693,2.5693,2.5693,2.5693,2.5693,2.5693,2.5693,2.5967,2.6172,2.6172,2.6514,2.6894,2.7187,2.7532,2.7816,2.8047,2.8203,2.8291,2.8291,2.8291,2.8291,2.8291,2.8291,0.0,2.8291,2.8291,2.8291,2.8291,2.8291,2.8418,2.8701,2.8848,2.9053,2.9346,2.9775,2.999,2.999,3.0439,3.0654,3.0664,3.082,3.0889,3.0889,3.0889,3.1344,3.2065,3.2065,3.2571,3.3279,3.3674,3.3346,3.2742,3.313,3.2091,3.0515,3.1019,3.1177,3.1025,2.9938,2.9626,2.9597,2.9394,2.9346,2.9258,2.8828,2.8711,2.8643,2.8369,2.8291,2.8291,2.8291,2.8291,2.8291,2.8291,2.8291,2.8291,2.8291,2.8291,2.8291,2.8291,2.8291,2.8291,2.8291,2.8291,2.8291,2.8291,2.8291,2.8291,2.8291,2.8164,2.7969,2.7738,2.7641,2.7804,2.8292,2.9426,3.0457,3.127,3.2351,3.2939,3.2865,3.3038,3.3081,3.2982,3.3081,3.3124,3.3124,3.3124,3.3124,2.5693,2.5693,2.5693,2.5693,2.5693,2.5693,2.5693,2.5693,2.5732,2.5937,2.6191,2.6435,2.6582,2.6963,2.7344,2.7669,2.7845,2.7988,2.8252,2.8291,2.8291,2.8291,2.8291,2.8291,2.8291,2.8291,2.8291,2.8291,2.8291,2.8291,2.8291,2.8437,2.8643,2.8916,2.9219,2.9512,2.9795,3.0225,3.0449,3.0449,3.0752,3.0889,3.0889,3.0889,3.0889,3.0889,3.0889,3.1344,3.2076,3.2076,3.2514,3.3166,3.3618,3.3346,3.2742,3.3187,3.2846,3.2072,3.171,3.1609,3.1445,3.0401,3.0039,3.001,2.9844,2.9795,2.9707,2.9277,2.915,2.9053,2.8623,2.8516,2.8476,2.833,2.8291,2.8291,2.8291,2.8291,2.8291,2.8291,2.8291,2.8291,2.8291,2.8291,2.8291,2.8291,2.8291,2.8291,2.8291,2.8291,2.8291,2.8291,2.8291,2.8184,2.7963,2.7901,2.8114,2.8648,2.9347,3.0292,3.1454,3.2174,3.2711,3.2939,3.3038,3.3038,3.2939,3.3038,3.3124,3.3124,3.3124,3.3124,2.5693,2.5693,2.5693,2.5693,2.5693,2.5693,2.5713,2.5723,2.5849,2.6328,2.6435,2.6572,2.6973,2.7402,2.7748,2.7748,2.8027,2.8291,2.8291,2.8291,2.8291,2.8291,2.8291,2.8291,2.8291,2.8291,2.8291,2.8291,0.0,2.8301,2.832,2.8701,2.8935,2.8984,2.9775,3.0205,3.0234,3.0674,3.0889,3.0889,3.0889,3.0889,3.0889,3.0889,3.0889,3.0889,3.0889,3.0889,3.0889,3.0889,3.0889,3.1005,3.218,3.2628,3.2742,3.3843,3.4224,3.3888,3.1672,3.0947,3.1005,3.0889,3.0889,3.081,3.0361,3.0234,3.0146,2.9717,2.96,2.9502,2.9062,2.8935,2.8818,2.8418,2.831,2.8291,2.8291,2.8291,2.8291,2.8291,2.8291,2.8291,2.8291,2.8291,2.8291,2.8291,2.8291,2.8291,2.8291,2.8291,2.8291,2.8291,2.8291,2.8291,2.8291,2.793,2.8239,2.9483,2.9053,2.9719,3.1883,3.1791,3.2013,3.2667,3.2939,3.2982,3.2711,3.2982,3.3124,3.3124,3.3124,3.3124,2.5693,2.5693,2.5693,2.5693,2.5693,2.5771,2.6143,2.6221,2.6348,2.6768,2.7119,2.7373,2.748,2.7842,2.8135,2.8135,2.8223,2.8291,2.8291,2.8291,2.8291,2.8291,2.8291,2.8291,2.8291,2.8291,2.8291,0.0,2.8291,2.8428,2.874,2.8857,2.9209,2.9853,3.0078,3.0361,3.0713,3.083,3.0889,3.0889,3.0889,3.0889,3.0889,3.0889,3.0889,3.0889,3.0889,3.0889,3.0889,3.0889,3.0889,3.0947,3.1228,3.1334,3.1392,3.1672,3.1777,3.173,3.1112,3.1508,3.2065,3.117,3.0889,3.0869,3.0752,3.0713,3.0625,3.0166,3.0039,2.9941,2.9512,2.916,2.8887,2.8779,2.8525,2.8291,2.8291,2.8291,2.8291,2.8291,2.8291,2.8291,2.8291,2.8291,2.8291,2.8291,2.8291,2.8291,2.8291,2.8291,2.8291,2.8291,2.8291,2.8291,2.8291,2.8193,2.881,3.0375,3.0454,3.1112,3.2512,3.2849,3.2901,3.2723,3.2939,3.3081,3.2995,3.3081,3.3124,3.3124,3.3124,3.3124,2.5693,2.5693,2.5732,2.5977,2.6025,2.6133,2.6562,2.666,2.6787,2.7217,2.75,2.7777,2.791,2.8135,2.8291,2.8291,2.8291,2.8291,2.8291,2.8291,2.8291,2.8291,2.8291,2.8291,2.8291,2.8291,2.8369,2.8555,2.8564,2.8672,2.8906,2.9277,2.9697,3.0176,3.0391,3.0625,3.0889,3.0889,3.0889,3.0889,3.0889,3.0889,3.0889,3.0889,3.0889,3.0889,0.0,3.0889,3.0889,3.0889,3.0889,3.0889,3.0889,3.0889,3.0889,3.0889,3.0889,3.0889,3.0889,3.1334,3.1787,3.1112,3.0889,3.0889,3.0889,3.0889,3.084,3.0576,3.0508,3.04,2.9961,2.9668,2.9385,2.9004,2.874,2.8516,2.833,2.8291,2.8291,2.8291,2.8291,2.8291,2.8291,2.8291,2.8291,2.8291,2.8291,2.8291,2.8291,2.8291,2.8291,2.8291,2.8291,2.8291,2.8291,2.8291,2.8704,2.9621,3.0218,3.0948,3.1995,3.2476,3.2824,3.304,3.2978,3.2982,3.3124,3.3124,3.3124,3.3124,3.3124,3.3124,2.5771,2.582,2.5947,2.6377,2.6475,2.6582,2.7002,2.71,2.7226,2.7656,2.7806,2.7914,2.8223,2.8291,2.8291,2.8291,2.8291,2.8291,2.8291,2.8291,2.8291,2.8291,2.8291,2.8291,2.8291,2.834,2.8525,2.8887,2.9023,2.9092,2.9092,2.9795,3.0225,3.0293,3.0684,3.0889,3.0889,3.0889,3.0889,3.0889,3.0889,3.0889,3.0889,3.0889,3.0889,3.0889,3.0889,3.0889,3.0889,3.0889,3.0889,3.0889,3.0889,3.0889,3.0889,3.0889,3.0889,3.0889,3.0889,3.0889,3.0889,3.0889,3.0889,3.0889,3.0889,3.0889,3.0889,3.0889,3.0889,3.0801,3.0391,3.0244,3.001,2.9268,2.9004,2.8818,2.8447,2.833,2.8291,2.8291,2.8291,2.8291,2.8291,2.8291,2.8291,2.8291,2.8291,2.8291,2.8291,2.8291,2.8291,2.8291,2.8291,2.8291,2.8291,2.8291,2.8344,2.8495,2.928,3.0125,3.1081,3.1618,3.2323,3.3251,3.3015,3.2928,3.3124,3.3124,3.3124,3.3124,3.3124,3.3124,2.6279,2.6523,2.6807,2.6894,2.6904,2.7021,2.7451,2.7559,2.7676,2.8096,2.8184,2.8203,2.8281,2.8291,2.8291,2.8291,2.8291,2.8291,2.8291,2.8291,2.8291,2.8291,2.8291,2.8291,2.8291,2.8603,2.8838,2.8916,2.958,2.9971,2.9971,3.0117,3.0371,3.0762,3.085,3.0889,3.0889,3.0889,3.0889,3.0889,3.0889,3.0889,3.0889,3.0889,3.0889,3.0889,3.0889,0.0,3.0889,3.0889,3.0889,3.0889,3.0889,3.0889,3.0889,3.0889,3.0889,3.0889,3.0889,3.0889,3.0889,3.0889,3.0889,3.0889,3.0889,3.0889,3.0889,3.0889,3.0889,3.0869,3.0791,3.0488,3.0156,3.001,2.9434,2.8896,2.8828,2.8535,2.8291,2.8291,2.8291,2.8291,2.8291,2.8291,2.8291,2.8291,2.8291,2.8291,2.8291,2.8291,2.8291,2.8291,2.8291,2.8291,2.8291,2.8291,2.8698,2.9565,2.9807,3.025,3.1164,3.2236,3.2618,3.218,3.3185,3.3489,3.3124,3.3124,3.3124,3.3124,3.3124,3.3124,2.6709,2.6865,2.707,2.7295,2.7353,2.7471,2.7891,2.7988,2.8047,2.8252,2.8291,2.8291,2.8291,2.8291,2.8291,2.8291,2.8291,2.8291,2.8291,2.8291,2.8291,2.8291,2.8291,2.8379,2.8603,2.8799,2.9101,2.9551,2.9961,3.0195,3.0195,3.043,3.0664,3.0889,3.0889,3.0889,3.0889,3.0889,3.0889,3.0889,3.0889,3.0889,3.0889,3.0889,3.0889,3.0889,3.0889,3.0889,3.0889,3.0889,3.0889,3.0889,3.0889,3.0889,3.0889,3.0889,3.0889,3.0889,3.0889,3.0889,3.0889,3.0889,3.0889,3.0889,3.0889,3.0889,3.0889,3.0889,3.0889,3.0889,3.0889,3.0723,3.0498,3.0254,2.9541,2.8916,2.8916,2.8584,2.8291,2.8291,2.8291,2.8291,2.8291,2.8291,2.8291,2.8291,2.8291,2.8291,2.8291,2.8291,2.8291,2.8291,2.8291,2.8291,2.8291,2.8291,2.8495,2.9059,2.9565,3.044,3.1578,3.246,3.3173,3.363,3.3682,3.3627,3.3508,3.3262,3.3124,3.3124,3.3124,3.3124,2.7158,2.7217,2.7373,2.7715,2.7855,2.7891,2.8223,2.8291,2.8291,2.8291,2.8291,2.8291,2.8291,2.8291,2.8291,2.8291,2.8291,2.8291,2.8291,2.8291,2.8291,2.8291,2.8369,2.8555,2.8887,2.9092,2.9473,3.0146,3.0293,3.0342,3.0342,3.0693,3.0889,3.0889,3.0889,3.0889,3.0889,3.0889,3.0889,3.0889,3.0889,3.0889,3.0889,3.0889,3.0889,3.0889,3.0889,3.0889,0.0,3.0889,3.0889,3.0889,3.0889,3.0889,3.0889,3.0889,3.0889,3.0889,3.0889,3.0889,3.0889,3.0889,3.0889,3.0889,3.0889,3.0889,3.0889,3.0889,3.0889,3.0889,3.0889,3.0889,3.0771,3.0303,2.9678,2.9141,2.8955,2.8662,2.8398,2.831,2.8291,2.8291,2.8291,2.8291,2.8291,2.8291,2.8291,2.8291,2.8291,2.8291,2.8291,2.8291,2.8291,2.8398,2.8601,2.8451,2.8504,2.8963,2.9565,3.0535,3.192,3.2651,3.3636,3.4856,3.4235,3.3913,3.3897,3.347,3.3194,3.3124,3.3124,3.3124,2.766,2.7881,2.8184,2.8223,2.8232,2.8242,2.8281,2.8291,2.8291,2.8291,2.8291,2.8291,2.8291,2.8291,2.8291,2.8291,2.8291,2.8291,2.8291,2.8291,2.8291,2.8291,2.8633,2.8877,2.8916,2.9619,3.0107,3.0185,3.0586,3.083,3.083,3.0869,3.0889,3.0889,3.0889,3.0889,3.0889,3.0889,3.0889,3.0889,3.0889,3.0889,3.0889,3.0889,3.0889,3.0889,3.0889,3.0889,0.0,3.0889,3.0889,3.0889,3.0889,3.0889,3.0889,3.0889,3.0889,3.0889,3.0889,3.0889,3.0889,3.0889,3.0889,3.0889,3.0889,3.0889,3.0889,3.0889,3.0889,3.0889,3.0889,3.0889,3.0771,3.0303,3.0137,2.9863,2.9092,2.8887,2.875,2.8369,2.8291,2.8291,2.8291,2.8291,2.8291,2.8291,2.8291,2.8291,2.8291,2.8291,2.8291,2.8291,2.8291,2.8698,2.967,2.8847,2.9164,3.1165,3.0442,3.0535,3.192,3.3243,3.3845,3.3768,3.4767,3.4856,3.3897,3.3847,3.3571,3.3124,3.3124,3.3124,2.8047,2.8164,2.8291,2.8291,2.8291,2.8291,2.8291,2.8291,2.8291,2.8291,2.8291,2.8291,2.8291,2.8291,2.8291,2.8291,2.8291,2.8291,2.8291,2.8506,2.8672,2.8672,2.9043,2.9414,2.9668,3.0,3.0312,3.0596,3.0781,3.0889,3.0889,3.0889,3.0889,3.0889,3.0889,3.0889,3.0889,3.0889,3.0889,3.0889,3.0889,3.0889,3.0889,3.0889,3.0889,3.0889,3.0889,3.0889,0.0,3.0889,3.0889,3.0889,3.0889,3.0889,3.0889,3.0889,3.0889,3.0889,3.0889,3.0889,3.0889,3.0889,3.0889,3.0889,3.0889,3.0889,3.0889,3.0889,3.0889,3.0889,3.0889,3.0889,3.084,3.0664,3.04,3.0098,2.9766,2.9287,2.8867,2.8701,2.8467,2.8291,2.8291,2.8291,2.8291,2.8291,2.8291,2.8291,2.8291,2.8291,2.8291,2.8291,2.891,2.9418,2.9869,3.0141,3.066,3.1524,3.1165,3.1513,3.2889,3.3636,3.4351,3.5038,3.5332,3.5282,3.4843,3.4223,3.3784,3.3558,3.3232,3.3124,2.8291,2.8291,2.8291,2.8291,2.8291,2.8291,2.8291,2.8291,2.8291,2.8291,2.8291,2.8291,2.8291,2.8291,2.8291,2.8291,2.8291,2.8291,2.8291,2.8652,2.8916,2.8916,2.9414,2.9873,3.0166,3.0322,3.0537,3.0869,3.0889,3.0889,3.0889,3.0889,3.0889,3.0889,3.0889,3.0889,3.0889,3.0889,3.0889,3.0889,3.0889,3.0889,3.0889,3.0889,3.0889,3.0889,3.0889,3.0889,0.0,3.0889,3.0889,3.0889,3.0889,3.0889,3.0889,3.0889,3.0889,3.0889,3.0889,3.0889,3.0889,3.0889,3.0889,3.0889,3.0889,3.0889,3.0889,3.0889,3.0889,3.0889,3.0889,3.0889,3.0889,3.0889,3.0644,3.0361,3.0225,2.9717,2.9219,2.8965,2.8682,2.8437,2.831,2.8291,2.8291,2.8291,2.8291,2.8291,2.8291,2.8291,2.8291,2.8291,2.9565,3.038,3.038,3.1165,3.188,3.2499,3.2235,3.2639,3.3906,3.4299,3.4908,3.586,3.5806,3.5658,3.5495,3.4718,3.4223,3.3884,3.3508,3.3232,2.8291,2.8291,2.8291,2.8291,2.8291,2.8291,2.8291,2.8291,2.8291,2.8291,2.8291,2.8291,2.8291,2.8291,2.8291,2.8291,2.8291,2.8291,2.8291,2.8652,2.8916,2.8916,2.9678,3.0195,3.0195,3.0615,3.0889,3.0889,3.0889,0.0,3.0889,3.0889,3.0889,3.0889,3.0889,3.0889,3.0889,3.0889,3.0889,3.0889,3.0889,3.0889,3.0889,3.0889,3.0889,3.0889,3.0889,3.0889,0.0,3.0889,3.0889,3.0889,3.0889,3.0889,3.0889,3.0889,3.0889,3.0889,3.0889,3.0889,3.0889,3.0889,3.0889,3.0889,3.0889,3.0889,3.0889,3.0889,3.0889,3.0889,3.0889,3.0889,3.0889,3.0889,3.0889,3.0762,3.0293,3.0185,2.9932,2.9082,2.8916,2.8779,2.8369,2.8291,2.8291,2.8291,2.8291,2.8291,2.8291,2.8291,2.8291,2.8291,3.0245,3.1575,3.1575,3.1575,3.2499,3.4628,3.3758,3.3659,3.4726,3.532,3.5572,3.562,3.6121,3.6094,3.5495,3.5495,3.4919,3.3897,3.3884,3.3596,2.8291,2.8291,2.8291,2.8291,2.8291,2.8291,2.8291,2.8291,2.8291,2.8291,2.8291,2.8291,2.8291,2.8291,2.8291,2.8291,2.8291,2.8291,2.8291,2.8652,2.8916,2.8916,2.9678,3.0322,3.0644,0.0,3.0889,3.0889,3.0889,3.0889,3.0889,3.0889,3.0889,3.0889,3.0889,3.0889,3.0889,3.0889,3.0889,3.0889,3.0889,3.0889,3.0889,3.0889,3.0889,3.0889,3.0889,3.0889,0.0,3.0889,3.0889,3.0889,3.0889,3.0889,3.0889,3.0889,3.0889,3.0889,3.0889,3.0889,3.0889,3.0889,3.0889,3.0889,3.0889,3.0889,3.0889,3.0889,3.0889,3.0889,3.0889,3.0889,3.0889,3.0889,3.0889,3.085,3.0703,3.042,3.0117,2.9844,2.9316,2.8877,2.874,2.8476,2.8291,2.8291,2.8291,2.8291,2.8291,2.8291,2.8291,2.8291,3.0297,3.1575,3.1575,3.2951,3.4066,3.4775,3.447,3.447,3.4775,3.532,3.562,3.562,3.6133,3.6329,3.6094,3.5683,3.4931,3.3897,3.3897,3.3608,2.8291,2.8291,2.8291,2.8291,2.8291,2.8291,2.8291,2.8291,2.8291,2.8291,2.8291,2.8291,2.8291,2.8291,2.8291,2.8291,2.8291,2.8291,2.8291,2.8652,2.9043,2.9365,2.9873,3.0381,0.0,3.0889,3.0889,3.0889,3.0889,3.0889,3.0889,3.0889,3.0889,3.0889,3.0889,3.0889,3.0889,3.0889,3.0889,3.0889,3.0889,3.0889,3.0889,3.0889,3.0889,3.0889,3.0889,0.0,0.0,3.0889,3.0889,3.0889,3.0889,3.0889,3.0889,3.0889,3.0889,3.0889,3.0889,3.0889,3.0889,3.0889,3.0889,3.0889,3.0889,3.0889,3.0889,3.0889,3.0889,3.0889,3.0889,3.0889,3.0889,3.0889,3.0889,3.0889,3.0889,3.0664,3.04,3.0234,2.9639,2.9111,2.8945,2.8878,2.8751,2.8344,2.8644,2.8751,2.8344,2.8291,2.8441,2.8847,3.0494,3.1779,3.2185,3.3808,3.4775,3.4775,3.4775,3.4775,3.4775,3.5223,3.5464,3.5464,3.5991,3.6228,3.6228,3.5725,3.5044,3.4211,3.3997,3.3608,0.0,2.8291,2.8291,2.8291,2.8291,2.8291,2.8291,2.8291,0.0,2.8291,2.8291,2.8291,2.8291,2.8291,2.8291,2.8291,2.8291,2.8291,2.8291,2.8633,2.9189,3.0049,3.0156,3.0342,3.084,3.0889,3.0889,3.0889,3.0889,3.0889,3.0889,3.0889,3.0889,3.0889,3.0889,3.0889,3.0889,3.0889,3.0889,3.0889,3.0889,3.0889,3.0889,3.0889,3.0889,0.0,3.0889,0.0,0.0,3.0889,3.0889,3.0889,3.0889,3.0889,3.0889,3.0889,3.0889,3.0889,3.1005,3.0947,3.0889,3.1005,3.1005,3.1054,3.1112,3.1005,3.0889,3.0889,3.0889,3.0889,3.0889,3.0889,3.0889,3.0889,3.0889,3.0889,3.0889,3.0889,3.0762,3.0332,2.9902,2.9473,2.9043,2.9497,2.9606,2.8558,2.926,2.9513,2.8548,2.8344,2.8698,2.9775,3.0856,3.1931,3.3101,3.4164,3.4775,3.4775,3.4775,3.4775,3.4775,3.5078,3.5223,3.5223,3.5716,3.6015,3.6015,3.5728,3.527,3.4718,3.4211,3.3658,2.8291,0.0,2.8291,2.8291,2.8291,2.8291,0.0,2.8291,2.8291,2.8291,2.8291,2.8291,2.8291,2.8291,2.8291,2.8291,2.8291,2.8291,2.8291,2.8379,2.876,2.9619,2.9717,3.0029,3.081,3.0889,3.0889,3.0889,3.0889,3.0889,3.0889,3.0889,3.0889,3.0889,3.0889,3.0889,3.0889,3.0889,3.0889,3.0889,3.0889,3.0889,3.0889,3.0889,3.0889,3.0889,3.0889,0.0,3.0889,3.0889,3.0889,3.0889,3.0889,3.0889,3.0889,3.0889,3.0889,3.1005,3.196,3.1672,3.1064,3.196,3.2295,3.2457,3.3279,3.2332,3.0889,3.0889,3.0889,3.0889,3.0889,3.0889,3.0889,3.0889,3.0889,3.0889,3.0889,3.0889,3.0859,3.0752,3.0361,2.9912,2.9492,3.0015,3.023,2.9617,2.9723,2.9817,2.9565,2.8804,2.8698,2.9775,3.013,3.1103,3.3051,3.4164,3.4775,3.4775,3.4775,3.4775,3.4775,3.5078,3.5223,3.5223,3.5716,3.6098,3.6323,3.6232,3.5893,3.5295,3.4743,3.4236,2.8291,2.8291,2.8291,2.8291,2.8291,2.8291,2.8291,2.8291,2.8291,2.8291,2.8291,2.8291,2.8291,2.8291,2.8291,2.8291,2.8291,2.8291,2.8291,2.8291,2.8535,2.9189,2.9443,2.9834,0.0,3.0762,3.0889,3.0889,3.0889,3.0889,3.0889,3.0889,3.0889,3.0889,3.0889,3.0889,3.0889,3.0889,3.0889,3.0889,3.0889,3.0889,3.0889,3.0889,3.0889,3.0889,0.0,0.0,3.0889,3.0889,3.0889,3.0889,3.0889,3.0889,3.0889,3.0889,3.0889,3.1005,3.1682,3.1787,3.1903,3.3119,3.3459,3.3628,3.4224,3.3505,3.2504,3.2504,3.2504,3.2504,3.2504,3.2504,3.2504,3.2504,3.2504,3.2342,3.1845,3.174,3.1566,3.1005,3.0518,3.0127,2.9893,3.0308,3.0522,3.0274,3.0475,3.0701,3.0701,3.0182,3.0245,3.1308,3.141,3.2123,3.3808,3.447,3.4775,3.4775,3.4775,3.4775,3.4775,3.4932,3.5066,3.5223,3.562,3.5955,3.6228,3.6323,3.6081,3.5495,3.5194,3.4663,2.8291,2.8291,2.8291,2.8291,2.8291,2.8291,2.8291,2.8291,2.8291,2.8291,2.8291,2.8291,2.8291,2.8291,2.8291,2.8291,2.8291,2.8291,2.8291,2.8291,2.8447,2.8867,2.9248,0.0,3.0146,3.0557,3.081,3.0889,3.0889,3.0889,3.0889,3.0889,3.0889,3.0889,3.0889,3.0889,3.0889,3.0889,3.0889,3.0889,3.0889,3.0889,3.0889,3.0889,3.0889,3.0889,0.0,0.0,3.0889,3.0889,3.0889,3.0889,3.0889,3.0889,3.0889,3.0889,3.0889,3.0889,3.0889,3.1672,3.2856,3.3843,3.428,3.4447,3.4614,3.4781,3.4947,3.4947,3.4659,3.4391,3.4391,3.4391,3.4391,3.4391,3.4391,3.4123,3.3187,3.296,3.2628,3.1392,3.0855,3.0502,3.0262,3.0454,3.0741,3.0829,3.1259,3.1677,3.183,3.1677,3.2033,3.3101,3.3051,3.3461,3.4677,3.4677,3.4628,3.4775,3.4775,3.4835,3.4884,3.4872,3.503,3.532,3.5572,3.5812,3.6051,3.6275,3.6119,3.5621,3.5533,3.4994,2.8291,2.8291,2.8291,2.8291,2.8291,2.8291,2.8291,2.8291,2.8291,2.8291,2.8291,2.8291,2.8291,2.8291,2.8291,2.8291,2.8291,2.8291,2.8291,2.8291,2.8447,2.8867,0.0,2.9326,3.0117,3.0264,3.0469,3.0859,3.0889,3.0889,3.0889,3.0889,3.0889,3.0889,3.0889,3.0889,3.0889,3.0889,3.0889,3.0889,3.0889,3.0889,3.0889,3.0889,3.0889,3.0889,0.0,3.0889,3.0889,3.0889,3.0889,3.0889,3.0889,3.0889,3.0889,3.0889,3.0889,3.0889,3.0889,3.1672,3.2742,3.2903,3.3628,3.4614,3.5619,3.6665,3.7429,3.7429,3.5991,3.4391,3.4391,3.4391,3.4391,3.4391,3.4391,3.4336,3.4168,3.4112,3.3786,3.2628,3.2348,3.1889,3.0425,3.0706,3.131,3.1867,3.1766,3.1931,3.2851,3.2185,3.2033,3.3101,3.2387,3.265,3.4628,3.3967,3.3808,3.4726,3.4775,3.4872,3.5126,3.5126,3.5368,3.5872,3.592,3.6051,3.6323,3.6358,3.6367,3.6267,3.5768,3.5408,2.8291,2.8291,2.8291,2.8291,2.8291,2.8291,2.8291,2.8291,2.8291,2.8291,2.8291,2.8291,2.8291,2.8291,2.8291,2.8291,2.8291,2.8291,2.8291,2.8291,2.8369,0.0,0.0,2.9072,2.9473,2.9922,3.0283,3.0498,3.0752,3.0889,3.0889,3.0889,3.0889,3.0889,3.0889,3.0889,3.0889,3.0889,3.0889,3.0889,3.0889,3.0889,3.0889,3.0889,3.0889,3.0889,0.0,3.0889,3.0889,3.0889,3.0889,3.0889,3.0889,3.0889,3.0889,3.0889,3.0889,3.1005,3.1682,3.2238,3.2799,3.3402,3.3944,3.4614,3.5838,3.6569,3.7162,3.7814,3.7203,3.6329,3.6329,3.6329,3.6329,3.6329,3.6329,3.6165,3.5509,3.5399,3.5002,3.3843,3.313,3.2452,3.1667,3.0892,3.0624,3.1527,3.1629,3.1982,3.3051,3.325,3.3511,3.4017,3.361,3.3709,3.4726,3.4372,3.4262,3.4775,3.4775,3.4884,3.4981,3.5126,3.532,3.5572,3.586,3.6051,3.6193,3.6323,3.6405,3.6405,3.6107,3.583,2.8291,2.8291,2.8291,2.8291,2.8291,2.8291,2.8291,2.8291,2.8291,2.8291,2.8291,2.8291,2.8291,2.8291,2.8291,2.8291,2.8291,2.8291,2.8291,2.8291,2.8291,2.8291,2.8574,2.8809,2.8906,2.9512,2.998,3.0176,3.0527,3.0771,3.0889,3.0889,3.0889,3.0889,3.0889,3.0889,3.0889,3.0889,3.0889,3.0889,3.0889,3.0889,3.0889,3.0889,3.0889,3.0889,3.0889,3.0889,3.0889,3.0889,3.0889,3.0889,3.0889,3.0889,3.0889,3.0889,3.0889,3.1005,3.196,3.2295,3.2399,3.3279,3.3776,3.4179,3.5124,3.5564,3.6002,3.7215,3.7601,3.7655,3.7921,3.7986,3.7986,3.7986,3.7986,3.7761,3.6839,3.6623,3.6286,3.5057,3.4123,3.3413,3.313,3.1712,3.0917,3.1822,3.2065,3.2521,3.3472,3.4274,3.4775,3.4775,3.4775,3.4775,3.4775,3.4775,3.4775,3.4775,3.4775,3.4835,3.4872,3.5126,3.532,3.5368,3.586,3.6098,3.6098,3.6323,3.6405,3.6405,3.6405,3.6132,2.8291,2.8291,2.8291,2.8291,2.8291,2.8291,2.8291,2.8291,2.8291,2.8291,2.8291,2.8291,2.8291,2.8291,2.8291,2.8291,2.8291,2.8291,2.8291,0.0,2.8291,2.8291,2.832,2.8496,2.8877,2.8975,2.9346,3.0137,3.0225,3.043,3.0869,3.0889,3.0889,3.0889,3.0889,3.0889,3.0889,3.0889,3.0889,3.0889,3.0889,3.0889,3.0889,3.0889,3.0889,3.0889,3.0889,3.0889,3.0889,3.0889,3.0889,3.0889,3.0889,3.0889,3.0889,3.0889,3.0889,3.0889,3.1005,3.1005,3.1054,3.1122,3.1903,3.2856,3.2903,3.3685,3.4781,3.6002,3.6352,3.6569,3.7708,3.7986,3.7986,3.7986,3.7986,3.7986,3.7868,3.7868,3.7483,3.6286,3.6013,3.5564,3.4447,3.3834,3.3713,3.4279,3.4028,3.4043,3.4639,3.4726,3.4775,3.4775,3.4775,3.4775,3.4775,3.4775,3.4775,3.4775,3.4775,3.4932,3.5175,3.5428,3.5668,3.592,3.6228,3.6358,3.6358,3.6405,3.6405,3.6405,3.6405,3.6392,2.8291,2.8291,2.8291,2.8291,2.8291,2.8291,2.8291,2.8291,2.8291,2.8291,2.8291,2.8291,2.8291,2.8291,2.8291,2.8291,2.8291,2.8291,2.8291,2.8291,2.8291,2.8291,2.8291,2.8359,2.8516,2.876,2.917,2.9766,3.0049,3.04,3.0869,3.0889,3.0889,3.0889,3.0889,3.0889,3.0889,3.0889,3.0889,3.0889,3.0889,3.0889,3.0889,3.0889,3.0889,3.0889,3.0889,3.0889,3.0889,3.0889,3.0889,3.0889,3.0889,3.0889,3.0889,3.0889,3.0889,3.0889,3.0889,3.0889,3.0889,3.0889,3.1228,3.173,3.2457,3.3515,3.467,3.585,3.6731,3.7441,3.788,3.7986,3.7986,3.7986,3.7986,3.7986,3.7986,3.7986,3.788,3.7388,3.6731,3.6068,3.5619,3.458,3.3757,3.3646,3.3855,3.3927,3.3828,3.4372,3.4775,3.4775,3.4775,3.4775,3.4775,3.4775,3.4775,3.4775,3.4775,3.4835,3.4932,3.5223,3.5476,3.5764,3.6003,3.6228,3.6405,3.6405,3.6405,3.6405,3.6405,3.6405,2.8291,2.8291,2.8291,2.8291,2.8291,2.8291,2.8291,2.8291,2.8291,2.8291,2.8291,2.8291,2.8291,2.8291,2.8291,2.8291,2.8291,2.8291,2.8291,2.8291,2.8291,2.8291,2.8291,2.8291,2.8291,2.8555,2.8906,2.9336,2.9756,3.0195,3.0644,3.081,3.0889,3.0889,3.0889,3.0889,3.0889,3.0889,3.0889,3.0889,3.0889,3.0889,3.0889,3.0889,3.0889,3.0889,3.0889,3.0889,3.0889,3.0889,3.0889,3.0889,3.0889,3.0889,3.0889,3.0889,3.0889,3.0889,3.0889,3.0889,3.0889,3.0889,3.0889,3.1064,3.1903,3.296,3.4123,3.5289,3.6503,3.7548,3.7921,3.7986,3.7986,3.7986,3.7986,3.7986,3.7986,3.7986,3.7986,3.7986,3.7322,3.6785,3.6785,3.5867,3.4962,3.4411,3.4561,3.4575,3.4012,3.4467,3.4775,3.4775,3.4775,3.4775,3.4775,3.4775,3.4775,3.4775,3.4775,3.4775,3.4775,3.5078,3.5271,3.5476,3.5812,3.6098,3.6275,3.6358,3.6405,3.6405,3.6405,3.6405,2.8291,2.8291,2.8291,2.8291,2.8291,2.8291,2.8291,2.8291,2.8291,2.8291,2.8291,2.8291,2.8291,2.8291,2.8291,2.8291,2.8291,2.8291,2.8291,2.8291,2.8291,2.8291,2.8291,2.8291,2.8291,2.8291,2.8467,2.8887,2.9316,2.9746,3.0176,3.0635,3.0889,3.0889,3.0889,3.0889,3.0889,3.0889,3.0889,3.0889,3.0889,3.0889,3.0889,3.0889,3.0889,3.0889,3.0889,3.0889,3.0889,3.0889,3.0889,3.0889,3.0889,3.0889,3.0889,3.0889,3.0889,3.0889,3.0889,3.0889,3.0889,3.0889,3.0889,3.0889,3.0889,3.173,3.296,3.4067,3.5289,3.646,3.7708,3.7986,3.7986,3.7986,3.7986,3.7986,3.7986,3.7986,3.7986,3.7986,3.7986,3.7986,3.7986,3.7986,3.7805,3.7276,3.6747,3.6218,3.5677,3.5148,3.4775,3.4775,3.4775,3.4775,3.4775,3.4775,3.4775,3.4775,3.4775,3.4775,3.4775,3.5078,3.5223,3.5223,3.5716,3.6015,3.6015,3.6275,3.6405,3.6405,3.6405,3.6405,2.8291,2.8291,2.8291,2.8291,2.8291,2.8291,2.8291,2.8291,2.8291,2.8291,2.8291,2.8291,2.8291,2.8291,2.8291,2.8291,2.8291,2.8291,2.8291,2.8291,2.8291,2.8291,2.8291,2.8291,2.8291,2.8291,2.8467,2.8887,2.9033,2.9424,3.0156,3.0332,3.0557,3.0879,3.0889,3.0889,3.0889,3.0889,3.0889,3.0889,3.0889,3.0889,3.0889,3.0889,3.0889,3.0889,3.0889,3.0889,3.0889,3.0889,3.0889,3.0889,3.0889,3.0889,3.0889,3.0889,3.0889,3.0889,3.0889,3.0889,3.0889,3.0889,3.0889,3.0889,3.0889,3.173,3.296,3.4067,3.5289,3.646,3.7708,3.7986,3.7986,3.7986,3.7986,3.7986,3.7986,3.7986,3.7986,3.7986,3.7986,3.7986,3.7986,3.7986,3.7805,3.7276,3.6747,3.6086,3.5172,3.4919,3.4775,3.4775,3.4775,3.4775,3.4775,3.4775,3.4775,3.4775,3.4775,3.4775,3.4775,3.5078,3.5271,3.5476,3.5812,3.6098,3.6275,3.6358,3.6405,3.6405,3.6405,3.6405,2.8291,2.8291,2.8291,2.8291,2.8291,2.8291,2.8291,2.8291,2.8291,2.8291,2.8291,2.8291,2.8291,2.8291,2.8291,2.8291,2.8291,2.8291,2.8291,2.8291,2.8291,2.8291,2.8291,2.8291,2.8291,2.8291,2.8398,2.8652,2.8818,2.9219,2.9912,3.0107,3.041,3.0879,3.0889,3.0889,3.0889,3.0889,3.0889,3.0889,3.0889,3.0889,3.0889,3.0889,3.0889,3.0889,3.0889,3.0889,3.0889,3.0889,3.0889,3.0889,3.0889,3.0889,3.0889,3.0889,3.0889,3.0947,3.145,3.1624,3.1672,3.2113,3.2285,3.2285,3.2285,3.3119,3.4235,3.4902,3.6002,3.7108,3.7814,3.7986,3.7986,3.7986,3.7986,3.7986,3.7986,3.7986,3.7986,3.7986,3.7986,3.7986,3.7986,3.7986,3.7878,3.7553,3.6879,3.6026,3.4968,3.4775,3.4775,3.4775,3.4775,3.4775,3.4775,3.4775,3.4775,3.4775,3.4775,3.4775,3.4775,3.4981,3.5175,3.5416,3.5716,3.5955,3.6228,3.637,3.6405,3.6405,3.6405,3.6405,2.8291,2.8291,2.8291,2.8291,2.8291,2.8291,2.8291,2.8291,2.8291,2.8291,2.8291,2.8291,2.8291,2.8291,2.8291,2.8291,2.8291,2.8291,2.8291,2.8291,2.8291,2.8291,2.8291,2.8291,2.8291,2.8291,2.8291,2.8291,2.8643,2.9053,2.9482,2.9912,3.0351,3.081,3.0869,3.0889,3.0889,3.0889,3.0889,3.0889,3.0889,3.0889,3.0889,3.0889,3.0889,3.0889,3.0889,3.0889,3.0889,3.0889,3.0889,3.0889,3.0889,3.0889,3.0889,3.0889,3.0889,3.1064,3.218,3.2628,3.2856,3.3899,3.4336,3.4391,3.4391,3.5179,3.6068,3.6177,3.7,3.7868,3.7986,3.7986,3.7986,3.7986,3.7986,3.7986,3.7986,3.7986,3.7986,3.7986,3.7986,3.7986,3.7986,3.7986,3.795,3.7853,3.7024,3.6026,3.4968,3.4775,3.4775,3.4775,3.4775,3.4775,3.4775,3.4775,3.4775,3.4775,3.4775,3.4775,3.4775,3.4823,3.4932,3.5223,3.5464,3.5716,3.6015,3.6228,3.6358,3.6405,3.6405,3.6405,2.8291,2.8291,2.8291,2.8291,2.8291,2.8291,2.8291,2.8291,2.8291,2.8291,2.8291,2.8291,2.8291,2.8291,2.8291,2.8291,2.8291,2.8291,2.8291,2.8291,2.8291,2.8291,2.8291,2.8291,2.8291,2.8291,2.8291,2.8291,2.8379,2.8613,2.9033,2.9473,2.9902,3.0332,3.0703,3.0889,3.0889,3.0889,3.0889,0.0,3.0889,3.0889,3.0889,3.0889,3.0889,3.0889,3.0889,3.0889,3.0889,3.0889,3.0889,3.0889,3.0889,3.0889,3.0889,3.0889,3.0889,3.0947,3.117,3.1903,3.2742,3.296,3.3674,3.4391,3.4391,3.4558,3.5002,3.5959,3.6394,3.6839,3.7761,3.7986,3.7986,3.7986,3.7986,3.7986,3.7986,3.7986,3.7986,3.7986,3.7986,3.7986,3.7986,3.7986,3.7697,3.6867,3.6555,3.6026,3.4968,3.4775,3.4775,3.4775,3.4775,3.4775,3.4775,3.4775,3.4775,3.4775,3.4775,3.4775,3.4775,3.4981,3.5126,3.5223,3.5464,3.5716,3.6015,3.6051,3.6193,3.6405,3.6405,3.6405,2.8291,2.8291,2.8291,2.8291,2.8291,2.8291,2.8291,2.8291,2.8291,2.8291,2.8291,2.8291,2.8291,2.8291,2.8291,2.8291,2.8291,2.8291,2.8291,2.8291,2.8291,2.8291,2.8291,2.8291,2.8291,2.8291,2.8291,2.8291,2.8291,2.8476,2.8896,2.9336,2.9766,3.0185,3.0644,3.0889,3.0889,3.0889,3.0889,3.0889,3.0889,3.0889,3.0889,3.0889,3.0889,3.0889,3.0889,3.0889,3.0889,3.0889,3.0889,3.0889,3.0889,3.0889,3.0889,3.0889,3.1286,3.1845,3.2399,3.3346,3.4458,3.5057,3.5663,3.61,3.61,3.61,3.6274,3.6881,3.7054,3.7215,3.7814,3.7986,3.7986,3.7986,3.7986,3.7986,3.7986,3.7986,3.7986,3.7986,3.7986,3.7986,3.7986,3.7986,3.7709,3.6904,3.6567,3.611,3.5304,3.4943,3.4775,3.4775,3.4775,3.4775,3.4775,3.4775,3.4775,3.4775,3.4775,3.4775,3.4775,3.492,3.5078,3.5223,3.532,3.5512,3.5812,3.5812,3.5955,3.6181,3.6181,3.6275,2.8291,2.8291,2.8291,2.8291,2.8291,2.8291,2.8291,2.8291,2.8291,2.8291,2.8291,2.8291,2.8291,2.8291,2.8291,2.8291,2.8291,2.8291,2.8291,2.8291,2.8291,2.8291,2.8291,2.8291,2.8291,2.8291,2.8291,2.8291,2.8291,2.8447,2.8789,2.9219,2.9648,3.0078,3.0537,3.081,3.0889,3.0889,3.0889,3.082,3.082,3.083,3.0889,3.0889,3.0889,3.0889,3.0889,3.0889,3.0889,3.0889,3.0889,3.0889,3.0889,3.0889,3.0889,3.0889,3.1508,3.2514,3.3448,3.4569,3.5783,3.6989,3.7536,3.7708,3.7933,3.7986,3.7986,3.7986,3.7986,3.7986,3.7986,3.7986,3.7986,3.7986,3.7986,3.7986,3.7986,3.7986,3.7986,3.7986,3.7986,3.7986,3.7986,3.7986,3.7805,3.7276,3.6747,3.6218,3.5689,3.5148,3.4775,3.4775,3.4775,3.4775,3.4775,3.4775,3.4775,3.4775,3.4775,3.4775,3.4775,3.4775,3.4872,3.5126,3.5126,3.5271,3.5524,3.5524,3.5668,3.592,3.592,3.6098,2.8291,2.8291,2.8291,2.8291,2.8291,2.8291,2.8291,2.8291,2.8291,2.8291,2.8291,2.8291,2.8291,2.8291,2.8291,2.8291,2.8291,2.8291,2.8291,2.8291,2.8291,2.8291,2.8291,2.8291,2.8291,2.8291,2.8291,2.8291,2.8291,2.831,2.8369,2.8779,2.9199,2.9695,3.0068,3.0478,3.0889,3.0889,3.0762,3.045,3.045,3.0635,3.0889,3.0889,3.0889,3.0889,3.0889,3.0889,3.0889,3.0889,3.0889,3.0889,3.0889,3.0889,3.0889,3.0889,3.1005,3.117,3.1334,3.218,3.3356,3.4503,3.5608,3.6623,3.7655,3.7986,3.7986,3.7986,3.7986,3.7986,3.7986,3.7986,3.7986,3.7986,3.7986,3.7986,3.7986,3.7986,3.7986,3.7986,3.7986,3.7986,3.7986,3.7986,3.7805,3.7276,3.6747,3.6218,3.5689,3.5148,3.4775,3.4775,3.4775,3.4775,3.4775,3.4775,3.4775,3.4775,3.4775,3.4775,3.4775,3.4775,3.4835,3.4823,3.4823,3.4981,3.5271,3.5271,3.5368,3.5668,3.5668,3.5812,2.8291,2.8291,2.8291,2.8291,2.8291,2.8291,2.8291,2.8291,2.8291,2.8291,2.8291,2.8291,2.8291,2.8291,2.8291,2.8291,2.8291,2.8291,2.8291,2.8291,2.8291,2.8291,2.8291,2.8291,2.8291,2.8291,2.8291,2.8291,2.8291,2.8291,2.8291,2.8691,2.9121,2.9616,2.998,3.0353,3.0635,3.0635,3.046,3.0098,3.0323,3.045,3.0635,3.082,3.0889,3.0889,3.0889,3.0889,3.0889,3.0889,3.0889,3.0889,3.0889,3.0889,3.0889,3.0889,3.1344,3.1903,3.1903,3.2675,3.373,3.4224,3.5234,3.6286,3.6815,3.7471,3.7986,3.7986,3.7986,3.7986,3.7986,3.7986,3.7986,3.7986,3.7986,3.7986,3.7986,3.7986,3.7986,3.7986,3.7986,3.7986,3.7986,3.7986,3.7902,3.7661,3.694,3.6314,3.6086,3.534,3.4775,3.4775,3.4775,3.4775,3.4775,3.4775,3.4775,3.4775,3.4775,3.4775,3.4775,3.4775,3.4775,3.4775,3.4775,3.4884,3.4981,3.4981,3.5126,3.538,3.538,3.5524,2.8291,2.8291,2.8291,2.8291,2.8291,2.8291,2.8291,2.8291,2.8291,2.8291,2.8291,2.8291,2.8291,2.8291,2.8291,2.8291,2.8291,2.8291,2.8291,2.8291,2.8291,2.8291,2.8291,2.8291,2.8291,2.8291,2.8291,2.8291,2.8291,2.8291,2.8291,2.8584,2.8955,2.9394,2.9814,3.013,3.0228,3.0217,3.0098,2.9922,3.0089,3.0265,3.0392,3.0645,3.083,3.0889,3.0889,3.0889,3.0889,3.0889,3.0889,3.0889,3.0889,3.0889,3.0889,3.0889,3.145,3.2238,3.2238,3.2789,3.3561,3.3899,3.4569,3.5399,3.6034,3.6815,3.7601,3.7921,3.7986,3.7986,3.7986,3.7986,3.7986,3.7986,3.7986,3.7986,3.7986,3.7986,3.7986,3.7986,3.7986,3.7986,3.7986,3.7986,3.7986,3.7986,3.7084,3.6411,3.6411,3.5485,3.4775,3.4775,3.4775,3.4775,3.4775,3.4775,3.4775,3.4775,3.4775,3.4775,3.4775,3.4775,3.4775,3.4775,3.4775,3.4775,3.4775,3.4775,3.4872,3.5078,3.5078,3.5223,2.8291,2.8291,2.8291,2.8291,2.8291,2.8291,2.8291,2.8291,2.8291,2.8291,2.8291,2.8291,2.8291,2.8291,2.8291,2.8291,2.8291,2.8291,2.8291,2.8291,2.8291,2.8291,2.8291,2.8291,2.8291,2.8291,2.8291,2.8291,2.8291,2.8291,2.8291,2.831,2.8525,2.8935,2.9375,2.9702,2.9853,2.9664,2.9686,2.9922,2.9686,2.9863,3.0382,3.0441,3.0577,3.0889,3.0889,3.0889,3.0889,3.0889,3.0889,3.0889,3.0889,3.0889,3.0889,3.0889,3.0947,3.1005,3.1005,3.1005,3.1286,3.241,3.2856,3.33,3.5521,3.6231,3.6503,3.7655,3.7986,3.7986,3.7986,3.7986,3.7986,3.7986,3.7986,3.7986,3.7986,3.7986,3.7986,3.7986,3.7986,3.7986,3.7986,3.7986,3.7986,3.7986,3.7084,3.6411,3.6411,3.5485,3.4775,3.4775,3.4775,3.4775,3.4775,3.4775,3.4775,3.4775,3.4775,3.4775,3.4775,3.4775,3.4775,3.4775,3.4775,3.4775,3.4775,3.4775,3.4823,3.4823,3.4823,3.4981,2.8291,2.8291,2.8291,2.8291,2.8291,2.8291,2.8291,2.8291,2.8291,2.8291,2.8291,2.8291,2.8291,2.8291,2.8291,2.8291,2.8291,2.8291,2.8291,2.8291,2.8291,2.8291,2.8291,2.8291,2.8291,2.8291,2.8291,2.8291,2.8291,2.8291,2.8291,2.8291,2.8486,2.8906,2.9346,2.9799,3.0161,2.9905,2.9804,2.9922,3.0039,3.0216,3.0392,3.0635,3.0772,3.0889,3.0889,3.0889,3.0889,3.0889,3.0889,3.0889,3.0889,3.0889,3.0889,3.0889,3.0889,3.0889,3.0889,3.0889,3.0947,3.1392,3.2561,3.3955,3.4781,3.6111,3.7441,3.788,3.7986,3.7986,3.7986,3.7986,3.7986,3.7986,3.7986,3.7986,3.7986,3.7986,3.7986,3.7986,3.7986,3.7986,3.7986,3.7986,3.7986,3.7986,3.7084,3.6411,3.6411,3.5485,3.4775,3.4775,3.4775,3.4775,3.4775,3.4775,3.4775,3.4775,3.4775,3.4775,3.4775,3.4775,3.4775,3.4775,3.4775,3.4775,3.4775,3.4775,3.4775,3.4775,3.4775,3.4823,2.8291,2.8291,2.8291,2.8291,2.8291,2.8291,2.8291,2.8291,2.8291,2.8291,2.8291,2.8291,2.8291,2.8291,2.8291,2.8291,2.8291,2.8291,2.8291,2.8291,2.8291,2.8291,2.8291,2.8291,2.8291,2.8291,2.8291,2.8291,2.8291,0.0,2.8291,2.8291,2.8555,2.9121,2.9313,2.9754,3.0372,3.0098,2.9922,2.9922,3.0157,3.0274,3.0392,3.0635,3.0762,3.0889,3.0889,3.0889,3.0889,3.0889,3.0889,3.0889,3.0889,3.0889,3.0889,3.0889,3.0889,3.0889,3.0889,3.0889,3.0889,3.0889,3.195,3.3279,3.373,3.5223,3.6881,3.7269,3.7708,3.7986,3.7986,3.7986,3.7986,3.7986,3.7986,3.7986,3.7986,3.7986,3.7986,3.7986,3.7986,3.7986,3.7986,3.7986,3.7986,3.7986,3.7084,3.6411,3.6411,3.5485,3.4775,3.4775,3.4775,3.4775,3.4775,3.4775,3.4775,3.4775,3.4775,3.4775,3.4775,3.4775,3.4775,3.4775,3.4775,3.4775,3.4775,3.4775,3.4775,3.4775,3.4775,3.4775,0.0,0.0,0.0,2.8291,2.8291,2.8291,2.8291,0.0,2.8291,2.8291,2.8291,2.8291,2.8291,2.8291,2.8291,2.8291,2.8291,2.8291,2.8291,2.8291,2.8291,2.8291,2.8291,2.8291,2.8291,2.8291,2.8291,2.8291,2.8291,2.8291,2.8291,2.8291,2.8682,2.9521,2.929,2.9526,3.0421,3.0098,2.9931,2.9931,2.9931,3.0098,3.0382,3.0382,3.0577,3.0889,3.0889,3.0889,3.0889,3.0889,3.0889,3.0889,3.0889,3.0889,3.0889,3.0889,3.0889,3.0889,3.0889,3.0889,3.0889,3.0889,3.0947,3.117,3.2352,3.3515,3.4725,3.585,3.7054,3.7986,3.7986,3.7986,3.7986,3.7986,3.7986,3.7986,3.7986,3.7986,3.7986,3.7986,3.7986,3.7986,3.7986,3.7986,3.7986,3.7986,3.7084,3.6411,3.6411,3.5485,3.4775,3.4775,3.4775,3.4775,3.4775,3.4775,3.4775,3.4775,3.4775,3.4775,3.4775,3.4775,3.4775,3.4775,3.4775,3.4775,3.4775,3.4775,3.4775,3.4775,3.4775,3.4775,2.8291,0.0,0.0,0.0,0.0,0.0,0.0,0.0,2.8291,2.8291,2.8291,2.8291,2.8291,2.8291,2.8291,2.8291,2.8291,2.8291,2.8291,2.8291,2.8291,2.8291,2.8291,2.8291,2.8291,2.8291,2.8291,0.0,2.8291,2.8291,2.8291,2.8291,2.8535,2.9082,2.9349,2.9721,3.0256,3.048,3.0645,3.0645,3.0645,3.0645,3.0762,3.0762,3.083,3.0889,3.0889,3.0889,3.0889,3.0889,3.0889,3.0889,3.0889,3.0889,3.0889,3.0889,3.0889,3.0889,3.0889,3.0889,3.0889,3.0889,3.1508,3.2238,3.2571,3.4123,3.5795,3.6122,3.7054,3.7986,3.7986,3.7986,3.7986,3.7986,3.7986,3.7986,3.7986,3.7986,3.7986,3.7986,3.7986,3.7986,3.7986,3.7986,3.7986,3.7986,3.7084,3.6411,3.6411,3.5485,3.4775,3.4775,3.4775,3.4775,3.4775,3.4775,3.4775,3.4775,3.4775,3.4775,3.4775,3.4775,3.4775,3.4775,3.4775,3.4775,3.4775,3.4775,3.4775,3.4775,3.4775,3.4775,2.8291,2.8291,2.8291,2.8291,0.0,0.0,2.8291,2.8291,2.8291,0.0,2.8291,2.8291,2.8291,2.8291,2.8291,2.8291,2.8291,2.8291,2.8291,2.8291,2.8291,2.8291,2.8291,2.8291,2.8291,2.8291,2.8291,2.8291,2.8291,2.8291,2.8291,2.8291,2.8486,2.8906,2.9346,2.9766,3.0195,3.0664,3.0889,3.0889,3.0889,3.0889,3.0889,3.0889,3.0889,3.0889,3.0889,3.0889,3.0889,3.0889,3.0889,3.0889,3.0889,3.0889,3.0889,3.0889,3.0889,3.0889,3.0889,3.0889,3.0889,3.0889,3.1392,3.196,3.196,3.3243,3.4847,3.5344,3.6665,3.7986,3.7986,3.7986,3.7986,3.7986,3.7986,3.7986,3.7986,3.7986,3.7986,3.7986,3.7986,3.7986,3.7986,3.7986,3.7986,3.7986,3.7084,3.6411,3.6411,3.5485,3.4775,3.4775,3.4775,3.4775,3.4775,3.4775,3.4775,3.4775,3.4775,3.4775,3.4775,3.4775,3.4775,3.4775,3.4775,3.4775,3.4775,3.4775,3.4775,3.4775,3.4775,3.4775,2.8359,2.833,2.8291,2.8291,2.8291,0.0,2.8291,2.8291,2.8291,0.0,2.8291,2.8291,2.8291,2.8291,2.8291,2.8291,2.8291,2.8291,2.8291,2.8291,2.8291,2.8291,2.8291,2.8291,2.8291,2.8291,2.8291,2.8291,2.8291,2.8291,2.8291,2.8291,2.8467,2.8838,2.9268,2.9697,3.0127,3.0586,3.084,3.0889,3.0889,3.0889,3.0889,3.0889,3.0889,3.0889,3.0889,3.0889,3.0889,3.0889,3.0889,3.0889,3.0889,3.0889,3.0889,3.0889,3.0889,3.0889,3.0889,3.0889,3.0889,3.0889,3.0889,3.0889,3.0889,3.173,3.296,3.4224,3.6263,3.7986,3.7986,3.7986,3.7986,3.7986,3.7986,3.7986,3.7986,3.7986,3.7986,3.7986,3.7986,3.7986,3.7986,3.7986,3.7962,3.7902,3.7048,3.6386,3.6326,3.5449,3.4775,3.4775,3.4775,3.4775,3.4775,3.4775,3.4775,3.4775,3.4775,3.4775,3.4775,3.4775,3.4775,3.4775,3.4775,3.4775,3.4775,3.4775,3.4775,3.4775,3.4775,3.4775,2.8799,2.8555,2.8291,2.8291,2.8291,0.0,2.8291,2.8291,2.8291,0.0,2.8291,2.8291,2.8291,2.8291,2.8291,2.8291,2.8291,2.8291,2.8291,2.8291,2.8291,2.8291,2.8291,2.8291,2.8291,2.8291,2.8291,2.8291,2.8291,2.8291,2.8291,2.8291,2.833,2.8408,2.8828,2.9258,2.9687,3.0117,3.0518,3.0889,3.0889,3.0889,3.0889,3.0889,3.0889,3.0889,3.0889,3.0889,3.0889,3.0889,3.0889,3.0889,3.0889,3.0889,3.0889,3.0889,3.0889,3.0889,3.0889,3.0889,3.0889,3.0889,3.0889,3.0889,3.0889,3.173,3.313,3.5256,3.6869,3.7986,3.7986,3.7986,3.7986,3.7986,3.7986,3.7986,3.7986,3.7986,3.7986,3.7986,3.7986,3.7986,3.7986,3.7986,3.7841,3.7409,3.6807,3.6254,3.5821,3.522,3.4775,3.4775,3.4775,3.4775,3.4775,3.4775,3.4775,3.4775,3.4775,3.4775,3.4775,3.4775,3.4775,3.4775,3.4775,3.4775,3.4775,3.4775,3.4775,3.4775,3.4775,3.4775,2.8975,2.876,0.0,2.834,2.8291,0.0,0.0,2.8291,2.8291,2.8291,2.8291,2.8291,2.8291,2.8291,2.8291,2.8291,2.8291,2.8291,2.8291,2.8291,2.8291,2.8291,2.8291,2.8291,2.8291,2.8291,2.8291,2.8291,2.8291,2.8291,2.8291,2.8291,2.8291,2.8291,2.8701,2.9023,2.9248,2.9883,3.0312,3.0547,3.0781,3.0889,3.0889,3.0889,3.0889,3.0889,3.0889,3.0889,3.0889,3.0889,3.0889,3.0889,3.0889,3.0889,3.0889,3.0889,3.0889,3.0889,3.0889,3.0889,3.0889,3.0889,3.0889,3.0889,3.0889,3.173,3.3073,3.4825,3.6154,3.7215,3.7814,3.7986,3.7986,3.7986,3.7986,3.7986,3.7986,3.7986,3.7986,3.7986,3.7986,3.7986,3.7986,3.7757,3.7505,3.7228,3.6519,3.5918,3.5653,3.5148,3.4775,3.4775,3.4775,3.4775,3.4775,3.4775,3.4775,3.4775,3.4775,3.4775,3.4775,3.4775,3.4775,3.4775,3.4775,3.4775,3.4775,3.4775,3.4775,3.4775,3.4775,3.4775,0.0,0.0,0.0,0.0,0.0,2.8291,0.0,0.0,0.0,2.8291,0.0,0.0,0.0,0.0,0.0,0.0,0.0,0.0,0.0,2.8242,0.0,2.8291,2.8291,2.8291,2.8291,2.8291,2.8291,2.8291,2.8291,2.8291,2.8291,2.8291,2.8291,2.8291,2.8623,2.8838,2.8916,2.9687,3.0117,3.0205,3.0674,3.0889,3.0889,3.0889,3.0889,3.0889,3.0889,3.0889,3.0889,3.0889,3.0889,3.0889,3.0889,3.0889,3.0889,3.0889,3.0889,3.0889,3.0889,3.0889,3.0889,3.0889,3.0889,3.0889,3.0889,3.173,3.296,3.4067,3.5289,3.646,3.7708,3.7986,3.7986,3.7986,3.7986,3.7986,3.7986,3.7986,3.7986,3.7986,3.7986,3.7986,3.7986,3.7541,3.7156,3.706,3.623,3.5581,3.5473,3.5088,3.4775,3.4775,3.4775,3.4775,3.4775,3.4775,3.4775,3.4775,3.4775,3.4775,3.4775,3.4775,3.4775,3.4775,3.4775,3.4775,3.4775,3.4775,3.4775,3.4775,3.4775,3.4775,0.0,0.0,0.0,0.0,2.8564,0.0,0.0,0.0,2.8291,2.8291,0.0,0.0,0.0,0.0,0.0,0.0,0.0,0.0,2.7845,2.8057,2.8291,2.8291,2.8291,2.8291,2.8291,2.8291,2.8291,2.8291,2.8291,2.8291,2.8291,2.8291,2.8291,2.8291,2.834,2.8545,2.8916,2.9394,2.9824,3.0205,3.0674,3.0889,3.0889,3.0889,3.0889,3.0889,3.0889,3.0889,3.0889,3.0889,3.0889,3.0889,3.0889,3.0889,3.0889,3.0889,3.0889,3.0889,3.0889,3.0889,3.0889,3.0889,3.0889,3.0889,3.0889,3.173,3.296,3.4067,3.5289,3.646,3.7708,3.7986,3.7986,3.7986,3.7986,3.7986,3.7986,3.7986,3.7986,3.7986,3.7986,3.7986,3.7986,3.7541,3.7036,3.6567,3.599,3.5449,3.4931,3.4823,3.4775,3.4775,3.4775,3.4775,3.4775,3.4775,3.4775,3.4775,3.4775,3.4775,3.4775,3.4775,3.4775,3.4775,3.4775,3.4775,3.4775,3.4775,3.4775,3.4775,3.4775,3.4775,0.0,0.0,0.0,0.0,0.0,0.0,2.8662,0.0,2.8291,0.0,0.0,0.0,0.0,0.0,0.0,0.0,2.8684,0.0,0.0,0.0,2.9733,0.0,0.0,0.0,2.8291,2.8291,2.8291,2.8291,2.8291,2.8291,2.8291,2.8291,2.8291,2.8291,2.8291,2.8379,2.8555,2.8975,2.9404,2.9834,3.0283,3.0635,3.0889,3.0889,3.0889,3.0889,3.0889,3.0889,3.0889,3.0889,3.0889,3.0889,3.0889,3.0889,3.0889,3.0889,3.0889,3.0889,3.0889,3.0889,3.0889,3.0889,3.0889,3.0889,3.0889,3.1228,3.1903,3.3063,3.4235,3.5443,3.6665,3.7495,3.7986,3.7986,3.7986,3.7986,3.7986,3.7986,3.7986,3.7986,3.7986,3.7986,3.7986,3.7541,3.7012,3.6483,3.5954,3.5425,3.4847,3.4775,3.4775,3.4775,3.4775,3.4775,3.4775,3.4775,3.4775,3.4775,3.4775,3.4775,3.4775,3.4775,3.4775,3.4775,3.4775,3.4775,3.4775,3.4775,3.4775,3.4775,3.4775,3.4775,3.0478,0.0,0.0,0.0,0.0,0.0,0.0,0.0,0.0,0.0,0.0,0.0,0.0,0.0,0.0,0.0,0.0,2.9525,0.0,3.0513,0.0,0.0,0.0,0.0,0.0,2.8441,2.8291,2.8291,2.8291,2.8291,2.8291,2.8291,2.8291,2.8291,2.8291,2.8291,2.8291,2.8711,2.9141,2.957,3.0,3.0439,3.0889,3.0889,3.0889,3.0889,3.0889,3.0889,3.0889,3.0889,3.0889,3.0889,3.0889,3.0889,3.0889,3.0889,3.0889,3.0889,3.0889,3.0889,3.0889,3.0889,3.0889,3.0889,3.0889,3.0889,3.117,3.2352,3.3515,3.467,3.5904,3.7108,3.7986,3.7986,3.7986,3.7986,3.7986,3.7986,3.7986,3.7986,3.7986,3.7986,3.7986,3.7541,3.706,3.6675,3.605,3.5473,3.5051,3.4871,3.4775,3.4775,3.4775,3.4775,3.4775,3.4775,3.4775,3.4775,3.4775,3.4775,3.4775,3.4775,3.4775,3.4775,3.4775,3.4775,3.4775,3.4775,3.4775,3.4775,3.4775,3.4775,0.0,0.0,0.0,3.0176,0.0,0.0,0.0,0.0,2.8896,0.0,0.0,0.0,0.0,0.0,0.0,0.0,0.0,0.0,0.0,0.0,0.0,0.0,0.0,0.0,0.0,2.89,2.8291,2.8291,2.8291,2.8291,2.8291,2.8291,2.8291,2.8291,2.8291,2.8291,2.8291,2.8711,2.9141,2.957,3.0,3.0439,3.0889,3.0889,3.0889,3.0889,3.0889,3.0889,3.0889,3.0889,3.0889,3.0889,3.0889,3.0889,3.0889,3.0889,3.0889,3.0889,3.0889,3.0889,3.0889,3.0889,3.0889,3.0889,3.0889,3.0889,3.117,3.2352,3.3515,3.467,3.5904,3.7108,3.7986,3.7986,3.7986,3.7986,3.7986,3.7986,3.7986,3.7986,3.7986,3.7986,3.7986,3.7541,3.718,3.7168,3.6278,3.5605,3.5593,3.5148,3.4775,3.4775,3.4775,3.4775,3.4775,3.4775,3.4775,3.4775,3.4775,3.4775,3.4775,3.4775,3.4775,3.4775,3.4775,3.4775,3.4775,3.4775,3.4775,3.4775,3.4775,3.4775,0.0,0.0,3.0654,3.0654,0.0,0.0,0.0,0.0,0.0,0.0,0.0,0.0,0.0,0.0,0.0,0.0,0.0,0.0,0.0,0.0,0.0,0.0,0.0,0.0,0.0,0.0,0.0,2.8291,2.8291,2.8291,2.8291,2.8291,2.8291,2.8291,2.8291,2.8291,2.8291,2.8437,2.8721,2.9141,2.958,3.001,3.0439,3.0752,3.0889,3.0889,3.0889,3.0889,3.0889,3.0889,3.0889,3.0889,3.0889,3.0889,3.0889,3.0889,3.0889,3.0889,3.0889,3.0889,3.0889,3.0889,3.0889,3.0889,3.0889,3.145,3.218,3.2581,3.4078,3.5674,3.6068,3.7108,3.7986,3.7986,3.7986,3.7986,3.7986,3.7986,3.7986,3.7986,3.7986,3.7986,3.7986,3.7829,3.7601,3.724,3.6892,3.6411,3.5701,3.5461,3.5208,3.4823,3.4775,3.4775,3.4775,3.4775,3.4775,3.4775,3.4775,3.4775,3.4775,3.4775,3.4775,3.4775,3.4775,3.4775,3.4775,3.4775,3.4775,3.4775,3.4775,3.4775,3.0889,3.0889,0.0,3.0889,3.0664,0.0,3.0449,0.0,2.9717,0.0,0.0,0.0,0.0,0.0,0.0,0.0,0.0,0.0,0.0,3.2538,0.0,0.0,0.0,0.0,0.0,2.9164,2.8291,2.8291,2.8291,2.8291,0.0,0.0,2.8291,2.8291,2.8291,2.8291,2.8291,2.8291,2.8506,2.8926,2.9209,2.9639,3.0205,3.0508,3.0732,3.0889,3.0889,3.0889,3.0889,3.0889,3.0889,3.0889,3.0889,3.0889,3.0889,3.0889,3.0889,3.0889,3.0889,3.0889,3.0889,3.0889,3.0889,3.1005,3.1392,3.2065,3.2799,3.3176,3.4681,3.6177,3.6177,3.7108,3.7986,3.7986,3.7986,3.7986,3.7986,3.7986,3.7986,3.7986,3.7986,3.7986,3.7986,3.7986,3.7866,3.7529,3.7312,3.6952,3.6266,3.5845,3.5485,3.5148,3.4895,3.4775,3.4775,3.4775,3.4775,3.4775,3.4775,3.4775,3.4775,3.4775,3.4871,3.51,3.4919,3.4871,3.5063,3.4871,3.4775,3.4775,3.4775,3.4775]}]]